[[{"header":{"parameterUnit":"m.s-1","parameterCategory":1,"la1":30.6,"la2":29.2853,"lo1":-89.7004,"lo2":-87.6739,"dy":0.0162,"dx":0.0183,"nx":112,"ny":82,"refTime":"2026-05-22T12:00:00:Z","depth":0,"parameterNumber":2,"parameterNumberName":"U-component_of_WINDS"},"data":[0.0,0.0,0.0,0.0,0.0,0.0,0.0,0.0,0.0,0.0,0.0,0.0,0.0,0.0,0.0,0.0,0.0,0.0,0.0,0.0,0.0,0.0,0.0,0.0,0.0,0.0,0.0,0.0,0.0,0.0,0.0,0.0,0.0,0.0,0.0,0.0,0.0,0.0,0.0,0.0,0.0,0.0,0.0,0.0,0.0,0.0,0.0,0.0,0.0,0.0,0.0,0.0,0.0,0.0,0.0,0.0,0.0,0.0,0.0,0.0,0.0,0.0,0.0,0.0,0.0,0.0,0.0,0.0,0.0,0.0,0.0,0.0,0.0,0.0,0.0,0.0,0.0,0.0,0.0,0.0,0.0,0.0,0.0,0.0,0.0,0.0,0.0,0.0,0.0,0.0,-2.178,-2.1506,-2.3121,-2.3831,-2.2913,-2.2007,-2.0843,-1.929,0.0,0.0,0.0,0.0,0.0,0.0,0.0,0.0,0.0,0.0,0.0,0.0,0.0,0.0,0.0,0.0,0.0,0.0,0.0,0.0,0.0,0.0,0.0,0.0,0.0,0.0,0.0,0.0,0.0,0.0,0.0,0.0,0.0,0.0,0.0,0.0,0.0,0.0,0.0,0.0,0.0,0.0,0.0,0.0,0.0,0.0,0.0,0.0,0.0,0.0,0.0,0.0,0.0,0.0,0.0,0.0,0.0,0.0,0.0,0.0,0.0,0.0,0.0,0.0,0.0,0.0,0.0,0.0,0.0,0.0,0.0,0.0,0.0,0.0,0.0,0.0,0.0,0.0,0.0,0.0,0.0,0.0,0.0,0.0,0.0,0.0,0.0,0.0,0.0,0.0,0.0,0.0,0.0,0.0,0.0,0.0,0.0,0.0,0.0,0.0,0.0,0.0,0.0,0.0,-2.0399,-2.2502,-2.3611,-2.3868,-2.3043,-2.2081,-2.1107,-2.0164,0.0,0.0,0.0,0.0,0.0,0.0,0.0,0.0,0.0,0.0,0.0,0.0,0.0,0.0,0.0,0.0,0.0,0.0,0.0,0.0,0.0,0.0,0.0,0.0,0.0,0.0,0.0,0.0,0.0,0.0,0.0,0.0,0.0,0.0,0.0,0.0,0.0,0.0,0.0,0.0,0.0,0.0,0.0,0.0,0.0,0.0,0.0,0.0,0.0,0.0,0.0,0.0,0.0,0.0,0.0,0.0,0.0,0.0,0.0,0.0,0.0,0.0,0.0,0.0,0.0,0.0,0.0,0.0,0.0,0.0,0.0,0.0,0.0,0.0,0.0,0.0,0.0,0.0,0.0,0.0,0.0,0.0,0.0,0.0,0.0,0.0,0.0,0.0,0.0,0.0,0.0,0.0,0.0,0.0,0.0,0.0,0.0,0.0,0.0,0.0,0.0,0.0,0.0,-2.0084,-2.1352,-2.4024,-2.464,-2.4695,-2.4318,-2.2975,-2.1805,-2.1007,-1.9605,0.0,0.0,0.0,0.0,0.0,0.0,0.0,0.0,0.0,0.0,0.0,0.0,0.0,0.0,0.0,0.0,0.0,0.0,0.0,0.0,0.0,0.0,0.0,0.0,0.0,0.0,0.0,0.0,0.0,0.0,0.0,0.0,0.0,0.0,0.0,0.0,0.0,0.0,0.0,0.0,0.0,0.0,0.0,0.0,0.0,0.0,0.0,0.0,0.0,0.0,0.0,0.0,0.0,0.0,0.0,0.0,0.0,0.0,0.0,0.0,0.0,0.0,0.0,0.0,0.0,0.0,0.0,0.0,0.0,0.0,0.0,0.0,0.0,0.0,0.0,0.0,0.0,0.0,0.0,0.0,0.0,0.0,0.0,0.0,0.0,0.0,0.0,0.0,0.0,0.0,0.0,0.0,0.0,0.0,0.0,0.0,0.0,0.0,0.0,0.0,0.0,0.0,-2.2001,-2.2817,-2.4896,-2.5283,-2.5319,-2.5136,-2.3805,-2.2559,-2.156,-1.9803,0.0,0.0,0.0,0.0,0.0,0.0,0.0,0.0,0.0,0.0,0.0,0.0,0.0,0.0,0.0,0.0,0.0,0.0,0.0,0.0,0.0,0.0,0.0,0.0,0.0,0.0,0.0,0.0,0.0,0.0,0.0,0.0,0.0,0.0,0.0,0.0,0.0,0.0,0.0,0.0,0.0,0.0,0.0,0.0,0.0,0.0,0.0,0.0,0.0,0.0,0.0,0.0,0.0,0.0,0.0,0.0,0.0,0.0,0.0,0.0,0.0,0.0,0.0,0.0,0.0,0.0,0.0,0.0,0.0,0.0,0.0,0.0,0.0,0.0,0.0,0.0,0.0,0.0,0.0,0.0,0.0,0.0,0.0,0.0,0.0,0.0,0.0,0.0,0.0,0.0,0.0,0.0,0.0,0.0,0.0,0.0,0.0,0.0,0.0,0.0,0.0,0.0,-2.2416,-2.3933,-2.4253,-2.4952,-2.5099,-2.4337,-2.3996,-2.3158,-2.1596,-1.9803,0.0,0.0,0.0,0.0,0.0,0.0,0.0,0.0,0.0,0.0,0.0,0.0,0.0,0.0,0.0,0.0,0.0,0.0,0.0,0.0,0.0,0.0,0.0,0.0,0.0,0.0,0.0,0.0,0.0,0.0,0.0,0.0,0.0,0.0,0.0,0.0,0.0,0.0,0.0,0.0,0.0,0.0,0.0,0.0,0.0,0.0,0.0,0.0,0.0,0.0,0.0,0.0,0.0,0.0,0.0,0.0,0.0,0.0,0.0,0.0,0.0,0.0,0.0,0.0,0.0,0.0,0.0,0.0,0.0,0.0,0.0,0.0,0.0,0.0,0.0,0.0,0.0,0.0,0.0,0.0,0.0,0.0,0.0,0.0,0.0,0.0,0.0,0.0,0.0,0.0,0.0,0.0,0.0,0.0,0.0,0.0,0.0,0.0,0.0,0.0,0.0,0.0,-2.2692,-2.4094,0.0,-2.4975,-2.5029,-2.472,-2.3598,-2.2229,-2.0657,0.0,0.0,0.0,0.0,0.0,0.0,0.0,0.0,0.0,0.0,0.0,0.0,0.0,0.0,0.0,0.0,0.0,0.0,0.0,0.0,0.0,0.0,0.0,0.0,0.0,0.0,0.0,0.0,0.0,0.0,0.0,0.0,0.0,0.0,0.0,0.0,0.0,0.0,0.0,0.0,0.0,0.0,0.0,0.0,0.0,0.0,0.0,0.0,0.0,0.0,0.0,0.0,0.0,0.0,0.0,0.0,0.0,0.0,0.0,0.0,0.0,0.0,0.0,0.0,0.0,0.0,0.0,0.0,0.0,0.0,0.0,0.0,0.0,0.0,0.0,0.0,0.0,0.0,0.0,0.0,0.0,0.0,0.0,0.0,0.0,0.0,0.0,0.0,0.0,0.0,0.0,0.0,0.0,0.0,0.0,0.0,0.0,0.0,0.0,0.0,0.0,0.0,-2.1316,-2.3213,-2.4526,0.0,-2.4802,-2.4804,-2.4552,-2.3316,-2.1822,-2.0045,0.0,0.0,0.0,0.0,0.0,0.0,0.0,0.0,0.0,0.0,0.0,0.0,0.0,0.0,0.0,0.0,0.0,0.0,0.0,0.0,0.0,0.0,0.0,0.0,0.0,0.0,0.0,0.0,0.0,0.0,0.0,0.0,0.0,0.0,0.0,0.0,0.0,0.0,0.0,0.0,0.0,0.0,0.0,0.0,0.0,0.0,0.0,0.0,0.0,0.0,0.0,0.0,0.0,0.0,0.0,0.0,0.0,0.0,0.0,0.0,0.0,0.0,0.0,0.0,0.0,0.0,0.0,0.0,0.0,0.0,0.0,0.0,0.0,0.0,0.0,0.0,0.0,0.0,0.0,0.0,0.0,0.0,0.0,0.0,0.0,0.0,0.0,0.0,0.0,0.0,0.0,0.0,0.0,0.0,0.0,0.0,0.0,0.0,0.0,0.0,0.0,0.0,-2.1191,-2.3972,-2.5427,-2.3948,-2.4329,-2.4371,-2.3553,-2.3218,-2.2123,0.0,0.0,0.0,0.0,0.0,0.0,0.0,0.0,0.0,0.0,0.0,0.0,0.0,0.0,0.0,0.0,0.0,0.0,0.0,0.0,0.0,0.0,0.0,0.0,0.0,0.0,0.0,0.0,0.0,0.0,0.0,0.0,0.0,0.0,0.0,0.0,0.0,0.0,0.0,0.0,0.0,0.0,0.0,0.0,0.0,0.0,0.0,0.0,0.0,0.0,0.0,0.0,0.0,0.0,0.0,0.0,0.0,0.0,0.0,0.0,0.0,0.0,0.0,0.0,0.0,0.0,0.0,0.0,0.0,0.0,0.0,0.0,0.0,0.0,0.0,0.0,0.0,0.0,0.0,0.0,0.0,0.0,0.0,0.0,0.0,0.0,0.0,0.0,0.0,0.0,0.0,0.0,0.0,0.0,0.0,0.0,0.0,0.0,0.0,0.0,0.0,0.0,0.0,-2.0983,-2.3827,-2.5273,-2.375,-2.3619,-2.3555,-2.3307,-2.2001,-2.0449,-1.8704,0.0,0.0,0.0,0.0,0.0,0.0,0.0,0.0,0.0,0.0,0.0,0.0,0.0,0.0,0.0,0.0,0.0,0.0,0.0,0.0,0.0,0.0,0.0,0.0,0.0,0.0,0.0,0.0,0.0,0.0,0.0,0.0,0.0,0.0,0.0,0.0,0.0,0.0,0.0,0.0,0.0,0.0,0.0,0.0,0.0,0.0,0.0,0.0,0.0,0.0,0.0,0.0,0.0,0.0,0.0,0.0,0.0,0.0,0.0,0.0,0.0,0.0,0.0,0.0,0.0,0.0,0.0,0.0,0.0,0.0,0.0,0.0,0.0,0.0,0.0,0.0,0.0,0.0,0.0,0.0,0.0,0.0,0.0,0.0,0.0,0.0,0.0,0.0,0.0,0.0,0.0,0.0,0.0,0.0,0.0,0.0,0.0,0.0,0.0,0.0,0.0,0.0,-2.0848,-2.3582,-2.4999,-2.3549,-2.3132,-2.3074,-2.3358,-2.1462,-1.9742,-1.8578,0.0,0.0,0.0,0.0,0.0,0.0,0.0,0.0,0.0,0.0,0.0,0.0,0.0,0.0,0.0,0.0,0.0,0.0,0.0,0.0,0.0,0.0,0.0,0.0,0.0,0.0,0.0,0.0,0.0,0.0,0.0,0.0,0.0,0.0,0.0,0.0,0.0,0.0,0.0,0.0,0.0,0.0,0.0,0.0,0.0,0.0,0.0,0.0,0.0,0.0,0.0,0.0,0.0,0.0,0.0,0.0,0.0,0.0,0.0,0.0,0.0,0.0,0.0,0.0,0.0,0.0,0.0,0.0,0.0,0.0,0.0,0.0,0.0,0.0,0.0,0.0,0.0,0.0,0.0,0.0,0.0,0.0,0.0,0.0,0.0,0.0,0.0,0.0,0.0,0.0,0.0,0.0,0.0,0.0,0.0,0.0,0.0,0.0,0.0,0.0,0.0,0.0,-2.0749,-2.3328,-2.4689,-2.3314,-2.2829,-2.2867,-2.3536,-2.1398,-1.9776,-1.9217,0.0,0.0,0.0,0.0,0.0,0.0,0.0,0.0,0.0,0.0,0.0,0.0,0.0,0.0,0.0,0.0,0.0,0.0,0.0,0.0,0.0,0.0,0.0,0.0,0.0,0.0,0.0,0.0,0.0,0.0,0.0,0.0,0.0,0.0,0.0,0.0,0.0,0.0,0.0,0.0,0.0,0.0,0.0,0.0,0.0,0.0,0.0,0.0,0.0,0.0,0.0,0.0,0.0,0.0,0.0,0.0,0.0,0.0,0.0,0.0,-2.1478,-2.016,0.0,0.0,0.0,0.0,0.0,0.0,0.0,0.0,0.0,0.0,0.0,0.0,0.0,0.0,0.0,0.0,0.0,0.0,0.0,0.0,0.0,0.0,0.0,0.0,0.0,0.0,0.0,0.0,0.0,0.0,0.0,0.0,0.0,0.0,0.0,0.0,0.0,0.0,0.0,0.0,-2.0556,-2.3237,-2.4634,-2.3127,-2.2751,-2.2661,-2.2815,-2.1079,-1.9947,-1.9819,-1.7336,0.0,0.0,0.0,0.0,0.0,0.0,0.0,0.0,0.0,0.0,0.0,0.0,0.0,0.0,0.0,0.0,0.0,0.0,0.0,0.0,0.0,0.0,0.0,0.0,0.0,0.0,0.0,0.0,0.0,0.0,0.0,0.0,0.0,0.0,0.0,0.0,0.0,0.0,0.0,0.0,0.0,0.0,0.0,0.0,0.0,0.0,0.0,0.0,0.0,0.0,0.0,0.0,0.0,0.0,0.0,0.0,0.0,0.0,0.0,-2.2488,-2.1724,0.0,0.0,0.0,0.0,0.0,0.0,0.0,0.0,0.0,0.0,0.0,0.0,0.0,0.0,0.0,0.0,0.0,0.0,0.0,0.0,0.0,0.0,0.0,0.0,0.0,0.0,0.0,0.0,0.0,0.0,0.0,0.0,0.0,0.0,0.0,0.0,0.0,0.0,0.0,0.0,-2.0484,-2.2701,-2.3929,-2.2872,-2.2582,-2.2613,-2.2954,-2.1498,-2.0403,-2.0018,-1.856,0.0,0.0,0.0,0.0,0.0,0.0,0.0,0.0,0.0,0.0,0.0,0.0,0.0,0.0,0.0,0.0,0.0,0.0,0.0,0.0,0.0,0.0,0.0,0.0,0.0,0.0,0.0,0.0,0.0,0.0,0.0,0.0,0.0,0.0,0.0,0.0,0.0,0.0,0.0,0.0,0.0,0.0,0.0,0.0,0.0,0.0,0.0,0.0,0.0,0.0,0.0,0.0,0.0,-2.6691,-2.6691,-2.6607,-2.4188,-2.3555,-2.4435,-2.4091,-2.3703,-2.3267,-2.2789,0.0,0.0,0.0,0.0,0.0,0.0,0.0,0.0,0.0,0.0,0.0,0.0,0.0,0.0,0.0,0.0,0.0,0.0,0.0,0.0,0.0,0.0,-2.5707,-2.4901,-2.4906,-2.3987,-1.9969,0.0,0.0,0.0,0.0,0.0,0.0,0.0,0.0,0.0,0.0,0.0,-2.0617,-2.2201,-2.3178,-2.261,-2.2391,-2.2547,-2.3156,-2.209,-2.1042,-2.0268,-1.9963,-1.8442,0.0,0.0,0.0,0.0,0.0,0.0,0.0,0.0,0.0,0.0,0.0,0.0,0.0,0.0,0.0,0.0,0.0,0.0,0.0,0.0,0.0,0.0,0.0,0.0,0.0,0.0,0.0,0.0,0.0,0.0,0.0,0.0,-1.5631,-1.6319,0.0,0.0,0.0,0.0,0.0,0.0,0.0,0.0,0.0,0.0,0.0,0.0,0.0,-2.3336,-2.2877,-2.5584,-2.6865,-2.6691,-2.6691,-2.6691,-2.6691,-2.6302,-2.6444,-2.7003,-2.6954,0.0,-2.255,-2.3776,0.0,0.0,0.0,0.0,0.0,0.0,0.0,0.0,0.0,0.0,0.0,0.0,0.0,0.0,0.0,0.0,0.0,0.0,0.0,0.0,0.0,0.0,-2.737,-2.6572,-2.6101,-2.5332,-2.3454,-2.2477,-2.1502,-1.9879,-2.0213,-2.0513,0.0,0.0,0.0,0.0,0.0,0.0,-2.1196,-2.244,-2.3137,-2.2423,-2.2324,-2.233,-2.2446,-2.2276,-2.1837,-2.1089,-1.9802,-1.8826,-1.8335,-1.7467,0.0,0.0,0.0,0.0,0.0,0.0,0.0,0.0,0.0,0.0,0.0,0.0,0.0,0.0,0.0,0.0,0.0,0.0,0.0,0.0,0.0,0.0,0.0,0.0,0.0,0.0,0.0,0.0,0.0,-1.5784,-1.6812,-1.7427,-1.689,-1.6596,0.0,0.0,0.0,0.0,0.0,0.0,0.0,0.0,0.0,-2.2042,-2.5199,-2.6895,-2.6895,-2.7761,-2.8865,-3.0184,-2.9538,-2.8332,-2.6691,-2.6691,-2.6825,-2.7069,-2.7644,-2.7199,-2.6106,-2.6636,-2.5313,-2.2871,0.0,0.0,0.0,0.0,-2.1481,-2.3582,-2.6889,-2.8841,-2.9593,-2.7744,0.0,0.0,0.0,0.0,0.0,0.0,0.0,-2.6401,-2.6466,-2.7156,-2.7762,-2.7409,-2.6626,-2.5951,-2.5693,-2.4863,-2.3463,-2.1126,-2.097,-2.0818,-1.9587,-1.9727,0.0,0.0,0.0,-2.158,-2.1241,-2.2138,-2.2651,-2.233,-2.2296,-2.2296,-2.2296,-2.2296,-2.1989,-2.1241,-2.0564,-1.9616,-1.8335,-1.8059,-1.7196,0.0,0.0,0.0,0.0,0.0,0.0,0.0,0.0,0.0,0.0,0.0,0.0,0.0,0.0,0.0,0.0,0.0,0.0,0.0,0.0,0.0,0.0,0.0,0.0,0.0,0.0,0.0,0.0,-1.7535,-1.828,-1.8486,-1.8677,-1.8671,0.0,0.0,0.0,0.0,0.0,0.0,-2.363,-2.3841,-2.4392,-2.5401,-2.8154,-2.9812,-3.0216,-2.9679,-3.0582,-3.29,-3.2038,-3.0451,-2.8285,-2.8285,-2.8285,-2.8334,-2.9251,-2.9865,-3.0149,-2.9132,-2.7732,-2.6136,-2.5046,-2.3904,-2.2885,-2.2885,-2.4462,-2.7096,-3.0519,-3.1468,-3.0619,-2.7145,-2.8365,-3.1015,-3.0012,0.0,0.0,0.0,0.0,-2.7888,-2.7888,-2.8191,-2.8399,-2.7996,-2.716,-2.6601,-2.7093,-2.6407,-2.4976,-2.2525,-2.2037,-2.1563,-2.0027,-2.0369,0.0,-2.0128,0.0,-2.1969,-2.1783,-2.2243,-2.2513,-2.2313,-2.2296,-2.2296,-2.2296,-2.2649,-2.2395,-2.1258,-2.1546,-2.0737,-1.8459,-1.8882,-1.8318,-1.6475,0.0,0.0,0.0,0.0,0.0,0.0,0.0,0.0,0.0,0.0,0.0,0.0,0.0,0.0,0.0,0.0,0.0,0.0,0.0,0.0,0.0,0.0,0.0,0.0,0.0,0.0,0.0,0.0,0.0,-1.973,-2.0243,0.0,0.0,0.0,0.0,-1.9473,-2.2244,-2.4502,-2.5603,-2.6851,-2.7915,-2.873,-3.0393,-3.2021,-3.3532,-3.2955,-3.2739,-3.29,-3.2852,-3.2731,-3.2586,-3.2586,-3.2586,-3.2618,-3.3261,-3.3523,-3.333,-3.0241,-2.926,-2.965,-2.9572,-2.9684,-2.9885,-2.9885,-3.0,-3.0635,-3.4058,-3.4985,-3.4008,-3.0064,-3.2592,-3.6613,-3.3611,-3.1882,0.0,0.0,-3.085,-3.0318,-3.0318,-3.0336,-2.9982,-2.8538,-2.7947,-2.7681,-2.7509,-2.669,-2.5653,-2.4537,-2.4321,-2.3864,-2.2381,0.0,-2.3224,-2.3173,-2.3848,-2.4085,-2.3391,-2.3325,-2.3071,-2.2364,-2.2296,-2.2296,-2.2296,-2.3579,-2.3475,-2.1343,-2.2496,-2.2276,-1.9985,-1.9917,-1.9558,-1.8753,-1.8082,0.0,0.0,0.0,0.0,0.0,0.0,0.0,0.0,0.0,0.0,0.0,0.0,0.0,0.0,0.0,0.0,0.0,0.0,0.0,0.0,0.0,0.0,0.0,0.0,0.0,0.0,0.0,0.0,-2.2135,-2.3224,0.0,-2.3649,-2.394,-2.4137,-2.4118,-2.5618,-2.6906,-2.7813,-2.8796,-2.9714,-3.0522,-3.1103,-3.2155,-3.377,-3.3583,-3.328,-3.29,-3.29,-3.29,-3.29,-3.29,-3.3117,-3.3484,-3.3726,-3.3807,-3.3715,-3.2559,-3.2501,-3.3126,-3.3126,-3.3197,-3.3331,-3.358,-3.3673,-3.3865,-3.5077,-3.5234,-3.4584,-3.2704,-3.3478,-3.4758,-3.2676,-3.1547,-3.0965,-3.0933,-3.0725,-3.0496,-3.0496,-3.0496,-3.0229,-2.9212,-2.8635,-2.8301,-2.8225,-2.7271,-2.6332,-2.5996,-2.5151,-2.4321,-2.3814,-2.3932,-2.3949,-2.346,-2.4425,-2.4995,-2.4428,-2.4207,-2.389,-2.3332,-2.2697,-2.2296,-2.2296,-2.3224,-2.3241,-2.1989,-2.2395,-2.2107,-2.0822,-1.9824,-1.9389,-1.9608,-1.8798,-1.7987,0.0,0.0,0.0,0.0,0.0,0.0,0.0,0.0,0.0,0.0,0.0,0.0,0.0,0.0,0.0,0.0,0.0,0.0,0.0,0.0,0.0,0.0,0.0,0.0,0.0,-2.2587,-2.3995,-2.3959,-2.533,-2.619,-2.5884,-2.6395,-2.7014,-2.7629,-2.8515,-2.9421,-3.0291,-3.0684,-3.1158,-3.1789,-3.2071,-3.2724,-3.3788,-3.3807,-3.3597,-3.319,-3.319,-3.319,-3.319,-3.319,-3.3412,-3.3807,-3.3807,-3.4027,-3.4353,-3.4146,-3.4309,-3.4672,-3.4831,-3.4908,-3.4917,-3.5201,-3.5308,-3.5266,-3.5006,-3.4745,-3.445,-3.3954,-3.3991,-3.4045,-3.3008,-3.2439,-3.2146,-3.2092,-3.1706,-3.1314,-3.1314,-3.1118,-3.0654,-2.9637,-2.9136,-2.8741,-2.831,-2.7559,-2.6992,-2.7063,-2.5879,-2.488,-2.488,-2.5083,-2.5083,-2.4577,-2.5778,-2.6502,-2.5762,-2.5425,-2.4972,-2.4262,-2.3499,-2.2835,-2.233,-2.319,-2.346,-2.2733,-2.2682,-2.2446,-2.1969,-2.0479,-1.9985,-2.0662,-1.9773,-1.8821,-1.7837,0.0,0.0,0.0,0.0,0.0,0.0,0.0,0.0,0.0,0.0,0.0,0.0,0.0,0.0,0.0,0.0,0.0,0.0,0.0,0.0,0.0,0.0,0.0,-2.2684,-2.4036,-2.5117,-2.5117,-2.6454,-2.6985,-2.6018,-2.7937,-2.9296,-2.9427,-3.0651,-3.1829,-3.2931,-3.2481,-3.2324,-3.263,-3.3381,-3.3807,-3.3807,-3.3807,-3.3844,-3.3954,-3.3954,-3.3935,-3.388,-3.388,-3.388,-3.3912,-3.3912,-3.4518,-3.5478,-3.4892,-3.4495,-3.4294,-3.4732,-3.4908,-3.4908,-3.4908,-3.4927,-3.4877,-3.4185,-3.3917,-3.388,-3.3899,-3.4461,-3.513,-3.4878,-3.4799,-3.4857,-3.5058,-3.4044,-3.29,-3.29,-3.2329,-3.135,-2.9797,-2.9426,-2.9079,-2.7777,-2.7496,-2.7549,-2.7725,-2.6607,-2.5642,-2.566,-2.6234,-2.6691,-2.6691,-2.8011,0.0,-2.7392,-2.6959,-2.6298,-2.5067,-2.4673,-2.3898,-2.2431,-2.3646,-2.4186,-2.3444,-2.341,-2.3427,-2.3427,-2.2006,-2.1464,-2.1967,-2.103,-1.9804,-1.8333,0.0,0.0,0.0,0.0,0.0,0.0,0.0,0.0,0.0,0.0,0.0,0.0,0.0,0.0,0.0,0.0,0.0,0.0,0.0,0.0,0.0,-2.4207,-2.4567,-2.434,-2.6266,-2.768,-2.768,-2.8485,-2.8981,-2.8787,-2.9566,-3.0153,-3.0327,-3.0648,-3.1293,-3.236,-3.218,-3.2491,-3.3442,-3.3682,-3.3807,-3.3807,-3.3807,-3.5,-3.7349,-3.7349,-3.6743,-3.5605,-3.5605,-3.5915,-3.647,-3.6274,-3.6237,-3.6273,-3.6135,-3.5888,-3.5597,-3.5113,-3.4908,-3.4908,-3.4908,-3.5666,-3.6768,-3.7188,-3.6597,-3.5679,-3.6064,-3.6351,-3.6303,-3.5048,-3.4821,-3.4824,-3.3817,-3.3239,-3.29,-3.29,-3.2739,-3.2168,-3.0582,-3.0089,-2.9521,-2.7851,-2.734,-2.717,-2.7029,-2.6674,-2.6573,-2.7097,-2.6928,-2.6691,-2.6691,-2.8011,0.0,-2.803,-2.8185,-2.7691,-2.5884,-2.4967,-2.3898,-2.2431,-2.3646,-2.4186,-2.3444,-2.3898,-2.4125,-2.4003,-2.2561,-2.1745,-2.1631,-2.1422,-2.0513,0.0,0.0,0.0,0.0,0.0,0.0,0.0,0.0,0.0,0.0,0.0,0.0,0.0,0.0,0.0,0.0,0.0,0.0,0.0,0.0,0.0,0.0,-2.6096,-2.655,-2.655,-2.7794,-2.8836,-2.9158,-2.9868,-3.0344,-3.0361,-3.1145,-3.1715,-3.1865,-3.2031,-3.2476,-3.3298,-3.3123,-3.3385,-3.423,-3.4255,-3.4099,-3.3788,-3.4504,-3.5807,-3.7698,-3.8549,-3.845,-3.754,-3.7145,-3.7221,-3.7642,-3.7204,-3.7049,-3.7076,-3.6798,-3.6739,-3.6751,0.0,0.0,0.0,0.0,-3.6367,-3.7478,-3.8005,-3.7589,-3.68,-3.6769,-3.6762,-3.6556,-3.5436,-3.5054,-3.4759,-3.3711,-3.3489,-3.3471,-3.3025,-3.29,-3.2579,-3.1314,-3.067,-2.9887,-2.8303,-2.7612,-2.7166,-2.6775,-2.6691,0.0,-2.7283,-2.7249,-2.7165,-2.7165,-2.8197,-2.8931,-2.8733,-2.8883,-2.8609,-2.7532,-2.65,-2.5287,-2.3801,-2.4186,0.0,0.0,0.0,-2.3954,-2.4064,-2.3203,0.0,0.0,0.0,0.0,0.0,0.0,0.0,0.0,-2.0174,-2.0013,0.0,0.0,0.0,0.0,0.0,0.0,0.0,0.0,0.0,0.0,0.0,0.0,0.0,0.0,0.0,0.0,-2.7725,-2.8741,-2.8817,-2.8836,-2.9101,-2.9821,-3.0673,-3.1142,-3.1035,-3.2466,-3.3426,-3.3484,-3.3938,-3.4367,-3.4762,-3.4575,0.0,0.0,0.0,-3.4859,-3.4144,-3.5579,-3.6423,-3.6636,-3.8409,-3.9285,-3.9274,-3.8439,-3.8061,-3.8066,-3.7435,-3.7466,-3.7927,-3.7336,-3.7383,-3.7785,-3.7068,-3.7347,-3.8052,-3.7125,-3.7116,-3.7556,-3.7654,0.0,0.0,-3.6822,-3.656,-3.6483,-3.6072,-3.5559,-3.5002,-3.4306,-3.4276,-3.4239,-3.3168,-3.29,-3.2704,-3.1885,-3.1153,-3.0267,-2.8891,-2.8086,-2.7444,-2.6825,-2.6691,-2.6691,-2.6691,-2.7232,-2.7672,-2.7672,-2.8433,-2.9083,-2.9316,-2.9291,-2.927,-2.935,-2.8508,0.0,-2.5728,-2.5083,-2.4949,-2.5407,-2.4006,-2.3335,-2.3753,-2.3703,-2.3685,-2.3685,-2.3565,-2.3496,-2.3496,-2.3577,-2.3609,-2.3577,-2.2183,-2.1908,0.0,0.0,0.0,0.0,0.0,0.0,0.0,0.0,0.0,0.0,0.0,0.0,0.0,0.0,0.0,-2.7718,-2.8495,-2.893,-2.9575,-2.9669,-2.9726,-2.9878,-3.0673,-3.1195,-3.1151,-3.2524,-3.3416,-3.3426,-3.3908,-3.4148,-3.4018,-3.4524,-3.4831,-3.4908,-3.6215,-3.668,-3.623,-3.627,-3.7057,-3.8554,-3.8952,0.0,-3.9279,-3.9113,-3.9121,-3.9255,-3.8958,-3.8893,-3.9003,-3.8874,-3.8787,-3.8628,-3.7298,-3.7016,-3.7378,-3.7823,-3.8178,-3.8475,-3.8706,-3.8867,-3.887,-3.8398,-3.8248,-3.8059,-3.7071,-3.7059,0.0,-3.4717,-3.4276,-3.4239,-3.3168,-3.29,-3.2704,-3.1885,-3.1581,-3.0942,-2.9014,-2.8502,-2.8048,-2.6927,-2.6691,-2.6691,-2.6691,-2.6826,-2.6911,-2.6911,-2.8113,-2.9011,-2.9065,-3.008,-3.0349,-2.9201,-2.8894,-2.7909,-2.5795,-2.6015,-2.578,-2.4622,-2.3934,-2.3358,-2.2866,-2.3291,-2.3531,-2.3531,-2.3497,-2.3496,-2.3496,-2.4047,-2.4306,-2.429,-2.3463,-2.3156,0.0,0.0,0.0,0.0,0.0,0.0,0.0,0.0,0.0,0.0,0.0,-2.2741,-2.5667,0.0,-2.6399,-2.8892,-2.9309,-2.9442,-2.984,-2.9897,-2.9897,-2.9897,-3.1014,-3.1791,-3.1791,-3.3223,-3.4149,-3.4149,-3.4405,-3.4524,-3.4439,-3.4752,-3.4927,-3.5001,-3.6169,-3.6642,-3.6346,-3.7026,-3.7769,-3.8609,-3.9111,-3.9389,-3.9452,-3.9551,-3.9665,-3.9747,-3.9635,-3.9489,-3.9285,-3.9087,-3.8935,-3.8774,-3.8048,-3.7875,-3.8115,-3.8625,-3.8884,-3.9006,-3.9048,-3.9082,-3.9115,-3.881,-3.8707,-3.8554,-3.7782,-3.7778,-3.757,-3.5288,-3.4757,-3.456,-3.3239,-3.29,-3.2793,-3.24,-3.199,-3.1398,-3.0256,-2.926,-2.8373,-2.7638,-2.7063,-2.6691,-2.6691,-2.6691,-2.6691,-2.6691,-2.7368,-2.7994,-2.8349,-2.9381,-2.9974,-2.9583,-2.955,-2.9093,-2.7942,-2.7735,-2.6753,-2.468,-2.5364,-2.5482,-2.4691,-2.4942,-2.51,-2.51,-2.4725,-2.4547,-2.4547,-2.4887,-2.5049,-2.5033,-2.4709,-2.4547,0.0,0.0,0.0,0.0,0.0,0.0,0.0,0.0,-2.0295,-2.2729,-2.3594,-2.4542,-2.655,-2.7486,-2.8396,-2.9688,-2.9897,-2.9897,-2.9897,-2.9897,-2.9897,-2.9897,-3.1374,-3.2397,-3.2397,-3.3922,-3.4908,-3.4908,-3.4879,-3.4908,-3.5048,-3.4936,-3.4908,-3.5048,-3.5951,-3.6335,-3.6147,-3.7811,-3.8556,-3.8403,-3.9207,-3.9611,-3.9647,-3.9834,-3.99,-3.99,-3.9823,-3.9599,-3.9272,-3.8866,-3.8707,-3.8707,-3.8707,-3.8792,-3.896,-3.9165,-3.9272,-3.9272,-3.9073,-3.9003,-3.896,-3.8765,-3.8707,-3.8627,-3.8219,-3.8101,-3.769,-3.5753,-3.5186,-3.4847,-3.3311,-3.29,-3.29,-3.29,-3.24,-3.1838,-3.1475,-3.0087,-2.8798,-2.8435,-2.7535,-2.6841,-2.6791,-2.6775,-2.6758,-2.6708,-2.6826,-2.7131,-2.7722,-2.8501,-2.923,-2.982,-3.0004,-3.0089,-3.0034,-2.9001,-2.7452,-2.5339,-2.6676,-2.7219,-2.6506,-2.649,-2.6555,-2.6701,-2.5988,-2.5662,-2.5807,-2.5807,-2.5807,-2.5807,-2.5807,-2.5726,-2.0249,-1.9331,-1.9533,-2.1031,-2.0325,-1.9954,0.0,0.0,-2.4249,-2.5537,-2.7536,-2.9158,-2.9423,-2.9575,-2.9688,-2.9878,-2.9897,-2.9897,-2.9897,-2.9897,-2.9897,-2.9897,-3.1374,-3.2397,-3.2397,-3.3922,-3.4908,-3.4908,-3.4781,-3.4751,-3.4831,-3.4761,-3.4769,-3.4831,-3.6433,-3.7175,-3.6979,-3.8628,-3.9455,-3.9431,-3.9549,-3.9701,-3.9867,-3.9889,-3.99,-3.9878,-3.9526,-3.935,-3.9272,-3.8866,-3.8707,-3.8707,-3.8707,-3.8704,-3.8765,-3.8946,-3.9137,-3.9272,-3.9073,-3.9003,-3.896,-3.8765,-3.8707,-3.8627,-3.8219,-3.8101,-3.769,-3.5753,-3.5186,-3.4847,-3.3311,-3.29,-3.29,-3.29,-3.2829,-3.2497,-3.1598,-3.067,-2.9732,-2.8762,-2.7936,-2.7324,-2.7103,-2.707,-2.6972,-2.6741,-2.7266,-2.7705,-2.779,-2.8501,-2.9027,-2.9111,-2.9702,-2.9996,-2.9772,-2.8327,-2.7224,-2.67,-2.6151,-2.5829,-2.5726,-2.571,-2.6037,-2.6685,-2.5988,-2.5921,-2.6571,-2.6571,-2.6571,-2.6571,-2.6571,-2.6231,-2.0647,-2.1051,-2.2106,0.0,-2.1978,-2.2608,-2.4362,-2.4661,-2.518,-2.7225,-2.8855,-2.9897,-2.9897,-3.0313,-3.0484,0.0,-2.9897,-2.9897,-2.9897,-2.9897,-2.9897,-2.9897,-3.1374,-3.2397,-3.2397,-3.3922,-3.4908,-3.4908,-3.485,-3.4879,-3.5037,-3.4898,-3.4889,-3.5027,-3.6568,-3.736,-3.7276,-3.8938,-3.977,-3.977,-3.977,-3.9834,-3.99,-3.99,-3.99,-3.9889,-3.9587,-3.9414,-3.9272,-3.8989,-3.8807,-3.8707,-3.8707,-3.8707,-3.8723,-3.8792,-3.8881,-3.8935,-3.8848,-3.8822,-3.8807,-3.8738,-3.8707,-3.8627,-3.8219,-3.8101,-3.769,-3.5753,-3.5186,-3.4847,-3.3311,-3.29,-3.29,-3.29,-3.29,-3.2779,-3.236,-3.1878,-3.1289,-3.04,-2.9852,-2.9169,-2.8008,-2.7804,-2.7551,-2.6809,-2.6962,-2.7165,-2.7165,-2.7841,-2.8653,-2.9533,-2.9922,-2.9957,-2.9609,-2.9327,-2.8649,-2.744,-2.7847,-2.7899,-2.7478,-2.7462,-2.7608,-2.7936,-2.7203,-2.6976,-2.7284,-2.7284,-2.7284,-2.7284,-2.7284,-2.7122,-2.1116,-2.1987,-2.3134,-2.2894,-2.3557,-2.4663,-2.6185,-2.6085,-2.6301,-2.8569,-2.9859,-3.0598,-3.0598,-3.1109,-3.1242,-3.0408,-3.0067,-2.9897,-2.9897,-2.9897,-2.9897,-2.9897,-3.1185,-3.2151,-3.2379,-3.3922,-3.4908,-3.4908,-3.4908,-3.4982,-3.516,-3.5237,-3.537,-3.5545,-3.7015,-3.7782,-3.7782,-3.9182,-3.99,-3.99,-3.99,-3.99,-3.99,-3.99,-3.99,-3.9889,-3.9689,-3.9489,-3.9285,-3.9082,-3.8877,-3.8707,-3.8707,-3.8707,-3.8707,-3.8707,-3.8707,-3.8707,-3.8707,-3.8707,-3.8707,-3.8707,-3.8658,-3.8546,-3.8219,-3.8068,-3.7659,-3.5736,-3.5186,-3.4847,-3.3311,-3.29,-3.29,-3.29,-3.29,-3.29,-3.29,-3.2559,-3.211,-3.1593,-3.1101,-3.0259,-2.8657,-2.8318,-2.7911,-2.686,-2.6691,-2.6691,-2.6691,-2.7182,-2.7993,-2.9311,-2.9668,-2.97,-2.949,-3.0112,-2.9856,-2.8389,-2.9313,-2.9653,-2.9135,-2.9102,-2.9102,-2.9102,-2.8369,-2.7996,-2.7996,-2.7996,-2.7996,-2.7996,-2.7996,-2.8109,-2.1537,-2.1198,-2.1397,-2.4672,-2.4939,-2.5102,-2.7804,-2.839,-2.8659,-2.9664,-3.1185,-3.2322,-3.2322,-3.2341,-3.2094,-3.128,-3.0446,-2.9897,-2.9897,-2.9897,-2.9897,-2.9897,-3.0692,-3.1545,-3.2322,-3.3922,-3.4908,-3.4908,-3.4908,-3.4955,-3.5092,-3.5844,-3.6326,-3.646,-3.7946,-3.8756,-3.8756,-3.9528,-3.99,-3.99,-3.99,-3.99,-3.99,-3.99,-3.99,-3.9889,-3.9689,-3.9489,-3.9285,-3.9082,-3.8877,-3.8707,-3.8707,-3.8707,-3.8707,-3.8707,-3.8707,-3.8707,-3.8707,-3.8707,-3.8707,-3.8707,-3.8562,-3.8366,-3.8152,-3.8002,-3.7522,-3.5719,-3.5186,-3.4847,-3.3311,-3.29,-3.29,-3.29,-3.29,-3.29,-3.29,-3.2277,-3.1724,-3.1706,-3.0831,-2.9804,-2.8778,-2.8384,-2.7861,-2.686,-2.6691,-2.6691,-2.6691,-2.6708,-2.7029,-2.779,-2.8569,-2.9147,-2.937,-3.0075,-3.0321,-2.9875,-2.9886,-2.988,-2.9864,-2.9864,-2.9864,-2.9864,-2.9151,-2.8778,-2.8778,-2.8778,-2.8778,-2.8778,-2.8778,-2.9151,-2.3024,0.0,-2.4053,-2.5282,-2.5811,-2.6433,-2.8113,-2.8079,-2.8121,-2.9607,-2.9916,-2.9953,-2.9953,-3.0427,-3.0522,-2.9688,-3.0238,-3.056,-2.9991,-3.0863,-3.1147,-3.0029,-3.164,-3.2747,-3.2416,-3.343,0.0,-3.4851,-3.4908,-3.5201,-3.5864,-3.6103,-3.653,-3.7213,-3.8213,-3.8733,-3.8733,-3.9505,-3.99,-3.99,-3.99,-3.99,-3.9919,-4.0313,-4.021,-3.9757,-4.0627,-4.028,-3.9138,-3.9592,-3.9361,-3.8707,-3.8707,-3.8707,-3.8707,-3.8707,-3.8707,-3.8707,-3.8707,-3.8707,-3.8692,-3.8546,-3.8465,-3.8352,-3.8071,-3.7951,-3.7522,-3.5719,-3.5186,-3.4847,-3.3311,-3.29,-3.29,-3.29,-3.29,-3.29,-3.29,-3.3098,-3.3134,-3.2596,-3.246,-3.193,-3.0382,-2.9505,-2.8476,-2.6928,-2.6691,-2.6691,-2.6691,-2.6691,-2.6979,-2.7722,-2.7955,-2.8446,-2.9317,-2.9506,-2.9681,-2.9886,-2.9896,-2.9896,-2.9896,-2.9896,-2.9896,-2.9896,-2.9653,-2.9524,-2.9524,-2.9524,-2.9524,-2.9524,-2.9524,-2.9653,-2.4321,-2.5077,-2.5669,-2.6442,-2.7028,-2.7689,-2.8764,-2.8372,-2.8294,-3.0013,-2.948,-2.8968,-2.9859,-2.9764,-2.9556,-2.9593,-2.9991,-3.0313,-3.0351,-3.128,-3.1678,-3.0882,-3.2236,-3.3145,-3.2899,-3.3373,0.0,-3.4832,-3.4908,-3.5296,-3.6217,-3.654,-3.711,-3.8004,-3.8801,-3.9197,-3.9197,-3.9675,-3.99,-3.99,-4.0222,-4.0355,-4.0393,-4.099,-4.0829,-4.0133,-4.1234,-4.0672,-3.9058,-3.9878,-3.9785,-3.9129,-3.9129,-3.9313,-3.957,-3.957,-3.9386,-3.9093,-3.8799,-3.8707,-3.8676,-3.8465,-3.835,-3.8236,-3.7986,-3.7846,-3.7488,-3.6041,-3.5632,-3.5275,-3.3723,-3.3328,-3.3257,-3.2971,-3.29,-3.29,-3.29,-3.3311,-3.3508,-3.3007,-3.2978,-3.2582,-3.115,-2.9748,-2.8339,-2.6911,-2.6691,-2.6691,-2.6691,-2.6691,-2.6877,-2.735,-2.7567,-2.8025,-2.8936,-2.9127,-2.9419,-2.987,-2.9896,-2.9896,-2.9896,-2.9896,-2.9896,-2.9896,-2.9896,-2.9896,-2.9896,-2.9896,-2.9896,-2.9896,-2.9896,-2.9896,-2.5467,-2.5746,-2.6228,-2.8094,-2.8558,-2.8799,-2.9645,-2.9252,-2.912,-3.0579,-2.9612,-2.9196,-3.1469,-3.0067,-2.9082,-3.0692,-2.9783,-2.9423,-3.0977,-3.1299,-3.164,0.0,0.0,0.0,0.0,0.0,0.0,-3.4908,0.0,-3.5363,-3.6282,-3.7176,-3.8023,-3.8813,-3.964,-4.0067,-4.0057,-3.9933,-3.9908,-3.9965,-4.0809,-4.1207,-4.1283,-4.1876,-4.1713,-4.0967,-4.1543,-4.0774,-3.916,-3.9978,-4.0157,-3.9955,-3.9955,-4.0432,-4.1095,-4.1095,-4.0598,-3.979,-3.9038,-3.8726,-3.8676,-3.8449,-3.8269,-3.8068,-3.7916,-3.7739,-3.7434,-3.6631,-3.6399,-3.6042,-3.4561,-3.4133,-3.3919,-3.315,-3.2936,-3.29,-3.29,-3.29,-3.29,-3.2884,-3.2386,-3.1742,-3.0942,-2.9162,-2.7587,-2.681,-2.6691,-2.6691,-2.6691,-2.6691,-2.6691,-2.6691,-2.7299,-2.7847,-2.8205,-2.888,-2.9408,-2.9778,-2.9815,-2.9832,-2.9832,-2.988,-2.9896,-2.9896,-2.9896,-2.9896,-2.9896,-2.9896,-2.9896,-2.9896,-2.9896,-2.9896,-2.7123,-2.783,-2.8457,-2.9204,-2.9397,-2.9329,-2.9069,-2.8855,-2.8305,-2.6873,-2.6235,-2.5754,-2.5148,-2.602,0.0,-2.7411,-2.9715,0.0,-3.1223,-3.2785,0.0,-3.2511,0.0,-3.4112,-3.3733,-3.4245,0.0,0.0,-3.5874,-3.651,-3.7988,-3.8284,-3.8725,-3.9377,-3.9603,-3.9665,-3.9502,-3.9611,-4.001,-4.0663,-4.1018,-4.151,-4.2105,-4.257,-4.2319,-4.1632,-4.2603,-4.2104,-4.0638,-4.1432,-4.1381,-4.0799,-4.0799,-4.0912,-4.1095,-4.1095,-4.0598,-3.9863,-3.9662,-3.9203,-3.8643,-3.8285,-3.8135,-3.8051,-3.7757,-3.7649,-3.7434,-3.6631,-3.6399,-3.6167,-3.5186,-3.4509,-3.4062,-3.3847,-3.3346,-3.29,-3.29,-3.29,-3.2836,-3.264,-3.2109,-3.1225,-2.9739,-2.9033,-2.823,-2.6894,-2.6691,-2.6691,-2.6691,-2.6691,-2.6691,-2.6691,-2.6637,-2.6842,-2.7425,-2.7424,-2.7631,-2.8207,-2.8773,-2.9086,-2.9086,-2.9605,-2.9896,-2.9896,-2.9896,-2.9896,-2.9896,-2.9896,-2.9896,-2.9896,-2.9896,-2.9896,-2.826,-2.8951,-2.9435,-2.9644,-2.9504,-2.9107,-2.8343,-2.7593,-2.6763,-2.5671,-2.4628,-2.4055,-2.4518,-2.4874,-2.5591,0.0,0.0,0.0,-3.1591,-3.2937,-3.3733,0.0,-3.4339,0.0,-3.4263,-3.4984,-3.5817,0.0,-3.6396,-3.6927,-3.8614,-3.8615,-3.8894,-3.958,-3.9514,-3.9414,-3.9298,-3.9757,-4.0239,-4.074,-4.1675,-4.2358,-4.2799,-4.3301,-4.309,-4.237,-4.3162,-4.2598,-4.115,-4.1974,-4.2029,-4.1627,-4.1627,-4.1846,-4.2158,-4.2158,-4.1423,-4.0432,-4.0432,-3.968,-3.8627,-3.8236,-3.8101,-3.8034,-3.7703,-3.7595,-3.7506,-3.7059,-3.6916,-3.6738,-3.5935,-3.5418,-3.4936,-3.4258,-3.3758,-3.3328,-3.2971,-3.29,-3.2787,-3.2352,-3.1912,-3.1145,-2.9724,-2.9213,-2.8587,-2.7368,-2.6911,-2.6691,-2.6691,-2.6691,-2.6691,-2.6691,-2.6453,-2.6542,-2.7143,-2.6962,-2.7059,-2.7656,-2.8093,-2.832,-2.832,-2.9038,-2.941,-2.941,-2.9734,-2.9896,-2.9896,-2.9896,-2.9896,-2.9896,-2.9896,-2.9896,-2.897,-2.9375,-2.958,-2.9672,-2.9204,-2.848,-2.7524,-2.6169,-2.5161,-2.5303,0.0,-2.3397,-2.5853,-2.4889,-2.4693,-2.7718,0.0,-2.8775,-3.1951,-3.2492,-3.3145,-3.4718,-3.4908,-3.4946,-3.5059,-3.5761,-3.6585,-3.7495,-3.6896,-3.717,-3.8753,-3.8644,-3.8848,-3.9508,-3.9324,-3.9275,-3.9386,-4.0095,-4.0574,-4.0817,-4.2466,-4.3324,-4.3442,-4.3932,-4.3774,-4.3144,-4.3385,-4.2708,-4.1462,-4.2176,-4.2451,-4.2451,-4.2451,-4.2892,-4.3515,-4.3515,-4.2543,-4.1242,-4.1132,-4.0104,-3.8789,-3.8305,-3.8118,-3.8034,-3.7739,-3.7631,-3.7595,-3.7595,-3.7595,-3.7452,-3.6738,-3.647,-3.6042,-3.4597,-3.4169,-3.3883,-3.3078,-3.2852,-3.2621,-3.2056,-3.173,-3.1225,-3.0226,-2.9548,-2.8856,-2.8025,-2.7401,-2.6979,-2.686,-2.6759,-2.6691,-2.6691,-2.6504,-2.6563,-2.703,-2.6874,-2.6925,-2.7381,-2.751,-2.7575,-2.7575,-2.8271,-2.8644,-2.8644,-2.9281,-2.9653,-2.9751,-2.9751,-2.9799,-2.9896,-2.9896,-2.9848,-2.9137,-2.9241,-2.9345,-2.9626,-2.9034,-2.8012,-2.6593,-2.5992,0.0,0.0,-2.264,-2.2934,-2.1387,-2.2527,-2.4125,-2.5439,-2.7252,-2.9404,-3.2019,-3.3032,-3.3828,0.0,-3.4908,-3.5173,-3.5893,-3.6112,0.0,0.0,-3.818,-3.8429,-3.9383,-3.9404,-3.9302,-3.911,-3.8906,-3.9123,-3.9801,-4.0093,-4.0956,-4.2325,-4.2808,-4.3409,-4.4044,-4.3977,-4.3886,-4.3722,-4.3577,-4.3332,-4.3075,-4.3222,-4.3277,-4.3277,-4.3277,-4.3386,-4.3515,-4.3515,-4.2892,-4.2011,-4.1334,-4.0487,-3.9538,-3.8634,-3.8252,-3.8086,-3.7898,-3.7721,-3.7595,-3.7595,-3.7595,-3.7577,-3.7434,-3.6899,-3.6167,-3.5222,-3.4543,-3.3883,-3.3078,-3.2521,-3.2056,-3.173,-3.1447,-3.0937,-2.9945,-2.984,-2.9576,-2.8615,-2.8544,-2.8367,-2.7689,-2.708,-2.6691,-2.6691,-2.6418,-2.6273,-2.637,-2.604,-2.5862,-2.5972,-2.6539,-2.6863,-2.6863,-2.7527,-2.7899,-2.7899,-2.8012,-2.8369,-2.8989,-2.8989,-2.9297,-2.9896,-2.9896,-2.9572,-2.9155,-2.9304,-2.9445,-2.957,-2.8715,-2.7378,-2.5654,0.0,0.0,0.0,-2.0957,-2.1488,-2.1065,-2.2142,0.0,-2.5951,-2.6918,-2.8578,-3.1924,-3.2766,0.0,-3.4756,-3.5306,-3.5742,0.0,-3.6984,-3.7837,-3.8633,-3.8894,-3.9192,-3.958,-3.9401,-3.9137,-3.8848,-3.875,-3.9093,-3.9882,-4.0415,-4.127,-4.2502,-4.3163,-4.3661,-4.4033,-4.3926,-4.3897,-4.3899,-4.3617,-4.3515,-4.3515,-4.3515,-4.3515,-4.3515,-4.3515,-4.3515,-4.3515,-4.3515,-4.2983,-4.2176,-4.137,-4.0579,-3.9753,-3.8852,-3.8352,-3.8068,-3.7933,-3.7757,-3.7595,-3.7595,-3.7595,-3.7595,-3.7595,-3.7309,-3.6809,-3.6024,-3.4954,-3.3799,-3.2731,-3.2162,-3.175,-3.1487,-3.1232,-3.0934,-3.0544,-3.0268,-2.9952,-2.945,-2.9173,-2.8857,-2.8467,-2.7757,-2.7131,-2.6742,-2.64,-2.6206,-2.6206,-2.5842,-2.5597,-2.5597,-2.594,-2.6134,-2.6134,-2.6814,-2.7187,-2.7187,-2.7527,-2.8061,-2.8811,-2.8401,-2.8595,-2.9313,-2.894,-2.8563,-2.9155,-2.9346,-2.9476,-2.9288,-2.8238,-2.6744,-2.4746,-2.2488,0.0,0.0,-1.9349,-1.992,-2.1323,-2.1927,-2.3259,0.0,-2.6387,-2.7392,-3.1572,-3.2132,-3.2842,0.0,-3.5666,0.0,-3.6453,-3.7818,0.0,-3.8883,-3.9253,-3.9477,-3.9477,-3.9124,-3.8848,-3.8707,-3.8707,-3.9166,-4.0139,-4.0765,-4.1589,-4.2561,-4.3404,-4.3816,-4.3816,-4.3816,-4.3816,-4.3781,-4.3416,-4.3332,-4.3496,-4.3296,-4.3332,-4.3515,-4.3515,-4.3515,-4.3515,-4.3515,-4.3094,-4.2415,-4.1425,-4.0689,-3.9992,-3.9019,-3.8467,-3.8136,-3.7985,-3.781,-3.7667,-3.7613,-3.7595,-3.7595,-3.7595,-3.7595,-3.7345,-3.6292,-3.4993,-3.363,-3.2284,-3.1788,-3.1545,-3.1315,-3.1075,-3.0952,-3.1112,-3.0678,-3.0326,-3.0287,-2.9818,-2.9416,-2.9264,-2.8687,-2.7924,-2.6978,-2.6483,-2.6206,-2.6206,-2.5842,-2.5597,-2.5597,-2.5597,-2.5597,-2.5597,-2.6166,-2.6458,-2.6458,-2.6992,-2.7608,-2.8336,-2.7915,-2.7996,-2.8547,-2.8126,-2.785,-2.9155,-2.922,-2.9105,-2.8558,-2.7634,-2.6247,-2.3869,0.0,0.0,-1.8552,-1.834,-1.8745,-1.9743,-2.064,-2.2117,-2.4788,0.0,-2.6558,-3.0739,-3.1299,-3.2198,-3.4605,0.0,0.0,-3.723,-3.8159,-3.8929,-3.9484,-3.9234,-3.9059,-3.9059,-3.8851,-3.8723,-3.8707,-3.8707,-3.9441,-4.0967,-4.1058,-4.1882,-4.3404,-4.3495,-4.3549,-4.3549,-4.3549,-4.3549,-4.3494,-4.2743,-4.2818,-4.3441,-4.2708,-4.2837,-4.3515,-4.3515,-4.3515,-4.3515,-4.3515,-4.346,-4.3167,-4.1627,-4.104,-4.0728,-3.9203,-3.8546,-3.8334,-3.8135,-3.7984,-3.7828,-3.7649,-3.7595,-3.7595,-3.7595,-3.7595,-3.7166,-3.5385,-3.4288,-3.3284,-3.1939,-3.1487,-3.1295,-3.123,-3.1052,-3.0912,-3.0932,-3.1021,-3.103,-3.0851,-3.0903,-3.0751,-3.0091,-2.9939,-2.9291,-2.7679,-2.6729,-2.6206,-2.6206,-2.5842,-2.5597,-2.5597,-2.5597,-2.5597,-2.5597,-2.5662,-2.5694,-2.5694,-2.5759,-2.6166,-2.6879,-2.7446,-2.7737,-2.7818,-2.8417,-2.8336,-2.9202,-2.9435,-2.9316,-2.8503,-2.727,-2.5706,-2.3573,0.0,-1.8731,-1.7612,-1.7476,-1.8019,-1.9438,-2.0471,-2.196,-2.4573,-2.4567,-2.5325,-2.8529,-2.9393,0.0,-3.3828,-3.5363,0.0,0.0,0.0,-3.9411,-3.9433,-3.9151,-3.8946,-3.8822,-3.8735,-3.8707,-3.8707,-3.8707,-3.9478,-4.1077,-4.1095,-4.1919,-4.3515,-4.3515,-4.3515,-4.3515,-4.3515,-4.3515,-4.346,-4.2653,-4.2763,-4.3441,-4.2635,-4.2763,-4.3515,-4.3515,-4.3515,-4.3515,-4.3515,-4.3515,-4.3332,-4.2213,-4.1499,-4.0912,-3.979,-3.9027,-3.853,-3.8203,-3.8002,-3.7864,-3.7667,-3.7595,-3.7595,-3.7595,-3.7595,-3.713,-3.5243,-3.4677,-3.3988,-3.1876,-3.147,-3.1506,-3.1293,-3.1055,-3.0975,-3.1254,-3.1252,-3.1171,-3.1092,-3.1151,-3.1089,-3.0801,-3.0378,-2.9777,-2.8948,-2.7661,-2.6798,-2.6634,-2.6404,-2.6264,-2.6264,-2.6264,-2.6069,-2.5613,-2.5597,-2.5597,-2.5597,-2.5597,-2.5972,-2.6701,-2.6976,-2.7316,-2.7721,-2.7996,-2.798,-2.8865,-2.9392,-2.9429,-2.8521,-2.7045,-2.5324,0.0,-2.0456,-1.7869,-1.7073,-1.678,-1.73,-1.9332,-2.0245,-2.1551,-2.4194,-2.4093,-2.4586,-2.7134,-2.8199,0.0,0.0,0.0,-3.6377,0.0,-3.9036,-3.9618,-3.9324,-3.9059,-3.8851,-3.8707,-3.8707,-3.8707,-3.8707,-3.8707,-3.9478,-4.1077,-4.1095,-4.1919,-4.3515,-4.3515,-4.3515,-4.3515,-4.3515,-4.3369,-4.3094,-4.2286,-4.2396,-4.3075,-4.2286,-4.2561,-4.3515,-4.3515,-4.3349,-4.3149,-4.3149,-4.3149,-4.3002,-4.1956,-4.1387,-4.093,-3.9882,-3.9166,-3.8627,-3.8219,-3.8035,-3.7916,-3.7685,-3.7595,-3.7595,-3.7595,-3.7522,-3.7002,-3.5225,-3.4818,-3.4196,-3.1888,-3.1488,-3.1526,-3.1295,-3.1196,-3.1215,-3.1428,-3.1387,-3.1288,-3.121,-3.119,-3.119,-3.119,-3.0751,-3.0147,-2.939,-2.8505,-2.7734,-2.7257,-2.7078,-2.6992,-2.6992,-2.6814,-2.6474,-2.5956,-2.571,-2.5597,-2.5597,-2.5807,-2.6183,-2.6701,-2.7122,-2.7446,-2.7721,-2.7931,-2.8142,-2.8044,-2.8885,-2.9315,-2.8493,-2.6935,-2.5153,-2.3401,-2.0456,-1.7869,-1.7073,-1.6273,-1.654,-1.9207,-1.9713,-2.0596,-2.3284,-2.3708,-2.4586,-2.7134,-2.8199,0.0,0.0,0.0,-3.5249,-3.6149,-3.808,-3.9311,-3.9298,-3.8921,-3.8707,-3.8707,-3.8707,-3.8707,-3.8707,-3.8707,-3.9478,-4.1077,-4.1095,-4.1919,-4.3515,-4.3515,-4.3515,-4.3515,-4.3515,-4.3057,-4.2268,-4.1462,-4.1572,-4.2249,-4.1425,-4.2066,-4.3515,-4.3515,-4.3002,-4.2304,-4.2304,-4.2304,-4.2084,-4.0469,-4.0432,-4.0838,-3.9239,-3.8707,-3.8627,-3.8219,-3.8101,-3.8017,-3.7703,-3.7595,-3.7595,-3.7595,-3.7355,-3.6703,-3.517,-3.4356,-3.3493,-3.1924,-3.143,-3.1276,-3.121,-3.1468,-3.1582,-3.1269,-3.1426,-3.1521,-3.1249,-3.119,-3.119,-3.119,-3.119,-3.0479,-2.8622,-2.9059,-2.9072,-2.8079,-2.781,-2.7688,-2.7688,-2.7073,-2.6701,-2.6685,-2.6005,-2.5597,-2.5597,-2.6328,-2.6685,-2.6701,-2.8114,-2.8401,-2.7721,-2.845,-2.9183,-2.5682,-2.6432,-2.6756,-2.5305,-2.4859,-2.4171,-2.182,-1.963,-1.8034,-1.7777,-1.708,-1.7333,-2.0036,-2.0511,-2.1415,-2.4143,-2.4093,-2.4378,0.0,0.0,0.0,-3.2918,-3.6262,-3.8422,0.0,0.0,-3.9298,-3.9298,-3.8921,-3.8707,-3.8707,-3.8707,-3.8707,-3.8707,-3.8707,-3.9478,-4.1077,-4.1095,-4.1919,-4.3515,-4.3515,-4.3515,-4.3515,-4.3515,-4.3368,-4.3039,-4.1682,-4.157,-4.2249,-4.1425,-4.1735,-4.2671,-4.2671,-4.2525,-4.2231,-4.168,-4.1827,-4.2231,-4.1717,-4.135,-4.1022,-4.0508,-3.9591,-3.8627,-3.8219,-3.8101,-3.8034,-3.7703,-3.7595,-3.7595,-3.7595,-3.7337,-3.6682,-3.4929,-3.4337,-3.3652,-3.175,-3.1562,-3.1769,-3.1749,-3.1823,-3.1878,-3.1768,-3.1656,-3.1504,-3.1249,-3.119,-3.1376,-3.1887,-3.1955,-3.1793,-3.139,-3.1558,-3.0632,-2.8026,-2.8199,-2.845,-2.845,-2.8239,-2.7899,-2.7397,-2.717,-2.7057,-2.7057,-2.7267,-2.7381,-2.7397,-2.8336,-2.9178,-2.9885,-3.0127,-3.0635,-2.3897,-2.4794,-2.5201,-2.406,-2.3601,-2.2899,-2.0958,-1.9025,-1.7557,-1.727,-1.7282,-1.7997,-2.0055,-2.0692,-2.1589,-2.3701,-2.36,-2.3942,0.0,0.0,0.0,-3.4207,0.0,0.0,0.0,-3.9302,-3.9272,-3.9192,-3.8877,-3.8707,-3.8707,-3.8707,-3.8836,-3.9148,-3.9148,-3.979,-4.1095,-4.1389,-4.2213,-4.3515,-4.3515,-4.3515,-4.3496,-4.3185,-4.2873,-4.2525,-4.1222,-4.0928,0.0,-4.1168,-4.1572,-4.2323,-4.2635,-4.2378,-4.1827,-4.1627,-4.168,-4.1809,-4.1497,-4.146,-4.1389,-4.049,-3.9401,-3.8435,-3.8121,-3.7966,-3.788,-3.7649,-3.7503,-3.7411,-3.7411,-3.7071,-3.6384,-3.5087,-3.4313,-3.3445,-3.1973,-3.1619,-3.1568,-3.1584,-3.175,-3.1841,-3.1712,-3.1637,-3.1504,-3.1249,-3.1131,-3.126,-3.1699,-3.2019,-3.2089,-3.1786,-3.2321,-3.1583,-2.8767,-2.9178,-2.9486,-2.9232,-2.8957,-2.8579,-2.8126,-2.785,-2.7705,-2.7705,-2.7964,-2.8255,-2.853,-2.9243,-3.0198,-3.1309,-3.1309,-3.1551,0.0,-2.3635,-2.4302,-2.4101,-2.2918,-2.1555,-2.0621,-1.8632,0.0,-1.6022,-1.7112,-1.8545,-1.9669,-2.0486,-2.1414,-2.266,-2.2766,-2.3563,0.0,-2.8711,0.0,0.0,-3.7097,0.0,-3.8444,-3.8983,-3.9219,-3.9017,-3.8807,-3.8707,-3.8707,-3.8707,-3.9038,-3.979,-3.9863,-4.0304,-4.1168,-4.1937,-4.269,-4.3515,-4.3515,-4.3478,-4.3404,-4.269,-4.1919,-4.1058,-4.0304,-3.9992,-4.0029,-4.0799,-4.1572,-4.2378,-4.3112,-4.2506,-4.126,-4.1974,-4.1791,-4.1077,-4.0322,-4.1038,-4.1919,-3.9536,-3.8471,-3.8068,-3.7933,-3.7757,-3.7595,-3.7595,-3.7392,-3.7127,-3.7108,-3.6618,-3.6014,-3.5486,-3.4212,-3.2975,-3.249,-3.1613,-3.0931,-3.0935,-3.1391,-3.1638,-3.1291,-3.1447,-3.1523,-3.123,-3.1012,-3.0908,-3.0938,-3.1558,-3.1558,-3.0461,-3.1753,-3.1957,-3.0119,-3.0538,-3.0619,-2.9929,-2.9264,-2.8908,-2.8935,-2.8288,-2.7964,-2.7992,-2.8676,-2.9345,-2.9961,-3.0603,-3.1244,-3.1931,-3.1931,-3.1963,-1.8504,0.0,-2.1588,-2.0845,-2.1232,-2.1408,0.0,-1.8665,-1.7759,-1.7564,0.0,-1.9664,-2.1304,-2.1809,-2.2938,-2.5861,-2.525,-2.5489,-2.8589,0.0,0.0,-3.7837,-3.8812,-3.9304,-3.9329,-3.9302,-3.9219,-3.9017,-3.8807,-3.8707,-3.8707,-3.8707,-3.8799,-3.8982,-3.957,-4.0579,-4.2011,-4.2213,-4.269,-4.3515,-4.3515,-4.3167,-4.2598,-4.302,-4.2433,-4.1095,-4.0893,-4.0836,-4.082,-4.1022,-4.1572,-4.2323,-4.2506,-4.2359,-4.1974,-4.1535,-4.1662,-4.1992,-4.1809,-4.1974,-4.1994,-4.0014,-3.8811,-3.8068,-3.7933,-3.7757,-3.7595,-3.7595,-3.754,-3.7411,-3.7166,-3.6796,-3.626,-3.5315,-3.4062,-3.2928,-3.2232,-3.1641,-3.1201,-3.1215,-3.1803,-3.2144,-3.1598,-3.173,-3.1694,-3.1055,-3.0932,-3.1015,-3.1399,-3.1594,-3.173,-3.1872,-3.2239,-3.1984,-3.0771,-3.0807,-3.0619,-2.9929,-2.9734,-2.988,-3.0386,-3.0241,-3.0403,-3.0992,-3.117,-3.1056,-3.0684,-3.0823,-3.1001,-3.1163,-3.1163,-3.1454,-1.6623,-1.8391,-2.0113,-1.9553,-2.0318,-2.0868,-1.9591,0.0,0.0,0.0,0.0,-1.9863,-2.1328,-2.2257,-2.3587,-2.5968,-2.6235,0.0,0.0,0.0,-3.7371,-3.9058,-3.9635,-3.9781,0.0,-3.9363,-3.9178,-3.8877,-3.8765,-3.8707,-3.8707,-3.8707,-3.8872,-3.9239,-3.9662,-4.0487,-4.1754,-4.2121,-4.269,-4.3515,-4.3515,-4.3276,-4.2837,-4.2543,-4.1919,-4.1077,-4.0726,-4.0561,-4.0616,-4.135,-4.1919,-4.2341,-4.2708,-4.2635,-4.2286,-4.2231,-4.2249,-4.2304,-4.2304,-4.1759,-4.0944,-4.0283,-3.9132,-3.7984,-3.781,-3.7685,-3.7595,-3.7595,-3.7374,-3.7108,-3.6915,-3.6512,-3.5989,-3.5403,-3.4059,-3.2817,-3.2412,-3.1424,-3.0699,-3.0902,-3.1278,-3.1562,-3.1445,-3.1542,-3.1468,-3.0955,-3.081,-3.0763,-3.095,-3.1259,-3.1534,-3.1691,-3.2125,-3.1981,-3.0992,-3.0904,-3.0619,-2.9929,-2.9896,-3.0204,-3.0872,-3.0904,-3.1244,-3.1996,-3.2336,-3.2319,-3.1915,-3.1568,-3.1568,-3.1898,-3.1212,-3.1114,-1.6055,-1.7739,-1.9405,-1.9173,-1.9822,-2.0291,-1.9481,0.0,0.0,0.0,0.0,0.0,-2.1036,-2.2563,0.0,-2.5497,0.0,0.0,-3.4472,-3.6538,-3.8167,-3.9711,-3.9878,0.0,-3.9337,-3.9272,-3.9101,-3.8738,-3.8707,-3.8707,-3.8707,-3.8707,-3.9019,-3.9698,-3.9717,-4.0102,-4.0912,-4.1717,-4.2451,-4.313,-4.3259,-4.3203,-4.2927,-4.1791,-4.1077,-4.071,-4.0267,-4.0084,-4.0194,-4.168,-4.2378,-4.2543,-4.3222,-4.3075,-4.2561,-4.324,-4.3057,-4.2488,-4.2488,-4.1289,-3.9862,-4.0417,-3.9372,-3.7864,-3.7667,-3.7595,-3.7577,-3.754,-3.711,-3.6655,-3.6553,-3.6092,-3.565,-3.5622,-3.4203,-3.2851,-3.2735,-3.1347,-3.0185,-3.0417,-3.0568,-3.0716,-3.1052,-3.1171,-3.1131,-3.0831,-3.0589,-3.038,-3.0167,-3.0691,-3.1001,-3.0765,-3.1521,-3.1658,-3.0814,-3.0742,-3.0506,-2.9929,-2.9896,-3.0253,-3.1034,-3.1066,-3.1406,-3.2158,-3.2773,-3.2983,-3.2757,-3.2255,-3.2206,-3.2586,-3.1332,-3.0742,-1.6614,-1.8138,-1.9154,-1.8471,-1.9392,-2.0291,-1.9481,0.0,0.0,0.0,0.0,0.0,0.0,-2.3797,-2.5543,0.0,0.0,-3.3505,0.0,0.0,-3.885,-3.9786,0.0,-3.9551,-3.9324,-3.9137,-3.895,-3.8723,-3.8707,-3.8707,-3.8707,-3.8707,-3.8762,-3.8891,-3.8891,-3.9276,-4.0065,-4.0891,-4.1352,-4.148,-4.2158,-4.1772,-4.0503,-4.1607,-4.1001,-3.9148,-4.0396,-4.0912,-4.0985,-4.1919,-4.269,-4.3331,-4.346,-4.3423,-4.3331,-4.346,-4.3423,-4.3331,-4.3331,-4.213,-4.0608,-4.0599,-3.9372,-3.7864,-3.7667,-3.7595,-3.754,-3.7261,-3.7091,-3.6895,-3.6329,-3.6097,-3.5963,-3.5667,-3.4605,-3.3464,-3.2812,-3.1852,-3.092,-3.0363,-3.074,-3.1061,-3.0675,-3.0982,-3.1061,-3.0401,-3.0274,-3.0167,-2.9968,-3.0043,-3.0086,-3.0058,-3.02,-3.0216,-3.0058,-3.0042,-3.001,-2.9896,-2.9896,-3.048,-3.1785,-3.1834,-3.219,-3.2902,-3.3032,-3.2481,-3.1244,-3.1769,-3.1445,-3.0383,-3.0156,-3.0042,-1.6199,-1.7671,-1.8852,-1.8765,-2.0309,-2.1758,-2.1382,-2.0684,0.0,0.0,0.0,0.0,0.0,0.0,-2.7453,-3.1807,0.0,-3.5097,-3.7249,-3.8131,-3.8874,0.0,0.0,-3.9401,-3.9311,-3.911,-3.8921,-3.8723,-3.8707,-3.8707,-3.8707,-3.8707,-3.8707,-3.8707,-3.8707,-3.8891,-3.9239,-4.0047,-4.0891,-4.1754,-4.2121,-4.1901,-4.1203,-4.1515,-4.0818,-3.9405,-4.0581,-4.1095,-4.1187,-4.2433,-4.3167,-4.3515,-4.3515,-4.3515,-4.3515,-4.3515,-4.3515,-4.3441,-4.3002,-4.1896,-4.0579,-3.9896,-3.8671,-3.7448,-3.7355,-3.7204,-3.7013,-3.6876,-3.6816,-3.6716,-3.6224,-3.5963,-3.5805,-3.5644,-3.4688,-3.3613,-3.2868,-3.1845,-3.0918,-3.0315,-3.0572,-3.0797,-3.0531,-3.0818,-3.0878,-3.0295,-3.0189,-3.0141,-2.994,-2.9896,-2.9896,-2.9896,-2.9896,-2.9896,-2.9896,-2.9896,-2.9896,-2.9896,-3.0253,-3.0733,-3.1373,-3.2174,-3.2562,-3.2514,-3.2886,-3.2562,-3.1487,-3.1422,-3.1073,-3.0425,-3.0075,-2.9896,-1.5993,-1.7324,-1.8647,-1.9424,-2.1066,-2.2565,-2.2923,-2.2373,0.0,0.0,0.0,0.0,0.0,-2.674,0.0,-3.4169,-3.523,-3.6234,-3.8405,-3.8697,-3.898,-3.9802,-3.9502,-3.9232,-3.9227,-3.9059,-3.8848,-3.8643,-3.8658,-3.8707,-3.8707,-3.8707,-3.8707,-3.8707,-3.8707,-3.8707,-3.8707,-3.9496,-4.0506,-4.1735,-4.2121,-4.2103,-4.1735,-4.1497,-4.0836,-3.9955,-4.0946,-4.137,-4.148,-4.291,-4.3515,-4.3515,-4.3515,-4.3515,-4.3515,-4.3515,-4.3515,-4.3406,-4.273,-4.1629,-4.033,-3.9407,-3.8138,-3.6974,-3.6974,-3.6796,-3.6574,-3.6512,-3.6492,-3.6409,-3.6071,-3.5805,-3.56,-3.56,-3.4845,-3.3948,-3.3223,-3.2223,-3.129,-3.0593,-3.0585,-3.062,-3.0413,-3.0568,-3.0605,-3.0189,-3.0141,-3.0076,-2.9918,-2.9896,-2.9896,-2.9896,-2.9896,-2.9896,-2.9896,-2.9896,-2.9896,-2.9896,-3.0376,-3.0726,-3.0888,-3.1834,-3.2158,-3.1769,-3.2465,-3.2433,-3.1596,-3.1408,-3.1126,-3.0769,-3.017,-2.9896,-1.6739,-1.7757,-1.8684,-2.0218,-2.0736,-2.1229,-2.2666,-2.2373,0.0,-2.3712,0.0,0.0,0.0,-2.9293,-3.2357,-3.4548,-3.6215,-3.7571,-3.8557,-3.9169,-3.9602,-3.9878,-3.9389,-3.9008,-3.9027,-3.8844,-3.8643,-3.8449,-3.8578,-3.8707,-3.8707,-3.8707,-3.8707,-3.8707,-3.8707,-3.8707,-3.8707,-3.9496,-3.9955,-4.0084,-4.1589,-4.1515,-4.012,-4.1552,-4.1368,-3.9989,-4.1534,-4.2213,-4.2286,-4.313,-4.3515,-4.3515,-4.3515,-4.3515,-4.3515,-4.3515,-4.3515,-4.3462,-4.3213,-4.1814,-4.0089,-3.9825,-3.8327,-3.6652,-3.6652,-3.6615,-3.6533,-3.6224,-3.6156,-3.6071,-3.5717,-3.5622,-3.56,-3.56,-3.5385,-3.4984,-3.4253,-3.3627,-3.2819,-3.1478,-3.1232,-3.0969,-3.0081,-3.0119,-3.0184,-2.9946,-2.9924,-2.9918,-2.9896,-2.9896,-2.9896,-2.9896,-2.9896,-2.9896,-2.9896,-2.9896,-2.9896,-2.9896,-2.9945,-3.0247,-3.0872,-3.0393,-3.0415,-3.0969,-3.1697,-3.1532,-3.0418,-3.187,-3.1847,-3.0441,-3.0077,-2.9896,-1.625,-1.7835,-1.9416,-2.0452,-2.1826,0.0,0.0,-2.4281,-2.5107,-2.6209,-2.7071,0.0,0.0,0.0,-3.3524,-3.5929,-3.6931,-3.7783,-3.8914,-3.9171,-3.9255,-3.9332,-3.8799,-3.8551,-3.8785,-3.8631,-3.8481,-3.8417,-3.8596,-3.8707,-3.8707,-3.8707,-3.8707,-3.8707,-3.8707,-3.8707,-3.8707,-3.9992,-4.0653,-4.0671,-4.1772,-4.1974,-4.1405,-4.2029,-4.1699,-4.0708,-4.1827,-4.2029,-4.1662,-4.2947,-4.3221,-4.28,-4.3313,-4.3515,-4.3515,-4.3515,-4.3515,-4.3371,-4.2414,-4.152,-4.0566,-3.9196,-3.8112,-3.7172,-3.6255,-3.598,-3.6002,-3.6075,-3.5963,-3.5761,-3.5627,-3.56,-3.56,-3.56,-3.5396,-3.4988,-3.4337,-3.4177,-3.3716,-3.2282,-3.1603,-3.1122,-3.0616,-3.0348,-3.0124,-2.9924,-2.9896,-2.9896,-2.9896,-2.9896,-2.9896,-2.9896,-2.9896,-2.9896,-2.9896,-2.9896,-2.9896,-2.9896,-2.9896,-3.001,-3.0285,-3.0026,-3.0026,-3.0263,-3.1413,-3.1796,-3.1356,-3.1411,-3.0998,-3.009,-2.9954,-2.9896,-1.6359,-1.808,-1.9956,-2.0856,0.0,0.0,-2.5129,-2.619,-2.7273,-2.8338,-2.8998,-2.9938,-3.1753,0.0,0.0,0.0,-3.7137,-3.7691,-3.9006,-3.9036,-3.891,-3.8938,-3.8436,-3.8216,-3.8499,-3.846,-3.8366,-3.8318,-3.8546,-3.8707,-3.8707,-3.8707,-3.8707,-3.8707,-3.8707,-3.8707,-3.8707,-4.0288,-4.1095,-4.1113,-4.2176,-4.2543,-4.2304,-4.2561,-4.2249,-4.1499,-4.2066,-4.1992,-4.157,-4.2671,-4.2947,-4.2727,-4.3277,-4.3515,-4.3515,-4.3515,-4.3463,-4.323,-4.2101,-4.1399,-4.0713,-3.9035,-3.7862,-3.6925,-3.5915,-3.56,-3.5667,-3.5876,-3.5783,-3.56,-3.56,-3.56,-3.56,-3.56,-3.5424,-3.5153,-3.4734,-3.4705,-3.4466,-3.3399,-3.24,-3.1505,-3.0723,-3.0315,-3.0055,-2.9918,-2.9896,-2.9896,-2.9896,-2.9896,-2.9896,-2.9896,-2.9896,-2.9896,-2.9896,-2.9896,-2.9896,-2.9896,-2.9896,-2.9896,-2.9896,-2.9896,-2.9896,-2.9896,-3.0852,-3.1332,-3.1332,-3.1181,-3.0874,-3.0401,-3.0077,-2.9896,-1.7316,-1.8522,-2.0151,-2.1538,0.0,0.0,-2.7135,-2.7824,-2.8282,-2.9898,-3.0228,-3.0784,-3.2581,-3.2258,0.0,-3.6254,-3.6802,-3.7311,-3.8799,-3.8828,-3.873,-3.8781,-3.8392,-3.8117,-3.818,-3.8316,-3.8318,-3.8118,-3.8483,-3.8707,-3.8707,-3.8707,-3.8707,-3.8707,-3.8707,-3.8707,-3.8707,-4.0288,-4.1095,-4.1132,-4.2727,-4.3075,-4.2341,-4.313,-4.3057,-4.2304,-4.2304,-4.2286,-4.2286,-4.2286,-4.2763,-4.3496,-4.3515,-4.3515,-4.3497,-4.3497,-4.3375,-4.3123,-4.2575,-4.1578,-4.0364,-3.9572,-3.7638,-3.5633,-3.56,-3.56,-3.56,-3.56,-3.56,-3.56,-3.56,-3.56,-3.56,-3.56,-3.56,-3.56,-3.56,-3.5333,-3.5055,-3.4923,-3.3719,-3.2109,-3.0237,-2.9896,-2.9896,-2.9896,-2.9896,-2.9896,-2.9929,-2.9935,-2.9896,-2.9896,-2.9896,-2.9896,-2.9896,-2.9896,-2.9896,-2.9896,-2.9896,-2.9896,-2.9896,-2.9896,-2.9896,-2.9896,-2.9896,-2.9896,-2.9896,-3.1299,-3.1811,-3.1463,-3.0385,-2.9896,-1.6692,-1.8893,0.0,-2.186,0.0,0.0,0.0,-2.909,0.0,0.0,-3.2724,-3.2897,-3.3427,-3.3456,0.0,-3.6302,-3.6656,-3.7116,-3.8464,-3.8486,-3.8296,-3.8168,-3.7915,-3.781,-3.7967,-3.8119,-3.8152,-3.8101,-3.8483,-3.8707,-3.8707,-3.8707,-3.8707,-3.8707,-3.8707,-3.8964,-3.9533,-4.0579,-4.137,-4.1974,-4.3002,-4.3386,-4.3149,-4.3404,-4.3057,-4.2304,-4.2304,-4.1662,-4.0653,-4.1222,-4.1937,-4.2708,-4.3277,-4.341,-4.3286,-4.3286,-4.3013,-4.2537,-4.1973,-4.1423,-4.0876,-4.0093,-3.9372,-3.8362,-3.6225,-3.56,-3.56,-3.56,-3.56,-3.56,-3.56,-3.56,-3.56,-3.56,-3.56,-3.56,-3.56,-3.5515,-3.535,-3.4954,-3.3441,-3.2044,-3.1461,-3.0561,-2.9896,-2.9896,-2.9896,-3.0609,-3.2602,-3.1128,-2.9896,-2.9896,-2.9896,-2.9896,-2.9896,-2.9896,-2.9896,-2.9896,-2.9896,-2.9896,-2.9896,-2.9896,-2.9896,-2.9896,-2.9896,-2.9896,-2.9896,-3.0318,-3.0473,-3.037,-3.0045,-2.9896,-1.8362,-2.044,0.0,-2.3615,-2.5603,-2.7823,-2.9561,0.0,0.0,0.0,-3.355,-3.3421,-3.3733,-3.3637,0.0,-3.5702,-3.6191,-3.6724,-3.7708,-3.7985,-3.8018,-3.7793,-3.7685,-3.7649,-3.7757,-3.7966,-3.8086,-3.8018,-3.837,-3.8546,-3.8467,-3.853,-3.8578,-3.8578,-3.8658,-3.8927,-3.9423,-4.0543,-4.1334,-4.1846,-4.2947,-4.3515,-4.3515,-4.3515,-4.3057,-4.2268,-4.1625,-4.0983,-4.0414,-4.0893,-4.1772,-4.2818,-4.3296,-4.3393,-4.3178,-4.305,-4.2692,-4.2157,-4.1486,-4.1236,-4.1094,-4.0336,-4.0096,-3.9554,-3.6495,-3.56,-3.56,-3.56,-3.56,-3.56,-3.56,-3.56,-3.56,-3.56,-3.56,-3.56,-3.56,-3.56,-3.5418,-3.4715,-3.364,-3.2838,-3.2838,-3.1209,-2.9896,-2.9896,-3.0852,-3.2197,-3.3874,-3.1646,-2.9896,-2.9896,-2.9896,-2.9896,-2.9896,-2.9896,-2.9896,-2.9896,-2.9896,-2.9896,-2.9896,-2.9896,-2.9896,-2.9896,-2.9896,-2.9896,-2.9896,-2.9896,-3.0464,-3.1565,-3.1565,-3.1565,-2.1153,-2.2532,0.0,-2.5968,-2.6825,0.0,-3.076,-3.2082,-3.2913,-3.3642,0.0,-3.2931,-3.3678,-3.3201,-3.3206,-3.4747,-3.5502,-3.6105,-3.6799,-3.7409,-3.7721,-3.7613,-3.7595,-3.7595,-3.7595,-3.7897,-3.8018,-3.7899,-3.8188,-3.8302,-3.8135,-3.8302,-3.8399,-3.8399,-3.8596,-3.8713,-3.8768,-4.0235,-4.1005,-4.1113,-4.258,-4.3277,-4.3277,-4.3368,-4.291,-4.1992,-4.0543,-4.0304,-4.1003,-4.115,-4.2066,-4.3387,-4.3461,-4.3339,-4.3123,-4.2769,-4.234,-4.1825,-4.1127,-4.0978,-4.0984,-4.032,-4.0096,-3.9562,-3.6656,-3.5694,-3.56,-3.56,-3.56,-3.56,-3.56,-3.56,-3.56,-3.56,-3.56,-3.56,-3.56,-3.5532,-3.5195,-3.4275,-3.4101,-3.4101,-3.4101,-3.1987,-3.0269,-3.0269,-3.2449,-3.4101,-3.4101,-3.1646,-2.9896,-2.9896,-2.9896,-2.9896,-2.9896,-3.0123,-3.0269,-3.0269,-3.0026,-3.001,-3.0269,-3.0048,-2.9896,-2.9896,-2.977,-2.9899,-3.0269,-3.0269,-3.1598,-3.4101,-3.4101,-3.4101,-2.0126,-2.214,0.0,0.0,-2.8077,-3.0576,-3.125,-3.2504,-3.3587,-3.3752,-3.366,-3.3587,-3.377,-3.366,-3.3862,-3.4839,-3.4903,-3.531,-3.6693,-3.6803,-3.6934,-3.7523,-3.7595,-3.7595,-3.7595,-3.781,-3.7934,-3.7899,-3.8052,-3.8201,-3.8334,-3.8382,-3.8399,-3.8399,-3.8449,-3.8775,-3.9398,-3.9745,-4.0321,-4.1095,-4.1444,-4.1625,-4.1644,-4.2268,-4.1772,-4.0396,-4.0047,-3.9992,-4.0249,-4.1515,-4.2249,-4.2599,-4.3084,-4.3142,-4.2901,-4.234,-4.1821,-4.1311,-4.0949,-4.0611,-4.032,-4.0146,-4.0096,-3.9717,-3.7764,-3.6433,-3.56,-3.56,-3.56,-3.56,-3.56,-3.56,-3.56,-3.56,-3.56,-3.56,-3.56,-3.4984,-3.4358,-3.4151,-3.4101,-3.4101,-3.4101,-3.3599,-3.3194,-3.3194,-3.3712,-3.4101,-3.4101,-3.1646,-2.9896,-2.9896,-2.9896,-2.9896,-2.9896,-3.1938,-3.3194,-3.3194,-3.1112,-3.0885,-3.3097,-3.1063,-2.9896,-2.9896,-2.8716,-2.9777,-3.3194,-3.3194,-3.3501,-3.4101,-3.4101,-3.4101,-2.0401,0.0,0.0,-2.6698,0.0,-3.1397,-3.1397,-3.2632,-3.3807,-3.3807,-3.3807,-3.3807,-3.3807,-3.3807,-3.3935,-3.4362,-3.4878,-3.5483,-3.622,-3.6783,-3.7238,-3.7559,-3.7595,-3.7595,-3.7595,-3.7793,-3.7864,-3.7757,-3.7898,-3.8019,-3.8018,-3.8121,-3.8154,-3.8154,-3.8219,-3.8469,-3.8887,-3.937,-3.9855,-4.0394,-4.0879,-4.0893,-4.0543,-4.0965,-4.0689,-3.99,-3.99,-4.012,-4.0579,-4.1809,-4.2525,-4.2893,-4.3104,-4.3068,-4.2806,-4.2035,-4.16,-4.13,-4.0676,-4.0303,-4.0096,-4.0096,-3.9106,-3.7776,-3.6897,-3.6139,-3.56,-3.56,-3.56,-3.56,-3.56,-3.56,-3.56,-3.56,-3.56,-3.5487,-3.4984,-3.448,-3.4101,-3.4101,-3.4101,-3.4101,-3.4101,-3.4101,-3.4101,-3.4101,-3.4101,-3.4101,-3.4101,-3.1646,-2.9896,-2.9896,-2.9896,-2.9896,-2.9896,-3.2489,-3.4101,-3.4101,-3.2708,-3.2586,-3.4036,-3.2676,-3.1922,-3.1922,-3.113,-3.1842,-3.4101,-3.4101,-3.4101,-3.4101,-3.4101,-3.4101,-2.0667,0.0,-2.5004,-2.7993,-3.0008,0.0,-3.1507,-3.2706,-3.3807,-3.3807,-3.3807,-3.3807,-3.3807,-3.3807,-3.3775,-3.378,-3.4761,-3.5581,-3.5645,-3.6691,-3.7488,-3.7595,-3.7595,-3.7595,-3.7595,-3.7739,-3.7793,-3.7613,-3.7739,-3.7793,-3.7667,-3.7811,-3.7899,-3.7899,-3.8002,-3.8069,-3.8069,-3.8891,-3.9354,-3.9404,-4.0278,-4.0341,-3.968,-3.968,-3.968,-3.9698,-3.9827,-4.0286,-4.0948,-4.1772,-4.2561,-4.326,-4.3032,-4.2886,-4.2711,-4.1825,-4.149,-4.134,-4.0419,-4.0096,-4.0096,-4.0096,-3.8058,-3.56,-3.56,-3.56,-3.56,-3.56,-3.56,-3.56,-3.56,-3.56,-3.56,-3.56,-3.5487,-3.5125,-3.4284,-3.4101,-3.4101,-3.4101,-3.4101,-3.4101,-3.4101,-3.4101,-3.4101,-3.4101,-3.4101,-3.4101,-3.4101,-3.2084,-3.0431,-2.9945,-3.0318,-3.0626,-3.0626,-3.2757,-3.4101,-3.4101,-3.4101,-3.4101,-3.4101,-3.4101,-3.4101,-3.4101,-3.4101,-3.4101,-3.4101,-3.4101,-3.4101,-3.4101,-3.4101,-3.4101,-1.9045,0.0,-2.4819,0.0,-2.9163,-3.0956,0.0,0.0,-3.3807,0.0,-3.3807,-3.3807,-3.3807,-3.3807,-3.3766,-3.3661,-3.3687,-3.416,-3.5359,-3.5536,-3.606,-3.7434,-3.7595,-3.7595,-3.7595,-3.7613,-3.7631,-3.7595,-3.7613,-3.7703,-3.7846,-3.7881,-3.7899,-3.7899,-3.7916,-3.7934,-3.7934,-3.8059,-3.8267,-3.8563,-3.8868,-3.8964,-3.8854,-3.8854,-3.8854,-3.8909,-3.9588,-3.9955,-4.012,-4.0946,-4.1735,-4.2417,-4.205,-4.2116,-4.2396,-4.1809,-4.13,-4.0843,-4.0279,-4.0096,-4.0096,-4.0096,-3.8058,-3.56,-3.56,-3.56,-3.56,-3.56,-3.56,-3.56,-3.56,-3.56,-3.56,-3.56,-3.492,-3.4259,-3.4126,-3.4101,-3.4101,-3.4101,-3.4101,-3.4101,-3.4101,-3.4101,-3.4101,-3.4101,-3.4101,-3.4101,-3.4101,-3.3761,-3.2595,-3.0156,-3.2084,-3.3534,-3.3534,-3.3874,-3.4101,-3.4101,-3.4101,-3.4101,-3.4101,-3.4101,-3.4101,-3.4101,-3.4101,-3.4101,-3.4101,-3.4101,-3.4101,-3.4101,-3.4101,-3.4101,-2.0529,-2.3359,-2.6113,0.0,-2.9347,-3.054,-3.1158,0.0,-3.3256,-3.3715,-3.3807,-3.3807,-3.3807,-3.3807,-3.378,-3.3726,-3.397,-3.4519,-3.5473,-3.5869,-3.6432,-3.747,-3.7595,-3.7595,-3.7595,-3.7595,-3.7595,-3.7595,-3.7595,-3.7649,-3.7721,-3.7721,-3.7721,-3.7721,-3.7721,-3.7721,-3.7721,-3.7846,-3.8071,-3.8399,-3.8481,-3.8578,-3.8707,-3.8707,-3.8707,-3.8744,-3.9551,-3.99,-3.9992,-4.1258,-4.1907,-4.2152,-4.2305,-4.2442,-4.2494,-4.1849,-4.1631,-4.1507,-4.0451,-4.0096,-4.0096,-4.0096,-3.8058,-3.56,-3.56,-3.56,-3.56,-3.56,-3.56,-3.56,-3.56,-3.56,-3.56,-3.56,-3.4842,-3.4259,-3.4818,-3.4505,-3.4101,-3.4101,-3.4101,-3.4101,-3.4101,-3.4101,-3.4101,-3.4101,-3.4101,-3.4101,-3.4101,-3.4101,-3.3631,-3.2408,-3.3356,-3.4101,-3.4101,-3.4101,-3.4101,-3.4101,-3.4101,-3.4101,-3.4101,-3.4101,-3.4101,-3.4101,-3.4101,-3.4101,-3.4101,-3.4101,-3.4101,-3.4101,-3.4101,-3.4101,-2.1347,-2.3724,-2.5606,-2.8323,-2.9445,-3.0099,0.0,0.0,-3.2693,0.0,-3.366,-3.3807,-3.3807,-3.3807,-3.3793,-3.3753,-3.414,-3.4727,-3.5539,-3.6044,-3.6646,-3.7506,-3.7595,-3.7595,-3.7595,-3.7595,-3.7595,-3.7595,-3.7595,-3.7595,-3.7595,-3.7595,-3.7595,-3.7595,-3.7595,-3.7595,-3.7595,-3.7811,-3.8038,-3.8269,-3.835,-3.8481,-3.8627,-3.8692,-3.8707,-3.8726,-3.9331,-3.9588,-3.968,-4.084,-4.1345,-4.1428,-4.1869,-4.2061,-4.2097,-4.1849,-4.1762,-4.1473,-3.9587,-3.9469,-4.0096,-4.0096,-3.8058,-3.56,-3.56,-3.56,-3.56,-3.56,-3.56,-3.56,-3.56,-3.5402,-3.5218,-3.5218,-3.465,-3.4325,-3.5055,-3.4626,-3.4101,-3.4101,-3.4101,-3.4101,-3.4101,-3.4101,-3.4101,-3.4101,-3.4101,-3.4101,-3.4101,-3.4101,-3.4101,-3.4101,-3.4101,-3.4101,-3.4101,-3.4101,-3.4101,-3.4101,-3.4101,-3.4101,-3.4101,-3.4101,-3.4101,-3.4101,-3.4101,-3.4101,-3.4101,-3.4101,-3.4101,-3.4101,-3.4101,-3.4101,-1.9755,-2.0359,-2.1353,-2.7478,-2.9023,0.0,0.0,0.0,-3.2302,-3.2601,-3.3275,-3.3807,-3.3807,-3.3807,-3.3766,-3.3633,-3.3528,-3.3964,-3.5325,-3.5376,-3.5863,-3.7416,-3.7595,-3.7595,-3.7595,-3.7595,-3.7595,-3.7595,-3.7595,-3.7595,-3.7595,-3.7595,-3.7595,-3.7595,-3.7595,-3.7595,-3.7595,-3.7811,-3.7899,-3.7934,-3.8254,-3.8417,-3.8415,-3.8611,-3.8707,-3.8707,-3.8744,-3.8762,-3.8747,-3.8661,-3.9055,-3.9717,-3.9697,-4.0033,-4.0661,-4.1833,-4.1378,-3.9789,-3.6846,-3.7702,-4.0096,-4.0096,-3.8058,-3.56,-3.56,-3.56,-3.56,-3.56,-3.56,-3.56,-3.56,-3.489,-3.4176,-3.4176,-3.4151,-3.4126,-3.4176,-3.4151,-3.4101,-3.4101,-3.4101,-3.4101,-3.4101,-3.4101,-3.4101,-3.4101,-3.4101,-3.4101,-3.4101,-3.4101,-3.4101,-3.4101,-3.4101,-3.4101,-3.4101,-3.4101,-3.4101,-3.4101,-3.4101,-3.4101,-3.4101,-3.4101,-3.4101,-3.4101,-3.4101,-3.4101,-3.4101,-3.4101,-3.4101,-3.4101,-3.4101,-3.4101,-1.9562,-2.1248,0.0,-2.7074,-2.7703,-2.7923,-2.9739,-3.0558,-3.1091,-3.1696,-3.2467,-3.3036,-3.3036,-3.3458,-3.3793,-3.3739,-3.3534,-3.3924,-3.5435,-3.5372,-3.581,-3.7416,-3.7595,-3.7595,-3.7595,-3.7595,-3.7595,-3.7595,-3.7595,-3.7595,-3.7595,-3.7595,-3.7595,-3.7595,-3.7595,-3.7595,-3.7595,-3.7667,-3.7757,-3.7899,-3.802,-3.8121,-3.8201,-3.8417,-3.8515,-3.8512,-3.8643,-3.8627,-3.8533,-3.8998,-3.9305,-3.9588,-4.0257,-4.0967,-4.1673,-4.2144,-4.0136,-3.733,-3.8193,-3.7922,-3.7212,-3.7212,-3.6462,-3.56,-3.56,-3.56,-3.56,-3.56,-3.56,-3.56,-3.56,-3.5333,-3.5055,-3.5055,-3.4578,-3.4101,-3.4101,-3.4101,-3.4101,-3.4101,-3.4101,-3.4101,-3.4101,-3.4101,-3.4101,-3.4101,-3.4101,-3.4101,-3.4101,-3.4101,-3.4101,-3.4101,-3.4101,-3.4101,-3.4101,-3.4101,-3.4101,-3.4101,-3.4101,-3.4101,-3.4101,-3.4101,-3.4101,-3.4101,-3.4101,-3.4101,-3.4101,-3.4101,-3.4101,-3.4101,-3.4101,-3.4101,-1.8652,-2.0612,0.0,0.0,0.0,-2.6429,-2.884,0.0,-2.9696,-3.0779,-3.1861,-3.2601,-3.2601,-3.3256,-3.3807,-3.3807,-3.3577,-3.3954,-3.548,-3.5422,-3.581,-3.7416,-3.7595,-3.7595,-3.7595,-3.7595,-3.7595,-3.7595,-3.7595,-3.7595,-3.7595,-3.7595,-3.7595,-3.7595,-3.7595,-3.7595,-3.7595,-3.7595,-3.7667,-3.7811,-3.7864,-3.7933,-3.8035,-3.8219,-3.8302,-3.8318,-3.8433,-3.8499,-3.8535,-3.8998,-3.9161,-3.9155,-3.9824,-4.0343,-4.0737,-4.0737,-3.9192,-3.7263,-3.8244,-3.728,-3.56,-3.56,-3.56,-3.56,-3.56,-3.56,-3.56,-3.56,-3.56,-3.56,-3.56,-3.5356,-3.5102,-3.5102,-3.4602,-3.4101,-3.4101,-3.4101,-3.4101,-3.4101,-3.4101,-3.4101,-3.4101,-3.4101,-3.4101,-3.4101,-3.4101,-3.4101,-3.4101,-3.4101,-3.4101,-3.4101,-3.4101,-3.4101,-3.4101,-3.4101,-3.4101,-3.4101,-3.4101,-3.4101,-3.4101,-3.4101,-3.4101,-3.4101,-3.4101,-3.4101,-3.4101,-3.4101,-3.4101,-3.4101,-3.4101,-3.4101,0.0,0.0,0.0,0.0,0.0,0.0,-2.92,0.0,-2.8154,-2.9824,-3.139,-3.2472,-3.2546,-3.322,-3.377,-3.3788,-3.3577,-3.3936,-3.546,-3.5388,-3.5792,-3.7381,-3.7595,-3.7595,-3.7595,-3.7595,-3.7595,-3.7595,-3.7595,-3.7595,-3.7595,-3.7595,-3.7595,-3.7595,-3.7595,-3.7595,-3.7595,-3.7595,-3.7595,-3.7595,-3.7811,-3.7881,-3.7899,-3.8035,-3.8085,-3.8085,-3.8101,-3.8318,-3.8676,-3.8465,-3.835,-3.8287,-3.8153,-3.7915,-3.7631,-3.7631,-3.8604,-3.9554,-3.662,-3.56,-3.56,-3.56,-3.56,-3.56,-3.56,-3.56,-3.56,-3.56,-3.56,-3.56,-3.56,-3.4849,-3.4101,-3.4101,-3.4101,-3.4101,-3.4101,-3.4101,-3.4101,-3.4101,-3.4101,-3.4101,-3.4101,-3.4101,-3.4101,-3.4101,-3.4101,-3.4101,-3.4101,-3.4101,-3.4101,-3.4101,-3.4101,-3.4101,-3.4101,-3.4101,-3.4101,-3.4101,-3.4101,-3.4101,-3.4101,-3.4101,-3.4101,-3.4101,-3.4101,-3.4101,-3.4101,-3.4101,-3.4101,-3.4101,-3.4101,-3.4101,-1.8636,0.0,0.0,0.0,0.0,0.0,0.0,0.0,-2.5988,-2.8767,-2.9219,-2.9659,-3.1403,-3.2394,-3.3088,-3.3565,-3.3506,-3.3755,-3.47,-3.5029,-3.5578,-3.6613,-3.7256,-3.7595,-3.7595,-3.7595,-3.7595,0.0,-3.7595,-3.7595,-3.7595,-3.7595,-3.7595,-3.7595,-3.7595,-3.7595,-3.7595,-3.7595,-3.7595,-3.7595,-3.7667,-3.7685,-3.7685,-3.7863,-3.7951,-3.7968,-3.8052,-3.8152,-3.8252,-3.8219,-3.8168,-3.8153,-3.8118,-3.8219,-3.8387,-3.8387,-3.7741,-3.6738,-3.5887,-3.56,-3.56,-3.56,-3.56,-3.56,-3.56,-3.56,-3.56,-3.56,-3.56,-3.56,-3.56,-3.4849,-3.4101,-3.4101,-3.4101,-3.4101,-3.4101,-3.4101,-3.4101,-3.4101,-3.4101,-3.4101,-3.4101,-3.4101,-3.4101,-3.4101,-3.4101,-3.4101,-3.4101,-3.4101,-3.4101,-3.4101,-3.4101,-3.4101,-3.4101,-3.4101,-3.4101,-3.4101,-3.4101,-3.4101,-3.4101,-3.4101,-3.4101,-3.4101,-3.4101,-3.4101,-3.4101,-3.4101,-3.4101,-3.4101,-3.4101,-3.4101,-1.9389,0.0,0.0,0.0,0.0,0.0,-2.5621,-2.485,-2.4722,0.0,-2.862,-2.8943,-3.1029,-3.2063,-3.2721,-3.3118,-3.3288,-3.3635,-3.4318,-3.4954,-3.5576,-3.631,-3.7095,-3.7595,-3.7595,-3.7595,-3.7595,-3.7595,-3.7595,-3.7595,-3.7595,-3.7595,-3.7595,-3.7595,-3.7595,-3.7595,-3.7595,-3.7595,-3.7595,-3.7595,-3.7595,-3.7595,-3.7595,-3.7721,-3.7757,-3.7793,-3.7863,-3.7897,-3.7915,-3.8034,-3.8203,-3.8352,-3.8352,-3.8499,-3.8676,-3.8354,-3.7133,-3.56,-3.56,-3.56,-3.56,-3.56,-3.56,-3.56,-3.56,-3.56,-3.56,-3.56,-3.56,-3.5492,-3.5078,-3.4529,-3.4101,-3.4101,-3.4101,-3.4101,-3.4101,-3.4101,-3.4101,-3.4101,-3.4101,-3.4101,-3.4101,-3.4101,-3.4101,-3.4101,-3.4101,-3.4101,-3.4101,-3.4101,-3.4101,-3.4101,-3.4101,-3.4101,-3.4101,-3.4101,-3.4101,-3.4101,-3.4101,-3.4101,-3.4101,-3.4101,-3.4101,-3.4101,-3.4101,-3.4101,-3.4101,-3.4101,-3.4101,-3.4101,-3.4101,-3.4101,-1.9913,-2.184,0.0,0.0,-2.3061,0.0,-2.4824,-2.4025,-2.4088,0.0,-2.8656,-2.9152,-3.0938,-3.1861,-3.2326,-3.23,-3.2853,-3.3508,-3.4101,-3.4862,-3.5534,-3.6077,-3.6916,-3.747,-3.747,-3.7559,-3.7595,-3.7595,-3.7595,-3.7595,-3.7595,-3.7595,-3.7595,-3.7595,-3.7595,-3.7595,-3.7595,-3.7595,-3.7595,-3.7595,-3.7595,-3.7595,-3.7595,-3.7595,-3.7613,-3.7631,-3.7613,-3.7613,-3.7685,-3.7984,-3.832,-3.8676,-3.8692,-3.8707,-3.8611,-3.7967,-3.6818,-3.56,-3.56,-3.56,-3.56,-3.56,-3.56,-3.56,-3.56,-3.56,-3.56,-3.56,-3.56,-3.5356,-3.4358,-3.4101,-3.4101,-3.4101,-3.4101,-3.4182,-3.4505,-3.457,-3.457,-3.457,-3.4327,-3.4198,-3.4522,-3.4311,-3.4101,-3.4101,-3.4376,-3.457,-3.457,-3.4295,-3.4101,-3.4101,-3.4101,-3.4101,-3.4101,-3.4101,-3.4101,-3.4101,-3.4101,-3.4101,-3.4101,-3.4101,-3.4101,-3.4101,-3.4101,-3.4101,-3.4101,-3.4101,-3.4101,-3.4101,-3.4101,-3.4101,-2.2309,-2.2749,-2.3189,-2.3043,0.0,0.0,-2.3547,-2.3226,-2.3776,0.0,-2.6557,-2.699,-2.9898,-3.0558,-3.0632,-3.0525,-3.1682,-3.2819,-3.349,-3.404,-3.4416,-3.4526,-3.5774,-3.6631,-3.6631,-3.722,-3.7595,-3.7595,-3.7595,-3.7595,-3.7595,-3.7595,-3.7595,-3.7595,-3.7595,-3.7595,-3.7595,-3.7595,-3.7595,-3.7595,-3.7595,-3.7595,-3.7595,-3.7595,-3.7685,-3.7828,-3.7667,-3.7739,-3.8,-3.8068,-3.8219,-3.8403,-3.8611,-3.8707,-3.8692,-3.8549,-3.7267,-3.56,-3.56,-3.56,-3.56,-3.56,-3.56,-3.56,-3.56,-3.56,-3.56,-3.56,-3.56,-3.5356,-3.4358,-3.4101,-3.4101,-3.4101,-3.4101,-3.4732,-3.7064,-3.7566,-3.7566,-3.7566,-3.5687,-3.4845,-3.7161,-3.5639,-3.4101,-3.4101,-3.6076,-3.7566,-3.7566,-3.5542,-3.4101,-3.4101,-3.4101,-3.4101,-3.4101,-3.4101,-3.4101,-3.4101,-3.4101,-3.4101,-3.4101,-3.4101,-3.4101,-3.4101,-3.4101,-3.4101,-3.4101,-3.4101,-3.4101,-3.4101,-3.4101,-3.4101,-2.3116,-2.3281,-2.3602,-2.3602,0.0,0.0,0.0,-2.3896,-2.441,-2.7226,-2.6521,-2.6384,-2.9604,-2.9531,-2.925,-2.9984,-3.0662,-3.1216,-3.156,-3.3096,-3.4162,-3.4115,-3.5114,-3.581,-3.581,-3.6524,-3.722,-3.7703,-3.7667,-3.7631,-3.7739,-3.7667,-3.7595,-3.7595,-3.7595,-3.7595,-3.7595,-3.7595,-3.7595,-3.7595,-3.7595,-3.7595,-3.7595,-3.7595,-3.7667,-3.7739,-3.7631,-3.7757,-3.8002,-3.8086,-3.8203,-3.8368,-3.8467,-3.8499,-3.8385,-3.7488,-3.6484,-3.56,-3.56,-3.56,-3.56,-3.56,-3.56,-3.56,-3.56,-3.56,-3.56,-3.56,-3.56,-3.5356,-3.4358,-3.4101,-3.4101,-3.4101,-3.5202,-3.6643,-3.8084,-3.8391,-3.8391,-3.8391,-3.7226,-3.6707,-3.8149,-3.7193,-3.6238,-3.6238,-3.7469,-3.8391,-3.8391,-3.5882,-3.4101,-3.4101,-3.4101,-3.4101,-3.4101,-3.4101,-3.4101,-3.4101,-3.4101,-3.4101,-3.4101,-3.4101,-3.4101,-3.4101,-3.4101,-3.4101,-3.4101,-3.4101,-3.4101,-3.4101,-3.4101,-3.4878,0.0,-2.4281,-2.4814,0.0,0.0,-2.5705,0.0,0.0,0.0,-2.7574,-2.6649,0.0,0.0,0.0,0.0,-2.9329,0.0,0.0,0.0,-3.1816,0.0,-3.3418,-3.4204,-3.4829,-3.4972,-3.5578,-3.6362,-3.7308,-3.7274,-3.731,-3.7595,-3.7632,-3.7649,-3.7595,-3.7595,-3.7595,-3.7595,-3.7595,-3.7595,-3.7595,-3.7595,-3.7595,-3.7595,-3.7595,-3.7631,-3.7667,-3.7631,-3.7739,-3.7933,-3.8052,-3.8203,-3.8334,-3.8336,-3.8236,-3.793,-3.6586,-3.5876,-3.56,-3.56,-3.56,-3.56,-3.56,-3.56,-3.56,-3.56,-3.56,-3.56,-3.56,-3.5447,-3.5258,-3.4993,-3.4926,-3.4926,-3.4926,-3.6707,-3.8391,-3.8391,-3.8391,-3.8391,-3.8391,-3.8391,-3.8391,-3.8391,-3.8391,-3.8391,-3.8391,-3.8391,-3.8391,-3.8391,-3.5882,-3.4101,-3.4101,-3.4101,-3.4101,-3.4101,-3.4101,-3.4101,-3.4101,-3.4101,-3.4101,-3.4101,-3.4101,-3.4101,-3.4101,-3.4101,-3.4376,-3.4926,-3.4926,-3.4635,-3.4117,-3.4667,-3.6173,0.0,0.0,0.0,0.0,-2.6403,0.0,0.0,0.0,-2.5172,-2.4814,0.0,0.0,0.0,0.0,0.0,0.0,0.0,0.0,-2.8051,-2.9728,-3.1066,-3.0918,-3.2242,-3.3437,-3.4169,-3.4311,-3.4668,-3.5435,-3.5641,-3.598,-3.6524,-3.7398,-3.7775,-3.7613,-3.7595,-3.7595,-3.7595,-3.7595,-3.7595,-3.7595,-3.7595,-3.7595,-3.7595,-3.7595,-3.7703,-3.7864,-3.7685,-3.7774,-3.8086,-3.8085,-3.8118,-3.8152,-3.8318,-3.7999,-3.7451,-3.7721,-3.6884,-3.56,-3.56,-3.56,-3.56,-3.56,-3.56,-3.56,-3.56,-3.56,-3.56,-3.56,-3.4961,-3.4836,-3.7269,-3.7906,-3.7906,-3.7906,-3.8165,-3.8391,-3.8391,-3.8391,-3.8391,-3.8391,-3.8391,-3.8391,-3.8391,-3.8391,-3.8391,-3.8391,-3.8391,-3.8391,-3.8391,-3.5882,-3.4101,-3.4101,-3.4101,-3.4101,-3.4101,-3.4101,-3.4101,-3.4101,-3.4101,-3.4101,-3.4101,-3.4101,-3.4101,-3.4101,-3.4101,-3.5364,-3.7906,-3.7906,-3.6594,-3.4165,-3.6724,-3.8084,0.0,0.0,0.0,0.0,0.0,0.0,-2.6098,0.0,-2.5429,0.0,0.0,0.0,0.0,0.0,0.0,0.0,-2.8022,0.0,0.0,0.0,-2.958,0.0,0.0,0.0,-3.3241,-3.3384,-3.4343,-3.661,-3.5482,-3.5249,-3.6503,-3.6861,-3.6988,-3.6916,-3.7363,-3.7595,-3.7595,-3.7595,-3.7595,-3.7595,-3.7595,-3.7595,-3.7595,-3.7595,-3.7649,-3.7721,-3.7649,-3.7685,-3.781,-3.7933,-3.8036,-3.8101,-3.8138,-3.795,-3.7667,-3.7774,-3.7131,-3.6114,-3.5739,-3.56,-3.56,-3.56,-3.56,-3.56,-3.56,-3.56,-3.547,-3.489,-3.5617,-3.6869,-3.8084,-3.8391,-3.8391,-3.8391,-3.8391,-3.8391,-3.8391,-3.8391,-3.8391,-3.8391,-3.8391,-3.8391,-3.8391,-3.8391,-3.8391,-3.8391,-3.8391,-3.8391,-3.8391,-3.7339,-3.5946,-3.4279,-3.4101,-3.4101,-3.4101,-3.4101,-3.4101,-3.4101,-3.4101,-3.4101,-3.4101,-3.4101,-3.4894,-3.6562,-3.6594,-3.7193,-3.8391,-3.8391,-3.7776,-3.6627,-3.7841,-3.8391,-2.7879,0.0,0.0,0.0,0.0,0.0,0.0,0.0,0.0,0.0,0.0,0.0,0.0,0.0,0.0,0.0,0.0,-2.7919,0.0,-2.8221,0.0,0.0,0.0,0.0,0.0,-3.177,-3.3031,-3.6285,-3.4906,-3.4603,-3.6196,-3.6611,-3.6684,-3.6399,-3.7166,-3.7595,-3.7595,-3.7595,-3.7595,-3.7595,-3.7595,-3.7595,-3.7595,-3.7595,-3.7595,-3.7595,-3.7595,-3.7595,-3.7631,-3.7828,-3.7915,-3.7966,-3.802,-3.7951,-3.7811,-3.7667,-3.7052,-3.6262,-3.5761,-3.56,-3.56,-3.56,-3.56,-3.56,-3.56,-3.56,-3.5564,-3.5346,-3.6788,-3.8391,-3.8391,-3.8391,-3.8391,-3.8391,-3.8391,-3.8391,-3.8391,-3.8391,-3.8391,-3.8391,-3.8391,-3.8391,-3.8391,-3.8391,-3.8391,-3.8391,-3.8391,-3.8391,-3.8391,-3.8391,-3.7598,-3.5509,-3.457,-3.4424,-3.5218,-3.5283,-3.5283,-3.5283,-3.5283,-3.5283,-3.5283,-3.5283,-3.6254,-3.8359,-3.8391,-3.8391,-3.8391,-3.8391,-3.8391,-3.8391,-3.8391,-3.8391,0.0,0.0,0.0,-2.9354,0.0,0.0,0.0,0.0,-2.6355,0.0,0.0,0.0,0.0,0.0,0.0,0.0,0.0,0.0,0.0,0.0,0.0,0.0,0.0,0.0,0.0,-2.894,-2.9797,0.0,-3.3286,-3.395,-3.5185,-3.6896,-3.7416,-3.6417,-3.7166,-3.7595,-3.7595,-3.7595,-3.7595,-3.7595,-3.7595,-3.7595,-3.7595,-3.7595,-3.7595,-3.7595,-3.7595,-3.7595,-3.7631,-3.7828,-3.7793,-3.7649,-3.7966,-3.7897,-3.7613,-3.7595,-3.6759,-3.5644,-3.56,-3.56,-3.56,-3.56,-3.56,-3.56,-3.56,-3.56,-3.5961,-3.7769,-3.8327,-3.8391,-3.8391,-3.8391,-3.8391,-3.8391,-3.8391,-3.8391,-3.8391,-3.8391,-3.8391,-3.8391,-3.8391,-3.8391,-3.8391,-3.8391,-3.8391,-3.8391,-3.8391,-3.8391,-3.8391,-3.8391,-3.8359,-3.8262,-3.5768,-3.5234,-3.8019,-3.8262,-3.8262,-3.8262,-3.8262,-3.8262,-3.8262,-3.8262,-3.8311,-3.8391,-3.8391,-3.8391,-3.8391,-3.8391,-3.8391,-3.8391,-3.8391,-3.8391,0.0,0.0,-3.1564,-3.0032,0.0,0.0,0.0,0.0,0.0,0.0,0.0,0.0,0.0,0.0,0.0,0.0,0.0,0.0,0.0,0.0,0.0,0.0,0.0,0.0,0.0,0.0,-3.1073,-3.4187,-3.3084,0.0,-3.5096,-3.5326,-3.545,-3.5596,-3.6381,-3.7059,-3.7595,-3.7595,-3.7595,-3.7595,-3.7595,-3.7595,-3.7595,-3.7595,-3.7595,-3.7595,-3.7595,-3.7595,-3.7613,-3.7685,-3.7667,-3.7613,-3.7703,-3.7703,-3.7503,-3.6597,-3.6284,-3.6199,-3.5739,-3.56,-3.56,-3.56,-3.56,-3.56,-3.56,-3.6992,-3.8546,-3.8433,-3.8391,-3.8391,-3.8391,-3.8391,-3.8391,-3.8391,-3.8391,-3.8391,-3.8391,-3.8391,-3.8391,-3.8391,-3.8391,-3.8391,-3.8391,-3.8391,-3.8391,-3.8391,-3.8391,-3.8391,-3.8391,-3.8391,-3.8391,-3.8391,-3.7533,-3.7339,-3.8311,-3.8391,-3.8391,-3.8391,-3.8391,-3.8391,-3.8391,-3.8391,-3.8391,-3.8391,-3.8391,-3.8391,-3.8391,-3.8391,-3.8391,-3.8391,-3.8391,-3.8391,-3.1996,-3.2059,0.0,-3.1002,-3.0082,0.0,-2.7755,0.0,-2.7622,0.0,0.0,0.0,0.0,0.0,0.0,0.0,0.0,0.0,0.0,-2.7986,0.0,0.0,0.0,0.0,0.0,0.0,-3.0251,-3.449,-3.2914,0.0,0.0,-3.5025,-3.5007,-3.5186,-3.5989,-3.6774,-3.7595,-3.7595,-3.7595,-3.7595,-3.7595,-3.7595,-3.7595,-3.7595,-3.7595,-3.7595,-3.7595,-3.7595,-3.7595,-3.7595,-3.7595,-3.7595,-3.7595,-3.7595,-3.7448,-3.6092,-3.5871,-3.6178,-3.5739,-3.56,-3.56,-3.56,-3.56,-3.5802,-3.6874,-3.8262,-3.9345,-3.8616,-3.8391,-3.8391,-3.8391,-3.8391,-3.8391,-3.8391,-3.8391,-3.8391,-3.8391,-3.8391,-3.8391,-3.8391,-3.8391,-3.8391,-3.8391,-3.8391,-3.8391,-3.8391,-3.8391,-3.8391,-3.8391,-3.8391,-3.8391,-3.8391,-3.8391,-3.8391,-3.8391,-3.8391,-3.8391,-3.8391,-3.8391,-3.8391,-3.8391,-3.8391,-3.8391,-3.8391,-3.8391,-3.8391,-3.8391,-3.8391,-3.8391,-3.8391,-3.8391,-3.8391]},{"header":{"parameterUnit":"m.s-1","parameterCategory":1,"la1":30.6,"la2":29.2853,"lo1":-89.7004,"lo2":-87.6739,"dy":0.0162,"dx":0.0183,"nx":112,"ny":82,"refTime":"2026-05-22T12:00:00:Z","depth":0,"parameterNumber":3,"parameterNumberName":"V-component_of_WINDS"},"data":[0.0,0.0,0.0,0.0,0.0,0.0,0.0,0.0,0.0,0.0,0.0,0.0,0.0,0.0,0.0,0.0,0.0,0.0,0.0,0.0,0.0,0.0,0.0,0.0,0.0,0.0,0.0,0.0,0.0,0.0,0.0,0.0,0.0,0.0,0.0,0.0,0.0,0.0,0.0,0.0,0.0,0.0,0.0,0.0,0.0,0.0,0.0,0.0,0.0,0.0,0.0,0.0,0.0,0.0,0.0,0.0,0.0,0.0,0.0,0.0,0.0,0.0,0.0,0.0,0.0,0.0,0.0,0.0,0.0,0.0,0.0,0.0,0.0,0.0,0.0,0.0,0.0,0.0,0.0,0.0,0.0,0.0,0.0,0.0,0.0,0.0,0.0,0.0,0.0,0.0,0.9273,0.9018,0.8875,0.8762,0.8652,0.8613,0.8421,0.804,0.0,0.0,0.0,0.0,0.0,0.0,0.0,0.0,0.0,0.0,0.0,0.0,0.0,0.0,0.0,0.0,0.0,0.0,0.0,0.0,0.0,0.0,0.0,0.0,0.0,0.0,0.0,0.0,0.0,0.0,0.0,0.0,0.0,0.0,0.0,0.0,0.0,0.0,0.0,0.0,0.0,0.0,0.0,0.0,0.0,0.0,0.0,0.0,0.0,0.0,0.0,0.0,0.0,0.0,0.0,0.0,0.0,0.0,0.0,0.0,0.0,0.0,0.0,0.0,0.0,0.0,0.0,0.0,0.0,0.0,0.0,0.0,0.0,0.0,0.0,0.0,0.0,0.0,0.0,0.0,0.0,0.0,0.0,0.0,0.0,0.0,0.0,0.0,0.0,0.0,0.0,0.0,0.0,0.0,0.0,0.0,0.0,0.0,0.0,0.0,0.0,0.0,0.0,0.0,0.8061,0.8469,0.8681,0.8717,0.8472,0.8531,0.8447,0.8121,0.0,0.0,0.0,0.0,0.0,0.0,0.0,0.0,0.0,0.0,0.0,0.0,0.0,0.0,0.0,0.0,0.0,0.0,0.0,0.0,0.0,0.0,0.0,0.0,0.0,0.0,0.0,0.0,0.0,0.0,0.0,0.0,0.0,0.0,0.0,0.0,0.0,0.0,0.0,0.0,0.0,0.0,0.0,0.0,0.0,0.0,0.0,0.0,0.0,0.0,0.0,0.0,0.0,0.0,0.0,0.0,0.0,0.0,0.0,0.0,0.0,0.0,0.0,0.0,0.0,0.0,0.0,0.0,0.0,0.0,0.0,0.0,0.0,0.0,0.0,0.0,0.0,0.0,0.0,0.0,0.0,0.0,0.0,0.0,0.0,0.0,0.0,0.0,0.0,0.0,0.0,0.0,0.0,0.0,0.0,0.0,0.0,0.0,0.0,0.0,0.0,0.0,0.0,0.8319,0.8357,0.8803,0.8938,0.8958,0.8851,0.8819,0.8699,0.8381,0.8398,0.0,0.0,0.0,0.0,0.0,0.0,0.0,0.0,0.0,0.0,0.0,0.0,0.0,0.0,0.0,0.0,0.0,0.0,0.0,0.0,0.0,0.0,0.0,0.0,0.0,0.0,0.0,0.0,0.0,0.0,0.0,0.0,0.0,0.0,0.0,0.0,0.0,0.0,0.0,0.0,0.0,0.0,0.0,0.0,0.0,0.0,0.0,0.0,0.0,0.0,0.0,0.0,0.0,0.0,0.0,0.0,0.0,0.0,0.0,0.0,0.0,0.0,0.0,0.0,0.0,0.0,0.0,0.0,0.0,0.0,0.0,0.0,0.0,0.0,0.0,0.0,0.0,0.0,0.0,0.0,0.0,0.0,0.0,0.0,0.0,0.0,0.0,0.0,0.0,0.0,0.0,0.0,0.0,0.0,0.0,0.0,0.0,0.0,0.0,0.0,0.0,0.0,0.8945,0.8902,0.9092,0.9171,0.9184,0.9118,0.9108,0.8972,0.8629,0.8482,0.0,0.0,0.0,0.0,0.0,0.0,0.0,0.0,0.0,0.0,0.0,0.0,0.0,0.0,0.0,0.0,0.0,0.0,0.0,0.0,0.0,0.0,0.0,0.0,0.0,0.0,0.0,0.0,0.0,0.0,0.0,0.0,0.0,0.0,0.0,0.0,0.0,0.0,0.0,0.0,0.0,0.0,0.0,0.0,0.0,0.0,0.0,0.0,0.0,0.0,0.0,0.0,0.0,0.0,0.0,0.0,0.0,0.0,0.0,0.0,0.0,0.0,0.0,0.0,0.0,0.0,0.0,0.0,0.0,0.0,0.0,0.0,0.0,0.0,0.0,0.0,0.0,0.0,0.0,0.0,0.0,0.0,0.0,0.0,0.0,0.0,0.0,0.0,0.0,0.0,0.0,0.0,0.0,0.0,0.0,0.0,0.0,0.0,0.0,0.0,0.0,0.0,0.8802,0.9157,0.8858,0.9051,0.9104,0.8858,0.9211,0.921,0.8643,0.8482,0.0,0.0,0.0,0.0,0.0,0.0,0.0,0.0,0.0,0.0,0.0,0.0,0.0,0.0,0.0,0.0,0.0,0.0,0.0,0.0,0.0,0.0,0.0,0.0,0.0,0.0,0.0,0.0,0.0,0.0,0.0,0.0,0.0,0.0,0.0,0.0,0.0,0.0,0.0,0.0,0.0,0.0,0.0,0.0,0.0,0.0,0.0,0.0,0.0,0.0,0.0,0.0,0.0,0.0,0.0,0.0,0.0,0.0,0.0,0.0,0.0,0.0,0.0,0.0,0.0,0.0,0.0,0.0,0.0,0.0,0.0,0.0,0.0,0.0,0.0,0.0,0.0,0.0,0.0,0.0,0.0,0.0,0.0,0.0,0.0,0.0,0.0,0.0,0.0,0.0,0.0,0.0,0.0,0.0,0.0,0.0,0.0,0.0,0.0,0.0,0.0,0.0,0.9111,0.9552,0.0,0.9712,0.9733,0.9613,0.9684,0.9464,0.8769,0.0,0.0,0.0,0.0,0.0,0.0,0.0,0.0,0.0,0.0,0.0,0.0,0.0,0.0,0.0,0.0,0.0,0.0,0.0,0.0,0.0,0.0,0.0,0.0,0.0,0.0,0.0,0.0,0.0,0.0,0.0,0.0,0.0,0.0,0.0,0.0,0.0,0.0,0.0,0.0,0.0,0.0,0.0,0.0,0.0,0.0,0.0,0.0,0.0,0.0,0.0,0.0,0.0,0.0,0.0,0.0,0.0,0.0,0.0,0.0,0.0,0.0,0.0,0.0,0.0,0.0,0.0,0.0,0.0,0.0,0.0,0.0,0.0,0.0,0.0,0.0,0.0,0.0,0.0,0.0,0.0,0.0,0.0,0.0,0.0,0.0,0.0,0.0,0.0,0.0,0.0,0.0,0.0,0.0,0.0,0.0,0.0,0.0,0.0,0.0,0.0,0.0,0.8966,0.9645,1.0097,0.0,1.0147,1.0243,1.0138,1.0199,0.9859,0.8951,0.0,0.0,0.0,0.0,0.0,0.0,0.0,0.0,0.0,0.0,0.0,0.0,0.0,0.0,0.0,0.0,0.0,0.0,0.0,0.0,0.0,0.0,0.0,0.0,0.0,0.0,0.0,0.0,0.0,0.0,0.0,0.0,0.0,0.0,0.0,0.0,0.0,0.0,0.0,0.0,0.0,0.0,0.0,0.0,0.0,0.0,0.0,0.0,0.0,0.0,0.0,0.0,0.0,0.0,0.0,0.0,0.0,0.0,0.0,0.0,0.0,0.0,0.0,0.0,0.0,0.0,0.0,0.0,0.0,0.0,0.0,0.0,0.0,0.0,0.0,0.0,0.0,0.0,0.0,0.0,0.0,0.0,0.0,0.0,0.0,0.0,0.0,0.0,0.0,0.0,0.0,0.0,0.0,0.0,0.0,0.0,0.0,0.0,0.0,0.0,0.0,0.0,0.9546,1.0454,1.0728,0.9706,1.0265,1.0565,1.0241,1.0704,1.0463,0.0,0.0,0.0,0.0,0.0,0.0,0.0,0.0,0.0,0.0,0.0,0.0,0.0,0.0,0.0,0.0,0.0,0.0,0.0,0.0,0.0,0.0,0.0,0.0,0.0,0.0,0.0,0.0,0.0,0.0,0.0,0.0,0.0,0.0,0.0,0.0,0.0,0.0,0.0,0.0,0.0,0.0,0.0,0.0,0.0,0.0,0.0,0.0,0.0,0.0,0.0,0.0,0.0,0.0,0.0,0.0,0.0,0.0,0.0,0.0,0.0,0.0,0.0,0.0,0.0,0.0,0.0,0.0,0.0,0.0,0.0,0.0,0.0,0.0,0.0,0.0,0.0,0.0,0.0,0.0,0.0,0.0,0.0,0.0,0.0,0.0,0.0,0.0,0.0,0.0,0.0,0.0,0.0,0.0,0.0,0.0,0.0,0.0,0.0,0.0,0.0,0.0,0.0,0.9812,1.0733,1.1087,1.0327,1.0671,1.0952,1.0837,1.0939,1.0588,0.9582,0.0,0.0,0.0,0.0,0.0,0.0,0.0,0.0,0.0,0.0,0.0,0.0,0.0,0.0,0.0,0.0,0.0,0.0,0.0,0.0,0.0,0.0,0.0,0.0,0.0,0.0,0.0,0.0,0.0,0.0,0.0,0.0,0.0,0.0,0.0,0.0,0.0,0.0,0.0,0.0,0.0,0.0,0.0,0.0,0.0,0.0,0.0,0.0,0.0,0.0,0.0,0.0,0.0,0.0,0.0,0.0,0.0,0.0,0.0,0.0,0.0,0.0,0.0,0.0,0.0,0.0,0.0,0.0,0.0,0.0,0.0,0.0,0.0,0.0,0.0,0.0,0.0,0.0,0.0,0.0,0.0,0.0,0.0,0.0,0.0,0.0,0.0,0.0,0.0,0.0,0.0,0.0,0.0,0.0,0.0,0.0,0.0,0.0,0.0,0.0,0.0,0.0,1.014,1.1216,1.1691,1.0825,1.1251,1.163,1.1805,1.1472,1.0915,1.0113,0.0,0.0,0.0,0.0,0.0,0.0,0.0,0.0,0.0,0.0,0.0,0.0,0.0,0.0,0.0,0.0,0.0,0.0,0.0,0.0,0.0,0.0,0.0,0.0,0.0,0.0,0.0,0.0,0.0,0.0,0.0,0.0,0.0,0.0,0.0,0.0,0.0,0.0,0.0,0.0,0.0,0.0,0.0,0.0,0.0,0.0,0.0,0.0,0.0,0.0,0.0,0.0,0.0,0.0,0.0,0.0,0.0,0.0,0.0,0.0,0.0,0.0,0.0,0.0,0.0,0.0,0.0,0.0,0.0,0.0,0.0,0.0,0.0,0.0,0.0,0.0,0.0,0.0,0.0,0.0,0.0,0.0,0.0,0.0,0.0,0.0,0.0,0.0,0.0,0.0,0.0,0.0,0.0,0.0,0.0,0.0,0.0,0.0,0.0,0.0,0.0,0.0,1.0515,1.1822,1.2377,1.1277,1.1852,1.2448,1.2812,1.2076,1.1332,1.0734,0.0,0.0,0.0,0.0,0.0,0.0,0.0,0.0,0.0,0.0,0.0,0.0,0.0,0.0,0.0,0.0,0.0,0.0,0.0,0.0,0.0,0.0,0.0,0.0,0.0,0.0,0.0,0.0,0.0,0.0,0.0,0.0,0.0,0.0,0.0,0.0,0.0,0.0,0.0,0.0,0.0,0.0,0.0,0.0,0.0,0.0,0.0,0.0,0.0,0.0,0.0,0.0,0.0,0.0,0.0,0.0,0.0,0.0,0.0,0.0,0.9283,0.7313,0.0,0.0,0.0,0.0,0.0,0.0,0.0,0.0,0.0,0.0,0.0,0.0,0.0,0.0,0.0,0.0,0.0,0.0,0.0,0.0,0.0,0.0,0.0,0.0,0.0,0.0,0.0,0.0,0.0,0.0,0.0,0.0,0.0,0.0,0.0,0.0,0.0,0.0,0.0,0.0,1.093,1.2,1.2484,1.1657,1.2002,1.2336,1.242,1.1926,1.1545,1.1414,0.9934,0.0,0.0,0.0,0.0,0.0,0.0,0.0,0.0,0.0,0.0,0.0,0.0,0.0,0.0,0.0,0.0,0.0,0.0,0.0,0.0,0.0,0.0,0.0,0.0,0.0,0.0,0.0,0.0,0.0,0.0,0.0,0.0,0.0,0.0,0.0,0.0,0.0,0.0,0.0,0.0,0.0,0.0,0.0,0.0,0.0,0.0,0.0,0.0,0.0,0.0,0.0,0.0,0.0,0.0,0.0,0.0,0.0,0.0,0.0,1.0696,0.9054,0.0,0.0,0.0,0.0,0.0,0.0,0.0,0.0,0.0,0.0,0.0,0.0,0.0,0.0,0.0,0.0,0.0,0.0,0.0,0.0,0.0,0.0,0.0,0.0,0.0,0.0,0.0,0.0,0.0,0.0,0.0,0.0,0.0,0.0,0.0,0.0,0.0,0.0,0.0,0.0,1.1064,1.2262,1.2824,1.2065,1.2357,1.2664,1.2855,1.2256,1.1809,1.1616,1.0743,0.0,0.0,0.0,0.0,0.0,0.0,0.0,0.0,0.0,0.0,0.0,0.0,0.0,0.0,0.0,0.0,0.0,0.0,0.0,0.0,0.0,0.0,0.0,0.0,0.0,0.0,0.0,0.0,0.0,0.0,0.0,0.0,0.0,0.0,0.0,0.0,0.0,0.0,0.0,0.0,0.0,0.0,0.0,0.0,0.0,0.0,0.0,0.0,0.0,0.0,0.0,0.0,0.0,1.541,1.541,1.5361,1.3965,1.3497,1.3649,1.2044,1.0958,1.0117,0.7158,0.0,0.0,0.0,0.0,0.0,0.0,0.0,0.0,0.0,0.0,0.0,0.0,0.0,0.0,0.0,0.0,0.0,0.0,0.0,0.0,0.0,0.0,1.2296,1.1944,1.2725,1.2922,1.0786,0.0,0.0,0.0,0.0,0.0,0.0,0.0,0.0,0.0,0.0,0.0,1.1311,1.2561,1.3214,1.2469,1.27,1.3018,1.3369,1.2754,1.2148,1.1731,1.1555,1.0674,0.0,0.0,0.0,0.0,0.0,0.0,0.0,0.0,0.0,0.0,0.0,0.0,0.0,0.0,0.0,0.0,0.0,0.0,0.0,0.0,0.0,0.0,0.0,0.0,0.0,0.0,0.0,0.0,0.0,0.0,0.0,0.0,0.5651,0.6428,0.0,0.0,0.0,0.0,0.0,0.0,0.0,0.0,0.0,0.0,0.0,0.0,0.0,0.8523,0.8468,1.086,1.3175,1.541,1.541,1.541,1.5371,1.5186,1.4658,1.3945,1.3697,0.0,1.2212,0.8683,0.0,0.0,0.0,0.0,0.0,0.0,0.0,0.0,0.0,0.0,0.0,0.0,0.0,0.0,0.0,0.0,0.0,0.0,0.0,0.0,0.0,0.0,1.2982,1.2568,1.3263,1.3719,1.2635,1.2588,1.2445,1.1506,1.167,1.1814,0.0,0.0,0.0,0.0,0.0,0.0,1.2115,1.289,1.3324,1.2881,1.2856,1.2925,1.2959,1.2861,1.2607,1.2145,1.1404,1.0869,1.0586,1.0059,0.0,0.0,0.0,0.0,0.0,0.0,0.0,0.0,0.0,0.0,0.0,0.0,0.0,0.0,0.0,0.0,0.0,0.0,0.0,0.0,0.0,0.0,0.0,0.0,0.0,0.0,0.0,0.0,0.0,0.5512,0.5707,0.6538,0.5898,0.5674,0.0,0.0,0.0,0.0,0.0,0.0,0.0,0.0,0.0,0.8023,0.9172,0.9822,0.9822,1.1677,1.3383,1.4967,1.6247,1.6357,1.541,1.541,1.5177,1.4736,1.367,1.2611,1.1521,1.0291,0.7921,0.494,0.0,0.0,0.0,0.0,0.3812,0.4264,0.5379,0.6526,0.7413,0.6917,0.0,0.0,0.0,0.0,0.0,0.0,0.0,1.1962,1.1818,1.2519,1.3205,1.3037,1.3566,1.4053,1.3914,1.3924,1.358,1.2197,1.2077,1.1989,1.1309,1.1418,0.0,0.0,0.0,1.2428,1.2233,1.2749,1.3111,1.2925,1.2905,1.2905,1.2905,1.2905,1.2695,1.2233,1.1843,1.1297,1.0586,1.04,0.9903,0.0,0.0,0.0,0.0,0.0,0.0,0.0,0.0,0.0,0.0,0.0,0.0,0.0,0.0,0.0,0.0,0.0,0.0,0.0,0.0,0.0,0.0,0.0,0.0,0.0,0.0,0.0,0.0,0.5697,0.5742,0.6365,0.5911,0.5865,0.0,0.0,0.0,0.0,0.0,0.0,0.863,0.8677,0.8878,0.9245,1.0247,1.0888,1.1035,1.2407,1.3616,1.4605,1.6324,1.6448,1.5198,1.5198,1.5198,1.5105,1.3292,1.1953,1.1048,1.1256,0.9447,0.6426,0.5324,0.4565,0.4061,0.4061,0.4341,0.4808,0.5416,0.6581,0.7741,0.7432,0.9525,1.2178,1.2317,0.0,0.0,0.0,0.0,1.2417,1.2417,1.2885,1.3318,1.3166,1.3504,1.3996,1.4444,1.4562,1.4239,1.2939,1.2691,1.2418,1.1562,1.179,0.0,1.1621,0.0,1.2652,1.2545,1.2842,1.2998,1.2915,1.2905,1.2905,1.2905,1.3076,1.293,1.2242,1.2408,1.1973,1.0684,1.0929,1.0576,0.9512,0.0,0.0,0.0,0.0,0.0,0.0,0.0,0.0,0.0,0.0,0.0,0.0,0.0,0.0,0.0,0.0,0.0,0.0,0.0,0.0,0.0,0.0,0.0,0.0,0.0,0.0,0.0,0.0,0.0,0.6009,0.6334,0.0,0.0,0.0,0.0,0.7088,0.8096,0.8918,0.9319,0.9773,1.016,1.0492,1.1062,1.1615,1.2204,1.3735,1.4534,1.4605,1.4713,1.4744,1.4636,1.4636,1.4636,1.4565,1.2976,1.2284,1.2131,1.1081,0.9366,0.7427,0.7339,0.6513,0.5303,0.5303,0.5324,0.5436,0.6044,0.7317,0.8835,0.9987,1.3127,1.6158,1.4833,1.4153,0.0,0.0,1.3735,1.3538,1.3538,1.3546,1.3427,1.2781,1.2995,1.3463,1.3941,1.4079,1.411,1.4024,1.4007,1.3743,1.2954,0.0,1.3408,1.3379,1.3734,1.387,1.3471,1.3467,1.332,1.2944,1.2905,1.2905,1.2905,1.3613,1.3519,1.2291,1.2988,1.2861,1.1596,1.1557,1.132,1.08,1.0439,0.0,0.0,0.0,0.0,0.0,0.0,0.0,0.0,0.0,0.0,0.0,0.0,0.0,0.0,0.0,0.0,0.0,0.0,0.0,0.0,0.0,0.0,0.0,0.0,0.0,0.0,0.0,0.0,0.6557,0.7073,0.0,0.7287,0.8039,0.8429,0.8246,0.9103,0.9793,1.0157,1.0481,1.0815,1.1109,1.1282,1.1703,1.2291,1.2849,1.3615,1.4605,1.4605,1.4605,1.4605,1.4605,1.4057,1.3105,1.2526,1.2305,1.2271,1.185,1.0325,0.8259,0.8259,0.797,0.7389,0.6375,0.5975,0.6009,0.6224,0.7369,0.9025,1.1022,1.2684,1.3867,1.3744,1.3554,1.3424,1.3692,1.368,1.3618,1.3618,1.3618,1.3498,1.3044,1.3505,1.4149,1.4343,1.4692,1.4936,1.4934,1.4484,1.4007,1.3714,1.3782,1.3792,1.3545,1.4102,1.4286,1.3541,1.3695,1.362,1.29,1.2874,1.2905,1.2905,1.3408,1.3418,1.2695,1.293,1.2764,1.2021,1.1445,1.1222,1.1349,1.1073,1.0754,0.0,0.0,0.0,0.0,0.0,0.0,0.0,0.0,0.0,0.0,0.0,0.0,0.0,0.0,0.0,0.0,0.0,0.0,0.0,0.0,0.0,0.0,0.0,0.0,0.0,0.6184,0.6514,0.6644,0.7323,0.7789,0.779,0.8576,0.9071,0.9077,0.9993,1.0418,1.0172,1.0828,1.1187,1.1101,1.1475,1.1911,1.2298,1.2305,1.2813,1.3833,1.3833,1.3833,1.3833,1.3833,1.3288,1.2305,1.2305,1.2385,1.2461,1.1757,1.0694,0.9453,0.8927,0.8703,0.8585,0.7522,0.7103,0.7215,0.8042,0.9026,1.0164,1.1774,1.254,1.2898,1.3504,1.3603,1.3645,1.4163,1.4117,1.3942,1.3942,1.3854,1.3648,1.3195,1.3586,1.4096,1.4347,1.4692,1.5078,1.5546,1.4941,1.4328,1.4328,1.4445,1.4445,1.4189,1.4883,1.5032,1.3951,1.4239,1.4128,1.307,1.316,1.3184,1.2925,1.3389,1.3545,1.3125,1.3096,1.2959,1.2652,1.1794,1.1596,1.2141,1.2028,1.1675,1.1038,0.0,0.0,0.0,0.0,0.0,0.0,0.0,0.0,0.0,0.0,0.0,0.0,0.0,0.0,0.0,0.0,0.0,0.0,0.0,0.0,0.0,0.0,0.0,0.5656,0.5965,0.6233,0.6233,0.6996,0.7642,0.7955,0.9077,0.9696,0.942,1.0629,1.0805,0.9443,1.0829,1.1288,1.0563,1.1698,1.2305,1.2305,1.2305,1.2318,1.2358,1.2358,1.2351,1.2331,1.2331,1.2331,1.2301,1.2301,1.2521,1.2738,1.0793,1.0423,1.0936,0.9306,0.8703,0.8703,0.8703,0.8708,0.9061,1.1521,1.2345,1.2331,1.2338,1.3013,1.3882,1.4402,1.4592,1.4706,1.5472,1.5157,1.4605,1.4605,1.4351,1.3958,1.3267,1.314,1.3291,1.3887,1.401,1.4418,1.5806,1.54,1.4805,1.4852,1.5146,1.541,1.541,1.6132,0.0,1.4796,1.5098,1.4917,1.3469,1.3782,1.3763,1.2983,1.3652,1.3929,1.3535,1.3516,1.3525,1.3525,1.2705,1.2549,1.3232,1.3301,1.2861,1.1934,0.0,0.0,0.0,0.0,0.0,0.0,0.0,0.0,0.0,0.0,0.0,0.0,0.0,0.0,0.0,0.0,0.0,0.0,0.0,0.0,0.0,0.6007,0.6097,0.604,0.6549,0.6933,0.6933,0.7566,0.7901,0.7646,0.911,0.9906,0.9489,1.0516,1.1158,1.1064,1.0495,1.0674,1.176,1.2134,1.2305,1.2305,1.2305,1.2739,1.3594,1.3594,1.3373,1.2959,1.2959,1.2674,1.2203,1.289,1.2877,1.2357,1.1784,1.1143,1.0418,0.9163,0.8703,0.8703,0.8703,0.8892,0.9552,1.2578,1.332,1.2986,1.3126,1.3366,1.3663,1.3983,1.4024,1.407,1.4704,1.4756,1.4605,1.4605,1.4534,1.428,1.3616,1.3712,1.3962,1.4,1.427,1.4714,1.5449,1.54,1.5342,1.5684,1.5547,1.541,1.541,1.6132,0.0,1.5299,1.5865,1.5707,1.4054,1.4018,1.3763,1.2983,1.3652,1.3929,1.3535,1.3763,1.4034,1.428,1.3456,1.326,1.3847,1.3812,1.3417,0.0,0.0,0.0,0.0,0.0,0.0,0.0,0.0,0.0,0.0,0.0,0.0,0.0,0.0,0.0,0.0,0.0,0.0,0.0,0.0,0.0,0.0,0.6506,0.662,0.662,0.6962,0.7223,0.7304,0.7759,0.8024,0.7958,0.9078,0.9696,0.9401,1.0446,1.0906,1.0459,1.0166,1.0247,1.0752,1.0801,1.1285,1.2298,1.2559,1.3033,1.3721,1.3368,1.3052,1.2697,1.2338,1.1915,1.1553,1.2223,1.2441,1.236,1.1956,1.1628,1.1192,0.0,0.0,0.0,0.0,0.9067,0.9692,1.2349,1.3035,1.2806,1.3247,1.338,1.3486,1.3959,1.4074,1.4176,1.4702,1.4867,1.4859,1.466,1.4605,1.4462,1.3942,1.3897,1.4056,1.4188,1.4297,1.4597,1.5264,1.541,0.0,1.5752,1.5732,1.5684,1.5684,1.6279,1.6452,1.5682,1.6258,1.6227,1.4988,1.4917,1.46,1.3776,1.3929,0.0,0.0,0.0,1.4286,1.4783,1.4393,0.0,0.0,0.0,0.0,0.0,0.0,0.0,0.0,1.3576,1.3499,0.0,0.0,0.0,0.0,0.0,0.0,0.0,0.0,0.0,0.0,0.0,0.0,0.0,0.0,0.0,0.0,0.6913,0.7199,0.7218,0.7223,0.7289,0.747,0.7683,0.7981,0.8461,0.9004,0.927,0.9207,1.0376,1.0507,0.9193,0.9873,0.0,0.0,0.0,0.9872,1.2175,1.2862,1.3167,1.3154,1.2433,1.2057,1.196,1.1204,1.0824,1.0736,1.1089,1.1723,1.2461,1.1682,1.1922,1.2643,1.1688,1.0621,0.9576,0.9256,0.9211,0.9625,1.1512,0.0,0.0,1.3039,1.3307,1.3459,1.4209,1.4593,1.4813,1.5095,1.5261,1.5199,1.4724,1.4605,1.4518,1.4196,1.387,1.3793,1.4365,1.4272,1.4324,1.5216,1.541,1.541,1.541,1.5762,1.6016,1.6016,1.6416,1.6538,1.6042,1.6488,1.6645,1.606,1.6088,0.0,1.4891,1.4445,1.4404,1.4743,1.4389,1.444,1.5023,1.5319,1.5455,1.5455,1.5672,1.5811,1.5811,1.5865,1.5887,1.5865,1.4963,1.4777,0.0,0.0,0.0,0.0,0.0,0.0,0.0,0.0,0.0,0.0,0.0,0.0,0.0,0.0,0.0,0.6943,0.7138,0.7247,0.7408,0.7432,0.7446,0.7484,0.7683,0.785,0.7947,0.8791,0.9306,0.927,1.0407,1.126,1.1589,0.9981,0.8927,0.8703,0.903,0.9957,1.1554,1.2666,1.3077,1.2806,1.2656,0.0,1.2009,1.1818,1.1449,1.0979,1.1586,1.1937,1.2111,1.1931,1.2276,1.2831,1.1805,1.0921,1.0147,0.9606,0.9475,0.9816,1.188,1.2348,1.2209,1.3503,1.3921,1.4041,1.4603,1.5209,0.0,1.5276,1.5261,1.5199,1.4724,1.4605,1.4518,1.4196,1.4061,1.4101,1.4426,1.4444,1.4601,1.5273,1.541,1.541,1.541,1.5488,1.5537,1.5537,1.619,1.6665,1.657,1.7236,1.7434,1.6648,1.6556,1.6113,1.4893,1.5019,1.4997,1.4576,1.4919,1.5025,1.4779,1.5379,1.5723,1.5723,1.5774,1.5811,1.5811,1.6182,1.6356,1.6345,1.5789,1.5582,0.0,0.0,0.0,0.0,0.0,0.0,0.0,0.0,0.0,0.0,0.0,0.567,0.637,0.0,0.6582,0.7237,0.7342,0.7375,0.7474,0.7489,0.7489,0.7489,0.7769,0.7963,0.7963,0.8592,0.8991,0.8991,0.9541,0.9981,1.0201,0.9231,0.8627,0.8403,0.8892,0.9647,1.0637,1.1497,1.1999,1.2127,1.1958,1.1714,1.1499,1.1154,1.0814,1.0511,1.0852,1.137,1.2057,1.2747,1.3264,1.3493,1.2962,1.2306,1.1608,1.0984,1.0783,1.1001,1.2359,1.2699,1.2662,1.3743,1.4088,1.4223,1.493,1.5359,1.561,1.5481,1.5475,1.5342,1.4756,1.4605,1.4557,1.4383,1.4201,1.4185,1.4553,1.4589,1.4652,1.5202,1.535,1.541,1.541,1.541,1.541,1.541,1.5761,1.6122,1.6367,1.6963,1.7262,1.708,1.7061,1.6797,1.6173,1.6256,1.6075,1.5384,1.6276,1.6667,1.6342,1.6705,1.689,1.689,1.6677,1.6557,1.6557,1.6787,1.6896,1.6885,1.6667,1.6557,0.0,0.0,0.0,0.0,0.0,0.0,0.0,0.0,0.5891,0.5799,0.5883,0.6119,0.662,0.6821,0.7047,0.7437,0.7489,0.7489,0.7489,0.7489,0.7489,0.7489,0.7859,0.8115,0.8115,0.8458,0.8703,0.8703,0.8818,0.8703,0.8293,0.867,0.8703,0.8293,0.8797,0.9354,0.9982,1.0486,1.101,1.1467,1.115,1.0939,1.0809,1.0255,0.9994,0.9994,1.0299,1.0982,1.21,1.3525,1.4088,1.4088,1.4088,1.3737,1.313,1.2443,1.21,1.21,1.279,1.3003,1.313,1.387,1.4088,1.425,1.5151,1.5394,1.542,1.5639,1.5712,1.5515,1.4787,1.4605,1.4605,1.4605,1.4383,1.43,1.4719,1.4634,1.4594,1.5,1.5106,1.5147,1.5235,1.5264,1.5294,1.5381,1.5488,1.5664,1.6046,1.6455,1.6833,1.7217,1.7367,1.7416,1.7471,1.7339,1.7029,1.6494,1.7448,1.7973,1.7879,1.7868,1.7912,1.801,1.7529,1.735,1.7448,1.7448,1.7448,1.7448,1.7448,1.7394,0.7295,0.6964,0.7037,0.7603,0.7373,0.7017,0.0,0.0,0.6982,0.6486,0.6865,0.7304,0.737,0.7408,0.7437,0.7484,0.7489,0.7489,0.7489,0.7489,0.7489,0.7489,0.7859,0.8115,0.8115,0.8458,0.8703,0.8703,0.9198,0.9311,0.8927,0.9273,0.9316,0.8927,0.9126,0.9614,1.0342,1.0758,1.0988,1.1074,1.1015,1.0684,1.0125,1.0038,0.9994,1.0081,1.1241,1.1843,1.21,1.3525,1.4088,1.4088,1.4088,1.4039,1.387,1.3173,1.2528,1.21,1.279,1.3003,1.313,1.387,1.4088,1.425,1.5151,1.5394,1.542,1.5639,1.5712,1.5515,1.4787,1.4605,1.4605,1.4605,1.4573,1.4596,1.4777,1.4547,1.4381,1.4536,1.435,1.43,1.4715,1.4775,1.4913,1.5323,1.5742,1.6036,1.6085,1.6455,1.6716,1.6765,1.7148,1.7537,1.78,1.7359,1.7136,1.7339,1.7391,1.7381,1.7394,1.7383,1.7562,1.7999,1.7529,1.7525,1.7923,1.7923,1.7923,1.7923,1.7923,1.7693,0.7515,0.7662,0.8019,0.0,0.7972,0.795,0.7623,0.7451,0.728,0.6978,0.7228,0.7489,0.7489,0.7593,0.7636,0.0,0.7489,0.7489,0.7489,0.7489,0.7489,0.7489,0.7859,0.8115,0.8115,0.8458,0.8703,0.8703,0.8932,0.8818,0.8169,0.8742,0.878,0.8127,0.8906,0.9445,0.977,1.0206,1.0424,1.0424,1.0424,1.0255,0.9994,0.9994,0.9994,1.0038,1.1025,1.1628,1.21,1.3045,1.3695,1.4088,1.4088,1.4088,1.4046,1.3737,1.3483,1.3264,1.3519,1.3652,1.3695,1.4004,1.4088,1.425,1.5151,1.5394,1.542,1.5639,1.5712,1.5515,1.4787,1.4605,1.4605,1.4605,1.4605,1.4637,1.4662,1.4823,1.4882,1.4704,1.4802,1.4942,1.497,1.4979,1.5076,1.5362,1.5566,1.5684,1.5684,1.6074,1.6543,1.7051,1.7275,1.7602,1.8145,1.8193,1.8208,1.8205,1.8651,1.8818,1.8534,1.8523,1.8622,1.8799,1.8348,1.8196,1.8403,1.8403,1.8403,1.8403,1.8403,1.8294,0.7712,0.8003,0.8392,0.8135,0.8313,0.8462,0.7943,0.7665,0.748,0.7322,0.7479,0.7664,0.7664,0.7792,0.7826,0.7617,0.7531,0.7489,0.7489,0.7489,0.7489,0.7489,0.7811,0.8053,0.811,0.8458,0.8703,0.8703,0.8703,0.8399,0.7714,0.8257,0.8288,0.7596,0.8631,0.9202,0.9202,0.9724,0.9994,0.9994,0.9994,0.9994,0.9994,0.9994,0.9994,1.0038,1.0727,1.137,1.2057,1.2699,1.3434,1.4088,1.4088,1.4088,1.4088,1.4088,1.4088,1.4088,1.4088,1.4088,1.4088,1.4088,1.4166,1.4412,1.5151,1.5477,1.5599,1.5678,1.5712,1.5515,1.4787,1.4605,1.4605,1.4605,1.4605,1.4605,1.4605,1.4838,1.4973,1.4648,1.496,1.5211,1.5038,1.5136,1.5273,1.5391,1.541,1.541,1.541,1.5693,1.6202,1.6966,1.7129,1.7538,1.8338,1.8816,1.9112,1.9104,1.9725,1.9954,1.9605,1.9584,1.9584,1.9584,1.9135,1.8884,1.8884,1.8884,1.8884,1.8884,1.8884,1.896,0.7812,0.7715,0.7682,0.8315,0.8254,0.8005,0.7907,0.784,0.7746,0.7534,0.7811,0.8096,0.8096,0.8101,0.8039,0.7835,0.7626,0.7489,0.7489,0.7489,0.7489,0.7489,0.7688,0.7902,0.8096,0.8458,0.8703,0.8703,0.8703,0.8513,0.8102,0.8234,0.8137,0.7708,0.8499,0.8903,0.8903,0.9627,0.9994,0.9994,0.9994,0.9994,0.9994,0.9994,0.9994,1.0038,1.0727,1.137,1.2057,1.2699,1.3434,1.4088,1.4088,1.4088,1.4088,1.4088,1.4088,1.4088,1.4088,1.4088,1.4088,1.4088,1.437,1.4776,1.5269,1.5741,1.6024,1.5763,1.5712,1.5515,1.4787,1.4605,1.4605,1.4605,1.4605,1.4605,1.4605,1.4371,1.4125,1.4117,1.4295,1.4456,1.4505,1.5013,1.5404,1.5391,1.541,1.541,1.541,1.542,1.5605,1.6085,1.6494,1.7169,1.8308,1.8839,1.9363,2.0009,2.0064,2.0107,2.0096,2.0096,2.0096,2.0096,1.9616,1.9366,1.9366,1.9366,1.9366,1.9366,1.9366,1.9616,0.8352,0.0,0.8606,0.8521,0.8542,0.8461,0.7962,0.7721,0.7568,0.7519,0.7493,0.7503,0.7503,0.7622,0.7645,0.7437,0.7574,0.7655,0.7512,0.7731,0.7802,0.7522,0.7925,0.8165,0.812,0.8335,0.0,0.8689,0.8703,0.8573,0.8321,0.8584,0.8644,0.8378,0.8998,0.9344,0.9344,0.9804,0.9994,0.9994,0.9994,0.9994,0.9999,1.0661,1.0821,1.0699,1.1794,1.2411,1.2717,1.3151,1.3649,1.4088,1.4088,1.4088,1.4088,1.4088,1.4088,1.4088,1.4088,1.4088,1.413,1.4412,1.4573,1.4866,1.5624,1.5963,1.6024,1.5763,1.5712,1.5515,1.4787,1.4605,1.4605,1.4605,1.4605,1.4605,1.4605,1.4736,1.4752,1.447,1.5007,1.5444,1.5314,1.5523,1.5663,1.543,1.541,1.541,1.541,1.541,1.5576,1.6046,1.6384,1.705,1.8319,1.8752,1.9275,2.0064,2.0118,2.0118,2.0118,2.0118,2.0118,2.0118,1.9954,1.9867,1.9867,1.9867,1.9867,1.9867,1.9867,1.9954,0.8612,0.8819,0.8839,0.8369,0.8392,0.8366,0.7808,0.7536,0.7449,0.7587,0.7384,0.7256,0.7479,0.7455,0.7403,0.7413,0.7512,0.7593,0.7603,0.7835,0.7935,0.7735,0.8037,0.8264,0.8203,0.8321,0.0,0.8685,0.8703,0.8678,0.8611,0.8772,0.8824,0.8774,0.9226,0.9501,0.9501,0.9846,0.9994,0.9994,1.0075,1.0108,1.0118,1.1079,1.1371,1.1177,1.2361,1.2922,1.3021,1.3343,1.3796,1.4242,1.4242,1.4309,1.4402,1.4402,1.4335,1.4229,1.4122,1.4088,1.4173,1.4573,1.4817,1.511,1.588,1.6211,1.6252,1.5953,1.5864,1.5705,1.5014,1.4795,1.4764,1.4637,1.4605,1.4605,1.4605,1.4787,1.4919,1.4653,1.5422,1.6023,1.5743,1.5859,1.583,1.5459,1.541,1.541,1.541,1.541,1.5518,1.5831,1.6157,1.6839,1.8081,1.8511,1.9105,2.0053,2.0118,2.0118,2.0118,2.0118,2.0118,2.0118,2.0118,2.0118,2.0118,2.0118,2.0118,2.0118,2.0118,2.0118,0.8583,0.8552,0.8459,0.7956,0.7819,0.775,0.7529,0.7327,0.7294,0.766,0.7418,0.7313,0.7883,0.7531,0.7285,0.7688,0.746,0.737,0.7759,0.784,0.7925,0.0,0.0,0.0,0.0,0.0,0.0,0.8703,0.0,0.8817,0.9004,0.8797,0.8778,0.9005,0.9243,0.9388,0.9432,0.9864,1.0043,1.0057,1.0222,1.0322,1.0341,1.1319,1.1617,1.1457,1.2553,1.3052,1.315,1.3474,1.3974,1.4543,1.4543,1.4716,1.5008,1.5008,1.4776,1.4482,1.4208,1.4095,1.4173,1.4615,1.5026,1.5477,1.5997,1.6409,1.6618,1.6309,1.6206,1.6047,1.5388,1.5197,1.5102,1.4716,1.4621,1.4605,1.4605,1.4605,1.4605,1.4641,1.5578,1.6217,1.5808,1.5957,1.5968,1.5478,1.541,1.541,1.541,1.541,1.541,1.541,1.5841,1.6567,1.7667,1.8134,1.887,1.9944,2.0063,2.0074,2.0074,2.0107,2.0118,2.0118,2.0118,2.0118,2.0118,2.0118,2.0118,2.0118,2.0118,2.0118,0.9174,0.9278,0.9246,0.834,0.8084,0.7962,0.7416,0.7228,0.709,0.67,0.6511,0.6421,0.627,0.6487,0.0,0.6802,0.7409,0.0,0.7821,0.8174,0.0,0.8144,0.0,0.8505,0.8411,0.8538,0.0,0.0,0.8944,0.9061,0.9428,0.9368,0.97,1.0459,1.0519,1.0814,1.1327,1.0939,1.0814,1.0943,1.0513,1.0398,1.0596,1.2106,1.2686,1.253,1.4307,1.4858,1.4491,1.4824,1.4908,1.485,1.485,1.4941,1.5008,1.5008,1.4776,1.4509,1.4436,1.4269,1.4208,1.4985,1.5311,1.5519,1.6319,1.6615,1.6618,1.6309,1.6206,1.6103,1.5666,1.5409,1.5165,1.507,1.4803,1.4605,1.4605,1.4605,1.4748,1.5177,1.6184,1.6865,1.6527,1.651,1.6299,1.5527,1.541,1.541,1.541,1.541,1.541,1.541,1.5926,1.653,1.722,1.7767,1.8376,1.9026,1.9408,1.9573,1.9573,1.9922,2.0118,2.0118,2.0118,2.0118,2.0118,2.0118,2.0118,2.0118,2.0118,2.0118,0.9593,0.9372,0.9069,0.8361,0.7837,0.7426,0.71,0.688,0.6735,0.6669,0.6255,0.6053,0.6369,0.6317,0.6351,0.0,0.0,0.0,0.7877,0.8212,0.8411,0.0,0.8562,0.0,0.8543,0.8722,0.893,0.0,0.9032,0.9164,0.9583,0.9897,1.0376,1.0977,1.1284,1.1628,1.2015,1.1777,1.1729,1.1826,1.1313,1.1103,1.1268,1.2672,1.3174,1.3055,1.4967,1.5504,1.5028,1.5277,1.5297,1.5202,1.5202,1.5231,1.5344,1.5344,1.5077,1.4716,1.4716,1.4442,1.425,1.511,1.5394,1.556,1.6443,1.6689,1.665,1.6451,1.6436,1.6357,1.5999,1.5769,1.5554,1.5253,1.503,1.4795,1.4637,1.4605,1.4856,1.5692,1.6568,1.7175,1.7032,1.6824,1.6463,1.5801,1.5537,1.541,1.541,1.541,1.541,1.541,1.5816,1.6384,1.7044,1.7509,1.8037,1.8654,1.8949,1.9102,1.9102,1.954,1.9791,1.9791,2.0009,2.0118,2.0118,2.0118,2.0118,2.0118,2.0118,2.0118,0.9869,0.9262,0.8587,0.8264,0.7519,0.687,0.6831,0.6616,0.6536,0.6987,0.0,0.6024,0.7048,0.6495,0.6157,0.6943,0.0,0.7141,0.7966,0.8139,0.8264,0.8656,0.8703,0.8713,0.8741,0.8916,0.9079,0.9305,0.9285,0.9397,0.9752,1.04,1.0911,1.1235,1.1929,1.2289,1.2324,1.2546,1.2647,1.2723,1.2327,1.2168,1.2252,1.3222,1.354,1.3396,1.5098,1.5545,1.5142,1.5351,1.5451,1.5451,1.5451,1.5611,1.5784,1.5784,1.5484,1.5062,1.5022,1.4646,1.4262,1.5041,1.5352,1.556,1.636,1.6656,1.6689,1.6689,1.6689,1.6626,1.6357,1.6238,1.6047,1.5404,1.5213,1.5086,1.4684,1.4713,1.5125,1.6202,1.6915,1.7353,1.7451,1.7103,1.666,1.6303,1.586,1.5537,1.5508,1.5449,1.541,1.541,1.5729,1.6238,1.6931,1.7286,1.7779,1.8469,1.8556,1.86,1.86,1.9069,1.9321,1.9321,1.9704,1.9954,2.002,2.002,2.0053,2.0118,2.0118,2.0085,0.9926,0.9678,0.9358,0.8425,0.8223,0.8032,0.7157,0.7208,0.0,0.0,0.6358,0.6172,0.5906,0.5878,0.6015,0.6313,0.6795,0.7365,0.802,0.8236,0.8434,0.0,0.8703,0.877,0.8949,0.8962,0.0,0.0,1.0096,1.0522,1.0737,1.0881,1.1455,1.2613,1.3349,1.3854,1.4046,1.3561,1.3505,1.3905,1.3292,1.3064,1.3256,1.413,1.4472,1.447,1.5378,1.5772,1.5678,1.5732,1.5752,1.5752,1.5752,1.5738,1.5784,1.5784,1.5611,1.5291,1.5095,1.4736,1.4489,1.4733,1.5068,1.5484,1.6038,1.6451,1.6689,1.6689,1.6689,1.6681,1.6618,1.6428,1.6103,1.5728,1.538,1.5086,1.4684,1.5338,1.6202,1.6915,1.7476,1.7861,1.7815,1.7533,1.7248,1.7109,1.673,1.6336,1.6026,1.5635,1.541,1.541,1.5912,1.6298,1.6438,1.6992,1.7403,1.7518,1.7901,1.8119,1.8119,1.8567,1.8818,1.8818,1.8895,1.9135,1.9507,1.9507,1.9715,2.0118,2.0118,1.99,0.9932,0.9486,0.9037,0.8689,0.82,0.7689,0.7326,0.0,0.0,0.0,0.6133,0.5909,0.604,0.5881,0.0,0.644,0.668,0.7125,0.7996,0.817,0.0,0.8666,0.8803,0.8911,0.0,0.9178,0.939,0.9587,1.0376,1.0915,1.0977,1.1671,1.2528,1.3519,1.3913,1.4229,1.4516,1.4361,1.4463,1.4842,1.4233,1.4028,1.4148,1.4538,1.4688,1.4742,1.5499,1.5784,1.5784,1.5784,1.5784,1.5784,1.5784,1.5784,1.5784,1.5784,1.5645,1.5351,1.5109,1.477,1.4469,1.443,1.4866,1.5477,1.5955,1.6368,1.6689,1.6689,1.6689,1.6689,1.6689,1.6562,1.6389,1.6039,1.5562,1.5225,1.5306,1.5991,1.6793,1.7364,1.7896,1.8176,1.7992,1.7652,1.738,1.7347,1.6971,1.6619,1.6436,1.6025,1.5664,1.5439,1.5941,1.6296,1.6296,1.6902,1.7306,1.7306,1.7497,1.7628,1.7628,1.8086,1.8338,1.8338,1.8567,1.8927,1.9387,1.9157,1.9288,1.9725,1.9475,1.9266,0.9932,0.9288,0.8801,0.8884,0.8164,0.7417,0.7507,0.7009,0.0,0.0,0.5985,0.5712,0.6341,0.6004,0.5853,0.0,0.6548,0.6798,0.7872,0.8049,0.8188,0.0,0.8892,0.0,0.9046,0.9385,0.0,0.9875,1.084,1.1413,1.1413,1.2571,1.3519,1.4088,1.4088,1.4255,1.4609,1.4888,1.5137,1.5491,1.5104,1.4927,1.4927,1.4927,1.4927,1.4968,1.5481,1.5772,1.5778,1.5758,1.5772,1.5784,1.5784,1.5784,1.5784,1.5784,1.5685,1.5438,1.5129,1.481,1.4556,1.4202,1.4622,1.536,1.5831,1.6245,1.6574,1.6697,1.6689,1.6689,1.6689,1.6689,1.6627,1.6348,1.5809,1.5548,1.614,1.668,1.7217,1.7672,1.8168,1.8414,1.8144,1.7801,1.7553,1.7619,1.7259,1.6941,1.6853,1.6562,1.6204,1.5694,1.6031,1.6296,1.6296,1.6902,1.7306,1.7306,1.7306,1.7306,1.7306,1.7649,1.7846,1.7846,1.8206,1.8622,1.9113,1.8829,1.8884,1.9255,1.8971,1.8785,0.9932,0.9741,0.9527,0.8799,0.868,0.8528,0.7756,0.0,0.0,0.6706,0.6248,0.5955,0.5966,0.5821,0.5823,0.618,0.0,0.6591,0.7664,0.784,0.8028,0.8628,0.0,0.0,0.9239,0.947,0.9932,1.0811,1.2089,1.2833,1.2833,1.3568,1.4046,1.4088,1.4088,1.4355,1.4961,1.4995,1.5244,1.5744,1.5724,1.5689,1.5689,1.5689,1.5689,1.5669,1.5505,1.5585,1.5758,1.5545,1.5591,1.5784,1.5784,1.5784,1.5784,1.5784,1.5764,1.5712,1.5202,1.4988,1.4874,1.4269,1.4412,1.4859,1.5311,1.5782,1.6252,1.6615,1.6689,1.6689,1.6689,1.6689,1.6644,1.65,1.6171,1.6144,1.6938,1.7364,1.7706,1.794,1.8245,1.8482,1.8448,1.8182,1.8051,1.8355,1.8113,1.7754,1.7373,1.7285,1.7039,1.6467,1.634,1.6296,1.6296,1.6902,1.7306,1.7306,1.7306,1.7306,1.7306,1.735,1.7372,1.7372,1.7415,1.7649,1.813,1.8512,1.8709,1.8763,1.9168,1.9113,0.9418,0.9069,0.8788,0.8646,0.8402,0.8167,0.8088,0.0,0.6841,0.6432,0.5996,0.5725,0.5827,0.5773,0.5807,0.6155,0.6097,0.6285,0.708,0.7329,0.0,0.8434,0.8817,0.0,0.0,0.0,1.033,1.1494,1.2485,1.3173,1.3652,1.3955,1.4088,1.4088,1.4088,1.4369,1.5001,1.5008,1.5257,1.5784,1.5784,1.5784,1.5784,1.5784,1.5784,1.5764,1.5524,1.5565,1.5758,1.5518,1.5565,1.5784,1.5784,1.5784,1.5784,1.5784,1.5784,1.5772,1.5364,1.5156,1.4941,1.4482,1.435,1.4454,1.5193,1.5741,1.617,1.6574,1.6689,1.6689,1.6689,1.6689,1.6677,1.6528,1.617,1.612,1.7262,1.7354,1.7329,1.775,1.8202,1.8337,1.7818,1.7862,1.8042,1.8178,1.8076,1.7949,1.7783,1.7539,1.7409,1.7351,1.6951,1.6786,1.7009,1.7435,1.7715,1.7715,1.7715,1.7584,1.7317,1.7306,1.7306,1.7306,1.7306,1.7518,1.801,1.8196,1.8425,1.8698,1.8884,1.8873,0.8928,0.8671,0.8473,0.8584,0.8269,0.8015,0.0,0.7471,0.6526,0.6256,0.586,0.56,0.5772,0.5781,0.5825,0.606,0.5979,0.6102,0.6702,0.7031,0.0,0.0,0.0,0.9028,0.0,1.0141,1.0987,1.1929,1.2833,1.3568,1.4088,1.4088,1.4088,1.4088,1.4088,1.4369,1.5001,1.5008,1.5257,1.5784,1.5784,1.5784,1.5784,1.5784,1.5785,1.5685,1.5391,1.5431,1.5678,1.5391,1.5491,1.5784,1.5784,1.5724,1.5705,1.5705,1.5705,1.5651,1.5271,1.5064,1.4948,1.4516,1.4255,1.425,1.5151,1.5609,1.5997,1.6533,1.6689,1.6689,1.6689,1.6853,1.6912,1.6566,1.6468,1.6679,1.7404,1.732,1.7251,1.7706,1.792,1.7886,1.751,1.7623,1.7837,1.7974,1.8008,1.8008,1.8008,1.7754,1.7626,1.7791,1.7554,1.7499,1.7701,1.8008,1.8206,1.8206,1.8086,1.7857,1.7508,1.7383,1.7306,1.7306,1.7448,1.766,1.801,1.8294,1.8512,1.8698,1.884,1.8982,0.8675,0.8797,0.8928,0.8677,0.8557,0.8477,0.8402,0.7471,0.6526,0.6256,0.5943,0.5715,0.5781,0.5863,0.5906,0.5913,0.5911,0.6102,0.6702,0.7031,0.0,0.0,0.0,0.8789,0.8971,1.0829,1.1972,1.2015,1.3307,1.4088,1.4088,1.4088,1.4088,1.4088,1.4088,1.4369,1.5001,1.5008,1.5257,1.5784,1.5784,1.5784,1.5784,1.5784,1.5671,1.5384,1.5142,1.5182,1.5378,1.5129,1.5311,1.5784,1.5784,1.5651,1.5398,1.5398,1.5398,1.5317,1.473,1.4716,1.4914,1.4282,1.4088,1.425,1.5151,1.5394,1.5602,1.6443,1.6689,1.6689,1.6689,1.7172,1.7506,1.6681,1.7411,1.8091,1.7378,1.7467,1.774,1.7974,1.7398,1.7148,1.7872,1.7554,1.7382,1.7906,1.8008,1.8008,1.8008,1.8008,1.7909,1.7625,1.807,1.8343,1.8191,1.8495,1.8676,1.8676,1.8261,1.801,1.7999,1.754,1.7306,1.7306,1.7759,1.7999,1.801,1.8919,1.9157,1.8698,1.9189,1.9638,0.7852,0.7798,0.7735,0.7616,0.7868,0.8088,0.7834,0.7169,0.6586,0.6492,0.6238,0.6053,0.6078,0.6124,0.6166,0.6103,0.5979,0.605,0.0,0.0,0.0,0.8207,0.9083,0.9624,0.0,0.0,1.2015,1.2015,1.3307,1.4088,1.4088,1.4088,1.4088,1.4088,1.4088,1.4369,1.5001,1.5008,1.5257,1.5784,1.5784,1.5784,1.5784,1.5784,1.5731,1.5665,1.5223,1.513,1.5378,1.5129,1.519,1.5531,1.5531,1.5478,1.5371,1.517,1.5224,1.5371,1.5184,1.505,1.4981,1.4794,1.4459,1.425,1.5151,1.5394,1.556,1.6443,1.6689,1.6689,1.6689,1.7212,1.7595,1.7225,1.7448,1.7752,1.7735,1.7226,1.6759,1.6837,1.6655,1.655,1.6802,1.7054,1.7373,1.7906,1.8008,1.8115,1.8364,1.8403,1.8681,1.9425,1.9672,1.9421,1.8594,1.8931,1.9189,1.9189,1.9047,1.8818,1.848,1.8327,1.825,1.825,1.8392,1.8469,1.848,1.9113,1.9681,2.0205,2.0369,2.0664,0.7278,0.7344,0.7345,0.7413,0.7697,0.7885,0.7576,0.6948,0.6412,0.6286,0.6311,0.6285,0.6083,0.6203,0.6267,0.6019,0.5857,0.5942,0.0,0.0,0.0,0.8529,0.0,0.0,0.0,1.1316,1.21,1.2357,1.3434,1.4088,1.4088,1.4088,1.4135,1.4249,1.4249,1.4482,1.5008,1.5115,1.5364,1.5784,1.5784,1.5784,1.5778,1.5718,1.5605,1.5478,1.5003,1.4897,0.0,1.5035,1.5182,1.5404,1.5518,1.5424,1.5224,1.5202,1.517,1.5217,1.5104,1.509,1.5115,1.4787,1.4634,1.4706,1.545,1.5775,1.5982,1.6566,1.6894,1.7098,1.7098,1.7732,1.8289,1.7782,1.8005,1.8301,1.8135,1.7527,1.7051,1.7104,1.6793,1.662,1.6906,1.7088,1.7373,1.7906,1.811,1.8276,1.8532,1.872,1.9139,2.0007,2.0294,2.0072,1.9312,1.9681,1.9888,1.9671,1.9486,1.9277,1.8971,1.8785,1.8687,1.8687,1.8862,1.9058,1.9244,1.9725,2.0369,2.1168,2.1168,2.1332,0.0,0.7198,0.7488,0.7802,0.7891,0.7819,0.7531,0.6828,0.0,0.5832,0.6207,0.6431,0.5943,0.6141,0.6241,0.5755,0.565,0.5848,0.0,0.7158,0.0,0.0,0.9206,0.0,1.0616,1.1501,1.2272,1.296,1.3695,1.4088,1.4088,1.4088,1.4208,1.4482,1.4509,1.4669,1.5035,1.5264,1.5538,1.5784,1.5784,1.5771,1.5744,1.5538,1.5257,1.4995,1.4669,1.4556,1.4569,1.485,1.5182,1.5424,1.5691,1.5471,1.5068,1.5277,1.5211,1.5001,1.4676,1.4937,1.5257,1.4439,1.472,1.5477,1.5955,1.6368,1.6689,1.6689,1.7139,1.7659,1.77,1.8607,1.93,1.8374,1.9013,1.9521,1.8569,1.8252,1.822,1.8405,1.7535,1.7044,1.7794,1.7476,1.7339,1.794,1.8313,1.8526,1.859,1.8962,1.9339,1.9687,2.0132,2.0359,2.0172,2.0598,2.0653,2.014,1.9693,1.9453,1.9517,1.908,1.8862,1.8925,1.9342,1.9747,2.0162,2.0642,2.1124,2.1538,2.1538,2.1559,0.5679,0.0,0.6678,0.6823,0.7388,0.7766,0.0,0.6794,0.6486,0.6393,0.0,0.6413,0.6336,0.6279,0.6307,0.6478,0.6266,0.6355,0.7161,0.0,0.0,0.939,0.9677,1.0119,1.0861,1.1595,1.2272,1.296,1.3695,1.4088,1.4088,1.4088,1.4122,1.4188,1.4402,1.477,1.5291,1.5364,1.5538,1.5784,1.5784,1.5712,1.5504,1.5658,1.5444,1.5008,1.4934,1.4863,1.4908,1.4981,1.5182,1.5404,1.5471,1.5418,1.5277,1.5169,1.5164,1.5284,1.5217,1.5277,1.5336,1.506,1.5142,1.5477,1.5955,1.6368,1.6689,1.6689,1.6812,1.7049,1.7578,1.8296,1.8876,1.8827,1.9321,1.9639,1.9128,1.836,1.7833,1.7886,1.6777,1.6158,1.7201,1.6915,1.6941,1.8202,1.8448,1.8728,1.9336,1.9503,1.9876,2.0599,2.0787,2.082,2.0707,2.0829,2.0653,2.014,2.0009,2.0107,2.0544,2.0446,2.0555,2.0904,2.1024,2.0948,2.0697,2.0839,2.096,2.1069,2.1069,2.1266,0.5082,0.5777,0.6487,0.6685,0.722,0.7595,0.7106,0.0,0.0,0.0,0.0,0.6622,0.6394,0.6487,0.6597,0.6535,0.6511,0.0,0.0,0.0,0.9318,0.9738,0.9928,1.0381,0.0,1.18,1.24,1.3434,1.387,1.4088,1.4088,1.4088,1.4148,1.4282,1.4436,1.4736,1.5197,1.5331,1.5538,1.5784,1.5784,1.5698,1.5591,1.5484,1.5257,1.5001,1.4823,1.4763,1.4783,1.505,1.5257,1.5411,1.5545,1.5518,1.5391,1.5371,1.5378,1.5398,1.5398,1.5354,1.5359,1.5614,1.5711,1.5782,1.6245,1.6533,1.6689,1.6689,1.7131,1.77,1.8055,1.8856,1.9592,1.9725,1.9913,2.0012,1.9813,1.9257,1.8721,1.8385,1.7696,1.7226,1.752,1.7304,1.7398,1.8371,1.865,1.899,1.9575,1.9818,2.0186,2.0876,2.0962,2.0968,2.0904,2.0894,2.0653,2.014,2.0118,2.0325,2.0872,2.0894,2.1124,2.1581,2.1811,2.18,2.1527,2.1343,2.1343,2.1516,2.1102,2.1036,0.487,0.5764,0.6634,0.6884,0.7214,0.741,0.7066,0.0,0.0,0.0,0.0,0.0,0.6481,0.6764,0.0,0.6564,0.0,0.0,0.8595,0.911,0.9516,0.9947,1.0081,0.0,1.1886,1.21,1.2705,1.4004,1.4088,1.4088,1.4088,1.4088,1.4202,1.4449,1.4456,1.4596,1.4941,1.5184,1.5451,1.5698,1.5745,1.5671,1.5571,1.5211,1.5001,1.4867,1.4656,1.4589,1.4629,1.517,1.5424,1.5484,1.5732,1.5678,1.5491,1.5738,1.5671,1.5464,1.5464,1.5386,1.5402,1.6074,1.6208,1.617,1.6574,1.6689,1.673,1.6812,1.7651,1.8576,1.8776,1.9648,2.0479,2.0566,2.0551,2.0478,2.0405,2.026,1.9932,1.9285,1.9008,1.8731,1.8245,1.8042,1.811,1.8617,1.8975,1.9308,1.9638,1.9979,2.0325,2.0751,2.0814,2.0855,2.0784,2.0785,2.0577,2.014,2.0118,2.0358,2.0982,2.1004,2.1233,2.1691,2.2106,2.2248,2.2095,2.1756,2.1723,2.1928,2.1134,2.0785,0.5179,0.6113,0.6877,0.67,0.7082,0.741,0.7066,0.0,0.0,0.0,0.0,0.0,0.0,0.7134,0.7144,0.0,0.0,0.8354,0.0,0.0,0.9686,0.9966,0.0,1.1154,1.1929,1.2528,1.3222,1.4046,1.4088,1.4088,1.4088,1.4088,1.4108,1.4155,1.4155,1.4295,1.4583,1.4883,1.5102,1.5149,1.5344,1.5204,1.4692,1.5144,1.4923,1.4249,1.4703,1.4941,1.4968,1.5257,1.5538,1.5718,1.5764,1.5751,1.5718,1.5764,1.5751,1.5718,1.5718,1.5647,1.5639,1.6146,1.6208,1.617,1.6574,1.6689,1.6812,1.7375,1.7691,1.8095,1.9164,1.9599,1.9883,2.0489,2.0793,2.086,2.0503,2.0341,2.0128,1.9624,1.8654,1.8114,1.8798,1.825,1.8114,1.9274,1.9473,1.9638,1.9976,2.0074,2.0151,2.0227,2.0227,2.0237,2.0227,2.0216,2.0194,2.0118,2.0118,2.0511,2.1439,2.1472,2.1712,2.2193,2.228,2.1909,2.1124,2.1428,2.121,2.0445,2.0292,2.0216,0.4933,0.5593,0.6194,0.6691,0.7417,0.7946,0.7782,0.7528,0.0,0.0,0.0,0.0,0.0,0.0,0.771,0.8374,0.0,0.8751,0.9244,0.9817,1.0144,0.0,0.0,1.1671,1.1972,1.2613,1.3307,1.4046,1.4088,1.4088,1.4088,1.4088,1.4088,1.4088,1.4088,1.4155,1.4282,1.4576,1.4883,1.5197,1.5331,1.5251,1.4997,1.511,1.4856,1.4342,1.4821,1.5008,1.5042,1.5444,1.5712,1.5784,1.5784,1.5784,1.5784,1.5784,1.5784,1.5758,1.5651,1.5769,1.6036,1.6424,1.6764,1.7017,1.7172,1.7497,1.7853,1.8135,1.8256,1.8456,1.9362,1.9883,2.0206,2.0527,2.0843,2.0953,2.0488,2.0533,2.0416,1.9734,1.8965,1.8596,1.9031,1.8563,1.8462,1.944,1.9605,1.9714,2.0053,2.0118,2.0118,2.0118,2.0118,2.0118,2.0118,2.0118,2.0118,2.0118,2.0358,2.0729,2.1211,2.1701,2.1964,2.1931,2.2182,2.1964,2.1288,2.1244,2.0959,2.0522,2.0238,2.0118,0.4737,0.5193,0.5745,0.6759,0.7564,0.8129,0.8343,0.8143,0.0,0.0,0.0,0.0,0.0,0.8463,0.0,0.8678,0.8784,0.9034,0.9531,1.0278,1.0581,1.0062,1.1327,1.2229,1.218,1.2833,1.3519,1.4208,1.4166,1.4088,1.4088,1.4088,1.4088,1.4088,1.4088,1.4088,1.4088,1.4376,1.4743,1.519,1.5331,1.5324,1.519,1.5104,1.4863,1.4543,1.4903,1.5109,1.5149,1.5618,1.5784,1.5784,1.5784,1.5784,1.5784,1.5784,1.5784,1.5798,1.5711,1.6032,1.6551,1.6981,1.7481,1.7934,1.7934,1.8296,1.8736,1.8856,1.8895,1.9054,1.9687,2.0206,2.0605,2.0605,2.0885,2.1007,2.0509,2.0776,2.0809,1.9915,1.9531,1.9366,1.9328,1.9008,1.8985,1.9605,1.9714,1.9813,2.0085,2.0118,2.0118,2.0118,2.0118,2.0118,2.0118,2.0118,2.0118,2.0118,2.0489,2.0774,2.0883,2.1472,2.1691,2.1428,2.1898,2.198,2.1614,2.1335,2.1193,2.1196,2.0446,2.0118,0.4899,0.5514,0.6206,0.6912,0.7089,0.7336,0.8194,0.8143,0.0,0.8631,0.0,0.0,0.0,0.9518,0.9317,0.8774,0.903,0.9324,0.9569,1.0404,1.075,1.0081,1.1714,1.2863,1.2681,1.347,1.4208,1.4615,1.4328,1.4088,1.4088,1.4088,1.4088,1.4088,1.4088,1.4088,1.4088,1.4376,1.4543,1.4589,1.5137,1.511,1.4603,1.5124,1.5057,1.4506,1.5117,1.5364,1.5391,1.5698,1.5784,1.5784,1.5784,1.5784,1.5784,1.5784,1.5784,1.5872,1.6372,1.6788,1.7224,1.7731,1.823,1.8625,1.8625,1.8656,1.8816,1.9362,1.9529,1.9687,2.0362,2.0566,2.0605,2.0605,2.0895,2.1072,2.0581,2.1115,2.1364,2.0345,2.0186,2.016,2.0052,1.9747,1.9648,2.0009,2.0042,2.0085,2.0118,2.0118,2.0118,2.0118,2.0118,2.0118,2.0118,2.0118,2.0118,2.0118,2.0151,2.0402,2.0872,2.05,2.0467,2.0938,2.143,2.1672,2.1697,2.1904,2.2041,2.2066,2.072,2.0118,0.4621,0.5325,0.6099,0.6893,0.7462,0.0,0.0,0.8838,0.9138,0.9539,0.9853,0.0,0.0,0.0,0.9851,0.9669,0.9465,0.9683,1.0746,1.1556,1.1955,1.1697,1.336,1.4174,1.3402,1.4013,1.4531,1.4699,1.4334,1.4088,1.4088,1.4088,1.4088,1.4088,1.4088,1.4088,1.4088,1.4556,1.4796,1.4803,1.5204,1.5277,1.507,1.5297,1.5177,1.4816,1.5224,1.5297,1.5164,1.5631,1.5678,1.5578,1.5711,1.5784,1.5784,1.5784,1.5784,1.5893,1.6707,1.7251,1.7744,1.8538,1.9158,1.9661,1.9839,1.9893,1.9854,1.9638,1.9883,2.0284,2.0518,2.0605,2.0605,2.0605,2.0954,2.1179,2.0632,2.1304,2.1739,2.0864,2.0475,2.0356,2.0553,2.0039,1.9704,2.0042,2.0118,2.0118,2.0118,2.0118,2.0118,2.0118,2.0118,2.0118,2.0118,2.0118,2.0118,2.0118,2.0118,2.0194,2.038,2.0205,2.0205,2.0413,2.1188,2.1598,2.1652,2.2457,2.2162,2.0874,2.0347,2.0118,0.4595,0.5184,0.5935,0.6978,0.0,0.0,0.9022,0.9532,0.9927,1.0314,1.0555,1.0712,1.0663,0.0,0.0,0.0,1.0212,1.0408,1.1832,1.2589,1.2972,1.2887,1.4371,1.5054,1.4203,1.4475,1.4776,1.4901,1.4412,1.4088,1.4088,1.4088,1.4088,1.4088,1.4088,1.4088,1.4088,1.4713,1.5008,1.5015,1.5351,1.5484,1.5398,1.5491,1.5378,1.5156,1.5311,1.5284,1.513,1.5531,1.5631,1.5551,1.5752,1.5784,1.5784,1.5784,1.5927,1.6217,1.7224,1.7787,1.8233,1.9409,2.0026,2.0363,2.0527,2.0605,2.0489,2.004,2.0245,2.0605,2.0605,2.0605,2.0605,2.0605,2.0867,2.1018,2.0614,2.1267,2.1799,2.1329,2.1041,2.0803,2.0674,2.016,1.9846,2.0085,2.0118,2.0118,2.0118,2.0118,2.0118,2.0118,2.0118,2.0118,2.0118,2.0118,2.0118,2.0118,2.0118,2.0118,2.0118,2.0118,2.0118,2.0118,2.0761,2.1134,2.1134,2.2241,2.2534,2.2088,2.072,2.0118,0.4945,0.5202,0.5755,0.7154,0.0,0.0,0.9676,1.0127,1.0294,1.0882,1.1002,1.1015,1.102,1.0754,0.0,1.1214,1.1295,1.163,1.256,1.3275,1.362,1.3353,1.4545,1.5304,1.5039,1.4852,1.4901,1.5352,1.458,1.4088,1.4088,1.4088,1.4088,1.4088,1.4088,1.4088,1.4088,1.4713,1.5008,1.5022,1.5551,1.5678,1.5411,1.5698,1.5671,1.5398,1.5398,1.5391,1.5391,1.5391,1.5565,1.5778,1.5784,1.5784,1.5832,1.5832,1.6163,1.677,1.8017,1.8403,1.8715,2.0381,2.081,2.0625,2.0605,2.0605,2.0605,2.0605,2.0605,2.0605,2.0605,2.0605,2.0605,2.0605,2.0605,2.0605,2.0605,2.1021,2.1482,2.1769,2.195,2.1658,2.0347,2.0118,2.0118,2.0118,2.0118,2.0118,2.014,2.0096,2.0118,2.0118,2.0118,2.0118,2.0118,2.0118,2.0118,2.0118,2.0118,2.0118,2.0118,2.0118,2.0118,2.0118,2.0118,2.0118,2.0118,2.1112,2.3271,2.6343,2.2076,2.0118,0.4336,0.5395,0.0,0.705,0.0,0.0,0.0,1.0588,0.0,0.0,1.1911,1.1892,1.1919,1.1479,0.0,1.1839,1.1822,1.2239,1.3668,1.4294,1.4796,1.5228,1.5899,1.6147,1.5824,1.5401,1.5269,1.5394,1.458,1.4088,1.4088,1.4088,1.4088,1.4088,1.4088,1.4182,1.4389,1.477,1.5109,1.5277,1.5651,1.5738,1.5705,1.5744,1.5671,1.5398,1.5398,1.5164,1.4796,1.5003,1.5264,1.5545,1.5752,1.6015,1.6346,1.6346,1.6998,1.8056,1.9239,1.9813,2.0269,2.1939,2.2389,2.2148,2.0967,2.0605,2.0605,2.0605,2.0605,2.0605,2.0605,2.0605,2.0605,2.0605,2.0605,2.0605,2.0605,2.0712,2.1031,2.1683,2.1769,2.1614,2.1221,2.0565,2.0118,2.0118,2.0118,2.0598,2.1939,2.0947,2.0118,2.0118,2.0118,2.0118,2.0118,2.0118,2.0118,2.0118,2.0118,2.0118,2.0118,2.0118,2.0118,2.0118,2.0118,2.0118,2.0118,2.0401,2.1041,2.1964,2.0698,2.0118,0.5265,0.6225,0.0,0.7902,0.891,0.9955,1.0723,0.0,0.0,0.0,1.2211,1.2164,1.2278,1.1911,0.0,1.2337,1.2594,1.314,1.4475,1.5107,1.565,1.6286,1.6533,1.6615,1.6368,1.5775,1.5484,1.565,1.4873,1.4412,1.4622,1.4454,1.4328,1.4328,1.4166,1.4168,1.4349,1.4756,1.5095,1.5231,1.5631,1.5784,1.5784,1.5784,1.5671,1.5384,1.515,1.4917,1.471,1.4934,1.5204,1.5585,1.5758,1.6116,1.6629,1.6904,1.7738,1.888,2.0178,2.0728,2.1051,2.2589,2.3091,2.2779,2.1124,2.0605,2.0605,2.0605,2.0605,2.0605,2.0605,2.0605,2.0605,2.0605,2.0605,2.0605,2.0605,2.0605,2.0915,2.2063,2.2213,2.2149,2.2149,2.1001,2.0118,2.0118,2.0761,2.1666,2.2848,2.1296,2.0118,2.0118,2.0118,2.0118,2.0118,2.0118,2.0118,2.0118,2.0118,2.0118,2.0118,2.0118,2.0118,2.0118,2.0118,2.0118,2.0118,2.0118,2.05,2.1241,2.1241,2.1241,0.695,0.7321,0.0,0.9228,0.9499,0.0,1.1082,1.1677,1.202,1.2245,0.0,1.2027,1.2258,1.2084,1.2127,1.269,1.3406,1.4177,1.4915,1.5639,1.6255,1.6648,1.6689,1.6689,1.6689,1.594,1.565,1.6087,1.5284,1.4943,1.5311,1.4943,1.4692,1.4692,1.4334,1.4186,1.4206,1.4744,1.5026,1.5015,1.5498,1.5752,1.5752,1.5731,1.5618,1.5284,1.4756,1.4669,1.4975,1.5028,1.5311,1.5792,1.5818,1.6204,1.677,1.7552,1.8465,1.9559,2.0899,2.1275,2.1392,2.2696,2.3091,2.2726,2.0844,2.0401,2.0605,2.0605,2.0605,2.0605,2.0605,2.0605,2.0605,2.0605,2.0605,2.0605,2.0605,2.0722,2.1252,2.274,2.3001,2.3001,2.3001,2.1525,2.0369,2.0369,2.1887,2.3001,2.3001,2.1296,2.0118,2.0118,2.0118,2.0118,2.0118,2.0271,2.0369,2.0369,2.0205,2.0194,2.0369,2.0172,2.0118,2.0118,2.027,2.0358,2.0369,2.0369,2.1263,2.3001,2.3001,2.3001,0.5914,0.7007,0.0,0.0,0.9942,1.1016,1.1335,1.183,1.2225,1.2285,1.2251,1.2225,1.2291,1.2251,1.2325,1.2723,1.3442,1.4221,1.4918,1.5669,1.63,1.6657,1.6689,1.6689,1.6689,1.6245,1.6004,1.6087,1.5567,1.5144,1.4859,1.4734,1.4692,1.4692,1.4615,1.4691,1.4976,1.5108,1.5075,1.5008,1.5135,1.515,1.5157,1.5384,1.5204,1.4703,1.4576,1.4556,1.4649,1.511,1.5378,1.5558,1.6162,1.6723,1.7279,1.8465,1.9613,2.0709,2.1373,2.205,2.2696,2.3003,2.3091,2.2414,1.8674,1.8966,2.0605,2.0605,2.0605,2.0605,2.0605,2.0605,2.0605,2.0605,2.0605,2.0605,2.0605,2.1596,2.258,2.2927,2.3001,2.3001,2.3001,2.2663,2.239,2.239,2.2739,2.3001,2.3001,2.1296,2.0118,2.0118,2.0118,2.0118,2.0118,2.1492,2.239,2.239,2.0936,2.0783,2.2324,2.0903,2.0118,2.0118,2.1639,2.2439,2.239,2.239,2.2597,2.3001,2.3001,2.3001,0.6286,0.0,0.0,0.9389,0.0,1.1389,1.1389,1.1877,1.2305,1.2305,1.2305,1.2305,1.2305,1.2305,1.2351,1.2549,1.3345,1.4156,1.468,1.5566,1.6288,1.6673,1.6689,1.6689,1.6689,1.6335,1.617,1.6368,1.5989,1.5699,1.565,1.545,1.5367,1.5367,1.5151,1.5105,1.5269,1.5212,1.5149,1.5103,1.503,1.4934,1.4756,1.491,1.481,1.4522,1.4522,1.4603,1.477,1.5217,1.5478,1.5665,1.6331,1.6911,1.7512,1.9101,2.0121,2.0817,2.1971,2.2687,2.3091,2.3091,2.2578,2.1482,1.9259,1.952,2.0605,2.0605,2.0605,2.0605,2.0605,2.0605,2.0605,2.0605,2.0605,2.0799,2.1596,2.2392,2.3001,2.3001,2.3001,2.3001,2.3001,2.3001,2.3001,2.3001,2.3001,2.3001,2.3001,2.1296,2.0118,2.0118,2.0118,2.0118,2.0118,2.1863,2.3001,2.3001,2.2062,2.1928,2.2957,2.204,2.1481,2.1481,2.2514,2.3029,2.3001,2.3001,2.3001,2.3001,2.3001,2.3001,0.674,0.0,0.8671,1.0119,1.0922,0.0,1.1429,1.1904,1.2305,1.2305,1.2305,1.2305,1.2305,1.2305,1.2335,1.2378,1.3213,1.4016,1.4538,1.5433,1.6203,1.664,1.6689,1.6689,1.6689,1.6409,1.6335,1.6648,1.6409,1.6335,1.6574,1.6294,1.6087,1.6087,1.5741,1.5526,1.5526,1.5418,1.5254,1.5126,1.4909,1.4683,1.4442,1.4442,1.4442,1.4449,1.4496,1.4663,1.4955,1.5204,1.5491,1.5799,1.6411,1.7001,1.7692,1.9559,2.0348,2.0781,2.252,2.3091,2.3091,2.3091,2.1973,2.0605,2.0605,2.0605,2.0605,2.0605,2.0605,2.0605,2.0605,2.0605,2.0605,2.0605,2.0799,2.1367,2.2692,2.3001,2.3001,2.3001,2.3001,2.3001,2.3001,2.3001,2.3001,2.3001,2.3001,2.3001,2.3001,2.159,2.0478,2.0151,2.0401,2.0609,2.0609,2.2095,2.3001,2.3001,2.3001,2.3001,2.3001,2.3001,2.3001,2.3001,2.3001,2.3001,2.3001,2.3001,2.3001,2.3001,2.3001,2.3001,0.5574,0.0,0.8667,0.0,1.0615,1.1229,0.0,0.0,1.2305,0.0,1.2305,1.2305,1.2305,1.2305,1.2415,1.2753,1.3227,1.3888,1.4873,1.5451,1.6008,1.6618,1.6689,1.6689,1.6689,1.6648,1.6656,1.6689,1.6648,1.6492,1.6211,1.6128,1.6087,1.6087,1.6046,1.6004,1.6004,1.6008,1.5558,1.4755,1.4387,1.4182,1.4142,1.4142,1.4142,1.4162,1.4409,1.4543,1.4603,1.4903,1.519,1.5544,1.6511,1.7445,1.8434,1.9774,2.0817,2.1659,2.2731,2.3091,2.3091,2.3091,2.1973,2.0605,2.0605,2.0605,2.0605,2.0605,2.0605,2.0605,2.0605,2.0605,2.0605,2.0605,2.1662,2.2729,2.2964,2.3001,2.3001,2.3001,2.3001,2.3001,2.3001,2.3001,2.3001,2.3001,2.3001,2.3001,2.3001,2.2772,2.1985,2.0292,2.159,2.2619,2.2619,2.2848,2.3001,2.3001,2.3001,2.3001,2.3001,2.3001,2.3001,2.3001,2.3001,2.3001,2.3001,2.3001,2.3001,2.3001,2.3001,2.3001,0.6203,0.7618,0.8991,0.0,1.0681,1.1116,1.1302,0.0,1.2104,1.2271,1.2305,1.2305,1.2305,1.2305,1.2378,1.2526,1.304,1.3728,1.4648,1.5272,1.5888,1.6634,1.6689,1.6689,1.6689,1.6689,1.6689,1.6689,1.6689,1.6615,1.6451,1.6451,1.6451,1.6451,1.6451,1.6451,1.6451,1.6211,1.5624,1.4692,1.4531,1.4328,1.4088,1.4088,1.4088,1.4102,1.4396,1.4522,1.4556,1.5017,1.546,1.5865,1.6771,1.7526,1.8257,1.9737,2.0192,2.0357,2.2422,2.3091,2.3091,2.3091,2.1973,2.0605,2.0605,2.0605,2.0605,2.0605,2.0605,2.0605,2.0605,2.0605,2.0605,2.0605,2.1825,2.2729,2.1863,2.2354,2.3001,2.3001,2.3001,2.3001,2.3001,2.3001,2.3001,2.3001,2.3001,2.3001,2.3001,2.3001,2.2684,2.1808,2.2499,2.3001,2.3001,2.3001,2.3001,2.3001,2.3001,2.3001,2.3001,2.3001,2.3001,2.3001,2.3001,2.3001,2.3001,2.3001,2.3001,2.3001,2.3001,2.3001,0.6731,0.7823,0.8723,1.0239,1.0754,1.0955,0.0,0.0,1.194,0.0,1.2251,1.2305,1.2305,1.2305,1.2342,1.2452,1.2977,1.3679,1.4539,1.5207,1.5887,1.6601,1.6689,1.6689,1.6689,1.6689,1.6689,1.6689,1.6689,1.6689,1.6689,1.6689,1.6689,1.6689,1.6689,1.6689,1.6689,1.6294,1.5756,1.5026,1.4817,1.4531,1.425,1.413,1.4088,1.4095,1.4315,1.4409,1.4442,1.4966,1.5458,1.5955,1.6757,1.7476,1.8141,1.9459,1.992,2.0116,2.1887,2.273,2.3091,2.3091,2.1973,2.0605,2.0605,2.0605,2.0605,2.0605,2.0605,2.0605,2.0605,2.0905,2.1213,2.1213,2.2128,2.2665,2.1482,2.2166,2.3001,2.3001,2.3001,2.3001,2.3001,2.3001,2.3001,2.3001,2.3001,2.3001,2.3001,2.3001,2.3001,2.3001,2.3001,2.3001,2.3001,2.3001,2.3001,2.3001,2.3001,2.3001,2.3001,2.3001,2.3001,2.3001,2.3001,2.3001,2.3001,2.3001,2.3001,2.3001,2.3001,2.3001,0.6324,0.6738,0.7275,0.9933,1.06,0.0,0.0,0.0,1.1757,1.1906,1.2111,1.2305,1.2305,1.2305,1.2415,1.2826,1.3207,1.3852,1.4904,1.5428,1.592,1.661,1.6689,1.6689,1.6689,1.6689,1.6689,1.6689,1.6689,1.6689,1.6689,1.6689,1.6689,1.6689,1.6689,1.6689,1.6689,1.6294,1.6087,1.6004,1.5117,1.4699,1.465,1.4292,1.4088,1.4088,1.4102,1.4108,1.4151,1.4551,1.4943,1.5345,1.619,1.7355,1.8584,1.879,2.0574,2.2684,2.122,2.1768,2.3091,2.3091,2.1973,2.0605,2.0605,2.0605,2.0605,2.0605,2.0605,2.0605,2.0605,2.1749,2.2889,2.2889,2.2927,2.2964,2.2889,2.2927,2.3001,2.3001,2.3001,2.3001,2.3001,2.3001,2.3001,2.3001,2.3001,2.3001,2.3001,2.3001,2.3001,2.3001,2.3001,2.3001,2.3001,2.3001,2.3001,2.3001,2.3001,2.3001,2.3001,2.3001,2.3001,2.3001,2.3001,2.3001,2.3001,2.3001,2.3001,2.3001,2.3001,2.3001,0.6474,0.7161,0.0,0.9787,1.0117,1.0198,1.0861,1.1122,1.1316,1.1536,1.1817,1.2024,1.2024,1.2178,1.2342,1.2489,1.3083,1.3793,1.4587,1.5289,1.5944,1.661,1.6689,1.6689,1.6689,1.6689,1.6689,1.6689,1.6689,1.6689,1.6689,1.6689,1.6689,1.6689,1.6689,1.6689,1.6689,1.6574,1.6368,1.6087,1.5748,1.545,1.5144,1.4699,1.4496,1.4447,1.4208,1.425,1.4503,1.4873,1.5433,1.6095,1.6675,1.7654,1.8718,1.8764,1.9957,2.1553,2.2051,2.1894,2.1484,2.1484,2.1104,2.0605,2.0605,2.0605,2.0605,2.0605,2.0605,2.0605,2.0605,2.1021,2.1482,2.1482,2.2241,2.3001,2.3001,2.3001,2.3001,2.3001,2.3001,2.3001,2.3001,2.3001,2.3001,2.3001,2.3001,2.3001,2.3001,2.3001,2.3001,2.3001,2.3001,2.3001,2.3001,2.3001,2.3001,2.3001,2.3001,2.3001,2.3001,2.3001,2.3001,2.3001,2.3001,2.3001,2.3001,2.3001,2.3001,2.3001,2.3001,2.3001,0.6422,0.7148,0.0,0.0,0.0,0.9619,1.0533,0.0,1.0808,1.1202,1.1597,1.1906,1.1906,1.2104,1.2305,1.2305,1.2973,1.3718,1.4425,1.5173,1.5944,1.661,1.6689,1.6689,1.6689,1.6689,1.6689,1.6689,1.6689,1.6689,1.6689,1.6689,1.6689,1.6689,1.6689,1.6689,1.6689,1.6689,1.6574,1.6294,1.617,1.5955,1.5609,1.5151,1.4943,1.4901,1.4657,1.4538,1.4552,1.4873,1.5426,1.6019,1.6394,1.7177,1.8084,1.8084,1.9487,2.1514,2.208,2.1523,2.0605,2.0605,2.0605,2.0605,2.0605,2.0605,2.0605,2.0605,2.0605,2.0605,2.0605,2.0982,2.1405,2.1405,2.2203,2.3001,2.3001,2.3001,2.3001,2.3001,2.3001,2.3001,2.3001,2.3001,2.3001,2.3001,2.3001,2.3001,2.3001,2.3001,2.3001,2.3001,2.3001,2.3001,2.3001,2.3001,2.3001,2.3001,2.3001,2.3001,2.3001,2.3001,2.3001,2.3001,2.3001,2.3001,2.3001,2.3001,2.3001,2.3001,2.3001,2.3001,0.0,0.0,0.0,0.0,0.0,0.0,1.0628,0.0,1.0247,1.0855,1.1464,1.1859,1.1886,1.2091,1.2291,1.2298,1.2973,1.3711,1.4372,1.5204,1.5936,1.6594,1.6689,1.6689,1.6689,1.6689,1.6689,1.6689,1.6689,1.6689,1.6689,1.6689,1.6689,1.6689,1.6689,1.6689,1.6689,1.6689,1.6689,1.6689,1.6294,1.6128,1.6087,1.5609,1.5436,1.5436,1.5394,1.4901,1.4173,1.4573,1.4817,1.5033,1.5318,1.5899,1.6607,1.6607,1.9353,2.2779,2.1143,2.0605,2.0605,2.0605,2.0605,2.0605,2.0605,2.0605,2.0605,2.0605,2.0605,2.0605,2.0605,2.1776,2.3001,2.3001,2.3001,2.3001,2.3001,2.3001,2.3001,2.3001,2.3001,2.3001,2.3001,2.3001,2.3001,2.3001,2.3001,2.3001,2.3001,2.3001,2.3001,2.3001,2.3001,2.3001,2.3001,2.3001,2.3001,2.3001,2.3001,2.3001,2.3001,2.3001,2.3001,2.3001,2.3001,2.3001,2.3001,2.3001,2.3001,2.3001,2.3001,2.3001,0.676,0.0,0.0,0.0,0.0,0.0,0.0,0.0,0.9459,1.0506,1.0635,1.0795,1.143,1.179,1.2166,1.2675,1.3156,1.3638,1.4064,1.505,1.584,1.6301,1.6539,1.6689,1.6689,1.6689,1.6689,0.0,1.6689,1.6689,1.6689,1.6689,1.6689,1.6689,1.6689,1.6689,1.6689,1.6689,1.6689,1.6689,1.6574,1.6533,1.6533,1.6121,1.5914,1.5873,1.5567,1.5269,1.5068,1.5151,1.5228,1.5318,1.5352,1.5151,1.4831,1.4831,1.7549,2.1211,2.0772,2.0605,2.0605,2.0605,2.0605,2.0605,2.0605,2.0605,2.0605,2.0605,2.0605,2.0605,2.0605,2.1776,2.3001,2.3001,2.3001,2.3001,2.3001,2.3001,2.3001,2.3001,2.3001,2.3001,2.3001,2.3001,2.3001,2.3001,2.3001,2.3001,2.3001,2.3001,2.3001,2.3001,2.3001,2.3001,2.3001,2.3001,2.3001,2.3001,2.3001,2.3001,2.3001,2.3001,2.3001,2.3001,2.3001,2.3001,2.3001,2.3001,2.3001,2.3001,2.3001,2.3001,0.7033,0.0,0.0,0.0,0.0,0.0,0.9325,0.9045,0.8998,0.0,1.0452,1.0534,1.1255,1.167,1.2031,1.2423,1.307,1.3675,1.4171,1.4927,1.5654,1.6119,1.6516,1.6689,1.6689,1.6689,1.6689,1.6689,1.6689,1.6689,1.6689,1.6689,1.6689,1.6689,1.6689,1.6689,1.6689,1.6689,1.6689,1.6689,1.6689,1.6689,1.6689,1.6451,1.6368,1.6335,1.6072,1.594,1.5899,1.556,1.5193,1.4866,1.4866,1.4538,1.4173,1.4915,1.7464,2.0605,2.0605,2.0605,2.0605,2.0605,2.0605,2.0605,2.0605,2.0605,2.0605,2.0605,2.0605,2.075,2.1443,2.2317,2.3001,2.3001,2.3001,2.3001,2.3001,2.3001,2.3001,2.3001,2.3001,2.3001,2.3001,2.3001,2.3001,2.3001,2.3001,2.3001,2.3001,2.3001,2.3001,2.3001,2.3001,2.3001,2.3001,2.3001,2.3001,2.3001,2.3001,2.3001,2.3001,2.3001,2.3001,2.3001,2.3001,2.3001,2.3001,2.3001,2.3001,2.3001,2.3001,2.3001,0.7248,0.7949,0.0,0.0,0.8422,0.0,0.9004,0.8744,0.8797,0.0,1.0466,1.0646,1.1222,1.1597,1.1806,1.1876,1.2734,1.3623,1.4387,1.4843,1.5358,1.6016,1.6436,1.6634,1.6634,1.6673,1.6689,1.6689,1.6689,1.6689,1.6689,1.6689,1.6689,1.6689,1.6689,1.6689,1.6689,1.6689,1.6689,1.6689,1.6689,1.6689,1.6689,1.6689,1.6697,1.6656,1.6697,1.6648,1.6484,1.5733,1.495,1.4173,1.413,1.4088,1.4292,1.5824,1.8207,2.0605,2.0605,2.0605,2.0605,2.0605,2.0605,2.0605,2.0605,2.0605,2.0605,2.0605,2.0605,2.0982,2.258,2.3001,2.3001,2.3001,2.3001,2.3056,2.3274,2.3318,2.3318,2.3318,2.3154,2.3067,2.3285,2.3143,2.3001,2.3001,2.3187,2.3318,2.3318,2.3132,2.3001,2.3001,2.3001,2.3001,2.3001,2.3001,2.3001,2.3001,2.3001,2.3001,2.3001,2.3001,2.3001,2.3001,2.3001,2.3001,2.3001,2.3001,2.3001,2.3001,2.3001,2.3001,0.8147,0.8308,0.8469,0.8415,0.0,0.0,0.8571,0.8482,0.8683,0.0,0.9666,0.979,1.0882,1.1122,1.1263,1.1603,1.2241,1.2928,1.3616,1.4581,1.5233,1.5372,1.5928,1.6309,1.6309,1.6523,1.6689,1.6689,1.6689,1.6689,1.6689,1.6689,1.6689,1.6689,1.6689,1.6689,1.6689,1.6689,1.6689,1.6689,1.6689,1.6689,1.6689,1.6689,1.6533,1.6252,1.6574,1.6312,1.5643,1.5477,1.5151,1.479,1.4292,1.4088,1.413,1.4461,1.7131,2.0605,2.0605,2.0605,2.0605,2.0605,2.0605,2.0605,2.0605,2.0605,2.0605,2.0605,2.0605,2.0982,2.258,2.3001,2.3001,2.3001,2.3001,2.3427,2.5,2.5338,2.5338,2.5338,2.4071,2.3504,2.5065,2.4039,2.3001,2.3001,2.4334,2.5338,2.5338,2.3973,2.3001,2.3001,2.3001,2.3001,2.3001,2.3001,2.3001,2.3001,2.3001,2.3001,2.3001,2.3001,2.3001,2.3001,2.3001,2.3001,2.3001,2.3001,2.3001,2.3001,2.3001,2.3001,0.8442,0.8502,0.8591,0.8591,0.0,0.0,0.0,0.8697,0.8884,0.9943,0.9653,0.957,1.0775,1.0748,1.0719,1.1211,1.1847,1.2414,1.2711,1.4006,1.4987,1.5189,1.5634,1.5944,1.5944,1.6261,1.6426,1.6394,1.6574,1.6607,1.6409,1.6574,1.6689,1.6689,1.6689,1.6689,1.6689,1.6689,1.6689,1.6689,1.6689,1.6689,1.6689,1.6689,1.6574,1.6409,1.6607,1.6319,1.5741,1.5484,1.5193,1.4824,1.4622,1.4538,1.4783,1.6642,1.874,2.0605,2.0605,2.0605,2.0605,2.0605,2.0605,2.0605,2.0605,2.0605,2.0605,2.0605,2.0605,2.0982,2.258,2.3001,2.3001,2.3001,2.3744,2.4716,2.5688,2.5895,2.5895,2.5895,2.5109,2.476,2.5732,2.5087,2.4443,2.4443,2.5273,2.5895,2.5895,2.4203,2.3001,2.3001,2.3001,2.3001,2.3001,2.3001,2.3001,2.3001,2.3001,2.3001,2.3001,2.3001,2.3001,2.3001,2.3001,2.3001,2.3001,2.3001,2.3001,2.3001,2.3001,2.3525,0.0,0.8838,0.9031,0.0,0.0,0.9324,0.0,0.0,0.0,1.007,0.9699,0.0,0.0,0.0,0.0,1.0675,0.0,0.0,0.0,1.3219,0.0,1.4835,1.5229,1.5507,1.5616,1.584,1.6,1.6029,1.6255,1.632,1.6152,1.6412,1.6615,1.6689,1.6689,1.6689,1.6689,1.6689,1.6689,1.6689,1.6689,1.6689,1.6689,1.6689,1.6656,1.6574,1.6656,1.6409,1.5955,1.5567,1.5193,1.4859,1.4908,1.511,1.576,1.8541,2.004,2.0605,2.0605,2.0605,2.0605,2.0605,2.0605,2.0605,2.0605,2.0605,2.0605,2.0605,2.0828,2.1448,2.3106,2.3558,2.3558,2.3558,2.476,2.5895,2.5895,2.5895,2.5895,2.5895,2.5895,2.5895,2.5895,2.5895,2.5895,2.5895,2.5895,2.5895,2.5895,2.4203,2.3001,2.3001,2.3001,2.3001,2.3001,2.3001,2.3001,2.3001,2.3001,2.3001,2.3001,2.3001,2.3001,2.3001,2.3001,2.3187,2.3558,2.3558,2.3362,2.3012,2.3383,2.4399,0.0,0.0,0.0,0.0,0.9577,0.0,0.0,0.0,0.9131,0.9031,0.0,0.0,0.0,0.0,0.0,0.0,0.0,0.0,1.0909,1.2238,1.3387,1.3725,1.4355,1.4887,1.5213,1.5276,1.5435,1.573,1.5405,1.5458,1.6166,1.6164,1.6327,1.6697,1.6689,1.6689,1.6689,1.6689,1.6689,1.6689,1.6689,1.6689,1.6689,1.6689,1.6492,1.617,1.6533,1.6229,1.5484,1.5436,1.5352,1.5269,1.4901,1.5594,1.6772,1.6206,1.794,2.0605,2.0605,2.0605,2.0605,2.0605,2.0605,2.0605,2.0605,2.0605,2.0605,2.0605,2.1634,2.3167,2.5079,2.5568,2.5568,2.5568,2.5742,2.5895,2.5895,2.5895,2.5895,2.5895,2.5895,2.5895,2.5895,2.5895,2.5895,2.5895,2.5895,2.5895,2.5895,2.4203,2.3001,2.3001,2.3001,2.3001,2.3001,2.3001,2.3001,2.3001,2.3001,2.3001,2.3001,2.3001,2.3001,2.3001,2.3001,2.3853,2.5568,2.5568,2.4683,2.3045,2.477,2.5688,0.0,0.0,0.0,0.0,0.0,0.0,0.9499,0.0,0.9224,0.0,0.0,0.0,0.0,0.0,0.0,0.0,1.0547,0.0,0.0,0.0,1.2442,0.0,0.0,0.0,1.48,1.4863,1.5156,1.5871,1.5428,1.5327,1.5824,1.6028,1.6227,1.6388,1.6586,1.6689,1.6689,1.6689,1.6689,1.6689,1.6689,1.6689,1.6689,1.6689,1.6615,1.6451,1.6615,1.6484,1.6147,1.5906,1.5658,1.5394,1.5409,1.5865,1.6476,1.6229,1.7561,1.9608,2.0323,2.0605,2.0605,2.0605,2.0605,2.0605,2.0605,2.0605,2.0789,2.1749,2.3296,2.4869,2.5688,2.5895,2.5895,2.5895,2.5895,2.5895,2.5895,2.5895,2.5895,2.5895,2.5895,2.5895,2.5895,2.5895,2.5895,2.5895,2.5895,2.5895,2.5895,2.5185,2.4246,2.3121,2.3001,2.3001,2.3001,2.3001,2.3001,2.3001,2.3001,2.3001,2.3001,2.3001,2.3536,2.4661,2.4683,2.5087,2.5895,2.5895,2.548,2.4705,2.5524,2.5895,1.0147,0.0,0.0,0.0,0.0,0.0,0.0,0.0,0.0,0.0,0.0,0.0,0.0,0.0,0.0,0.0,0.0,1.0543,0.0,1.101,0.0,0.0,0.0,0.0,0.0,1.4021,1.4405,1.5589,1.5087,1.5001,1.5598,1.5967,1.6189,1.6206,1.6547,1.6689,1.6689,1.6689,1.6689,1.6689,1.6689,1.6689,1.6689,1.6689,1.6689,1.6689,1.6689,1.6689,1.6656,1.6252,1.5948,1.5775,1.5748,1.5963,1.6294,1.6574,1.7772,1.9332,2.0284,2.0605,2.0605,2.0605,2.0605,2.0605,2.0605,2.0605,2.1053,2.3174,2.4814,2.5895,2.5895,2.5895,2.5895,2.5895,2.5895,2.5895,2.5895,2.5895,2.5895,2.5895,2.5895,2.5895,2.5895,2.5895,2.5895,2.5895,2.5895,2.5895,2.5895,2.5895,2.536,2.3951,2.3318,2.322,2.3755,2.3798,2.3798,2.3798,2.3798,2.3798,2.3798,2.3798,2.4454,2.5874,2.5895,2.5895,2.5895,2.5895,2.5895,2.5895,2.5895,2.5895,0.0,0.0,0.0,1.072,0.0,0.0,0.0,0.0,0.9593,0.0,0.0,0.0,0.0,0.0,0.0,0.0,0.0,0.0,0.0,0.0,0.0,0.0,0.0,0.0,0.0,1.2546,1.2879,0.0,1.3958,1.4193,1.5619,1.5947,1.6124,1.6214,1.6547,1.6689,1.6689,1.6689,1.6689,1.6689,1.6689,1.6689,1.6689,1.6689,1.6689,1.6689,1.6689,1.6689,1.6656,1.6252,1.6335,1.6566,1.5726,1.594,1.6697,1.6689,1.8327,2.0527,2.0605,2.0605,2.0605,2.0605,2.0605,2.0605,2.0605,2.0605,2.1341,2.4821,2.5852,2.5895,2.5895,2.5895,2.5895,2.5895,2.5895,2.5895,2.5895,2.5895,2.5895,2.5895,2.5895,2.5895,2.5895,2.5895,2.5895,2.5895,2.5895,2.5895,2.5895,2.5895,2.5874,2.5808,2.4126,2.3766,2.5644,2.5808,2.5808,2.5808,2.5808,2.5808,2.5808,2.5808,2.5841,2.5895,2.5895,2.5895,2.5895,2.5895,2.5895,2.5895,2.5895,2.5895,0.0,0.0,1.2275,1.1416,0.0,0.0,0.0,0.0,0.0,0.0,0.0,0.0,0.0,0.0,0.0,0.0,0.0,0.0,0.0,0.0,0.0,0.0,0.0,0.0,0.0,0.0,1.3713,1.5221,1.4428,0.0,1.5626,1.559,1.5599,1.5848,1.6198,1.65,1.6689,1.6689,1.6689,1.6689,1.6689,1.6689,1.6689,1.6689,1.6689,1.6689,1.6689,1.6689,1.6697,1.6533,1.6574,1.6648,1.6394,1.6443,1.6894,1.8647,1.9292,1.945,2.0323,2.0605,2.0605,2.0605,2.0605,2.0605,2.0605,2.1357,2.2762,2.5198,2.5895,2.5895,2.5895,2.5895,2.5895,2.5895,2.5895,2.5895,2.5895,2.5895,2.5895,2.5895,2.5895,2.5895,2.5895,2.5895,2.5895,2.5895,2.5895,2.5895,2.5895,2.5895,2.5895,2.5895,2.5317,2.5185,2.5841,2.5895,2.5895,2.5895,2.5895,2.5895,2.5895,2.5895,2.5895,2.5895,2.5895,2.5895,2.5895,2.5895,2.5895,2.5895,2.5895,2.5895,1.2725,1.2831,0.0,1.2212,1.204,0.0,1.1284,0.0,1.1195,0.0,0.0,0.0,0.0,0.0,0.0,0.0,0.0,0.0,0.0,1.0533,0.0,0.0,0.0,0.0,0.0,0.0,1.335,1.5356,1.4525,0.0,0.0,1.5594,1.5586,1.5712,1.6023,1.6373,1.6689,1.6689,1.6689,1.6689,1.6689,1.6689,1.6689,1.6689,1.6689,1.6689,1.6689,1.6689,1.6689,1.6689,1.6689,1.6689,1.6689,1.6689,1.7017,1.9648,2.0089,1.949,2.0323,2.0605,2.0605,2.0605,2.0605,2.0723,2.1289,2.2707,2.4348,2.5559,2.5895,2.5895,2.5895,2.5895,2.5895,2.5895,2.5895,2.5895,2.5895,2.5895,2.5895,2.5895,2.5895,2.5895,2.5895,2.5895,2.5895,2.5895,2.5895,2.5895,2.5895,2.5895,2.5895,2.5895,2.5895,2.5895,2.5895,2.5895,2.5895,2.5895,2.5895,2.5895,2.5895,2.5895,2.5895,2.5895,2.5895,2.5895,2.5895,2.5895,2.5895,2.5895,2.5895,2.5895]}]]